<?xml version="1.0" encoding="UTF-8"?><gpx version="1.1" creator="Relive" xmlns="http://www.topografix.com/GPX/1/1" xmlns:xsi="http://www.w3.org/2001/XMLSchema-instance" xsi:schemaLocation="http://www.topografix.com/GPX/1/1 http://www.topografix.com/GPX/1/1/gpx.xsd http://www.garmin.com/xmlschemas/TrackPointExtension/v1 http://www.garmin.com/xmlschemas/TrackPointExtensionv1.xsd http://www.garmin.com/xmlschemas/GpxExtensions/v3 http://www.garmin.com/xmlschemas/GpxExtensionsv3.xsd" xmlns:gpxtpx="http://www.garmin.com/xmlschemas/TrackPointExtension/v1" xmlns:gpxx="http://www.garmin.com/xmlschemas/GpxExtensions/v3"><metadata><time>2022-08-24T05:44:19.000Z</time><name>Monte Cevedale</name></metadata><trk><trkseg><trkpt lat="46.462667" lon="10.602783"><time>2022-08-24T05:44:19.000Z</time><ele>3290</ele></trkpt><trkpt lat="46.462626" lon="10.602791"><time>2022-08-24T05:44:22.000Z</time><ele>3290.2</ele></trkpt><trkpt lat="46.4626" lon="10.60277"><time>2022-08-24T05:44:24.000Z</time><ele>3290.2</ele></trkpt><trkpt lat="46.462594" lon="10.602747"><time>2022-08-24T05:44:26.000Z</time><ele>3289.2</ele></trkpt><trkpt lat="46.462604" lon="10.602733"><time>2022-08-24T05:44:29.000Z</time><ele>3289.2</ele></trkpt><trkpt lat="46.4626" lon="10.602719"><time>2022-08-24T05:44:30.000Z</time><ele>3289.4</ele></trkpt><trkpt lat="46.462574" lon="10.602707"><time>2022-08-24T05:44:35.000Z</time><ele>3289.8</ele></trkpt><trkpt lat="46.462587" lon="10.602702"><time>2022-08-24T05:44:43.000Z</time><ele>3289.8</ele></trkpt><trkpt lat="46.462596" lon="10.602702"><time>2022-08-24T05:44:58.000Z</time><ele>3289.2</ele></trkpt><trkpt lat="46.462593" lon="10.602686"><time>2022-08-24T05:45:24.000Z</time><ele>3289.4</ele></trkpt><trkpt lat="46.462605" lon="10.602667"><time>2022-08-24T05:46:03.000Z</time><ele>3289.2</ele></trkpt><trkpt lat="46.462604" lon="10.602667"><time>2022-08-24T05:46:10.000Z</time><ele>3289</ele></trkpt><trkpt lat="46.462572" lon="10.602654"><time>2022-08-24T05:46:38.000Z</time><ele>3289</ele></trkpt><trkpt lat="46.46257" lon="10.602654"><time>2022-08-24T05:46:39.000Z</time><ele>3289</ele></trkpt><trkpt lat="46.462568" lon="10.602654"><time>2022-08-24T05:46:40.000Z</time><ele>3289</ele></trkpt><trkpt lat="46.462565" lon="10.602654"><time>2022-08-24T05:46:41.000Z</time><ele>3289</ele></trkpt><trkpt lat="46.462545" lon="10.602658"><time>2022-08-24T05:46:51.000Z</time><ele>3289</ele></trkpt><trkpt lat="46.462543" lon="10.602658"><time>2022-08-24T05:46:55.000Z</time><ele>3289</ele></trkpt><trkpt lat="46.462536" lon="10.60266"><time>2022-08-24T05:47:10.000Z</time><ele>3289</ele></trkpt><trkpt lat="46.462536" lon="10.60266"><time>2022-08-24T05:47:12.000Z</time><ele>3289</ele></trkpt><trkpt lat="46.462536" lon="10.602661"><time>2022-08-24T05:47:15.000Z</time><ele>3289</ele></trkpt><trkpt lat="46.462537" lon="10.602664"><time>2022-08-24T05:47:18.000Z</time><ele>3289</ele></trkpt><trkpt lat="46.46254" lon="10.602674"><time>2022-08-24T05:47:30.000Z</time><ele>3289</ele></trkpt><trkpt lat="46.462539" lon="10.602676"><time>2022-08-24T05:47:55.000Z</time><ele>3289</ele></trkpt><trkpt lat="46.462539" lon="10.602676"><time>2022-08-24T05:48:05.000Z</time><ele>3289</ele></trkpt><trkpt lat="46.462539" lon="10.602677"><time>2022-08-24T05:48:11.000Z</time><ele>3286.2</ele></trkpt><trkpt lat="46.462539" lon="10.602677"><time>2022-08-24T05:48:12.000Z</time><ele>3286.2</ele></trkpt><trkpt lat="46.462539" lon="10.602679"><time>2022-08-24T05:48:50.000Z</time><ele>3286</ele></trkpt><trkpt lat="46.46254" lon="10.602681"><time>2022-08-24T05:49:13.000Z</time><ele>3286</ele></trkpt><trkpt lat="46.46254" lon="10.602682"><time>2022-08-24T05:49:42.000Z</time><ele>3286</ele></trkpt><trkpt lat="46.46254" lon="10.602682"><time>2022-08-24T05:49:43.000Z</time><ele>3286</ele></trkpt><trkpt lat="46.46254" lon="10.602685"><time>2022-08-24T05:50:15.000Z</time><ele>3286</ele></trkpt><trkpt lat="46.462541" lon="10.602686"><time>2022-08-24T05:50:39.000Z</time><ele>3286</ele></trkpt><trkpt lat="46.462541" lon="10.602686"><time>2022-08-24T05:50:40.000Z</time><ele>3286</ele></trkpt><trkpt lat="46.462541" lon="10.602687"><time>2022-08-24T05:50:54.000Z</time><ele>3286</ele></trkpt><trkpt lat="46.462541" lon="10.602688"><time>2022-08-24T05:51:21.000Z</time><ele>3286</ele></trkpt><trkpt lat="46.46254" lon="10.602688"><time>2022-08-24T05:51:28.000Z</time><ele>3286</ele></trkpt><trkpt lat="46.462467" lon="10.602808"><time>2022-08-24T05:51:38.000Z</time><ele>3286</ele></trkpt><trkpt lat="46.462397" lon="10.602928"><time>2022-08-24T05:51:46.000Z</time><ele>3286</ele></trkpt><trkpt lat="46.462344" lon="10.602991"><time>2022-08-24T05:51:54.000Z</time><ele>3284.8</ele></trkpt><trkpt lat="46.462338" lon="10.603001"><time>2022-08-24T05:51:55.000Z</time><ele>3284.6</ele></trkpt><trkpt lat="46.462303" lon="10.603074"><time>2022-08-24T05:52:02.000Z</time><ele>3283.8</ele></trkpt><trkpt lat="46.462287" lon="10.603114"><time>2022-08-24T05:52:06.000Z</time><ele>3283.6</ele></trkpt><trkpt lat="46.462265" lon="10.603161"><time>2022-08-24T05:52:10.000Z</time><ele>3283.6</ele></trkpt><trkpt lat="46.462212" lon="10.603227"><time>2022-08-24T05:52:18.000Z</time><ele>3283.2</ele></trkpt><trkpt lat="46.462181" lon="10.603245"><time>2022-08-24T05:52:25.000Z</time><ele>3282.8</ele></trkpt><trkpt lat="46.462168" lon="10.603253"><time>2022-08-24T05:52:27.000Z</time><ele>3283</ele></trkpt><trkpt lat="46.462124" lon="10.603268"><time>2022-08-24T05:52:33.000Z</time><ele>3282.8</ele></trkpt><trkpt lat="46.462096" lon="10.603276"><time>2022-08-24T05:52:36.000Z</time><ele>3282.8</ele></trkpt><trkpt lat="46.462052" lon="10.603295"><time>2022-08-24T05:52:42.000Z</time><ele>3283</ele></trkpt><trkpt lat="46.462043" lon="10.603309"><time>2022-08-24T05:52:44.000Z</time><ele>3283.2</ele></trkpt><trkpt lat="46.461994" lon="10.603362"><time>2022-08-24T05:52:52.000Z</time><ele>3282.4</ele></trkpt><trkpt lat="46.461952" lon="10.603416"><time>2022-08-24T05:52:58.000Z</time><ele>3281.6</ele></trkpt><trkpt lat="46.461944" lon="10.603425"><time>2022-08-24T05:52:59.000Z</time><ele>3281.4</ele></trkpt><trkpt lat="46.461923" lon="10.603462"><time>2022-08-24T05:53:03.000Z</time><ele>3281.2</ele></trkpt><trkpt lat="46.4619" lon="10.603479"><time>2022-08-24T05:53:06.000Z</time><ele>3281.6</ele></trkpt><trkpt lat="46.461894" lon="10.603488"><time>2022-08-24T05:53:07.000Z</time><ele>3281.6</ele></trkpt><trkpt lat="46.461891" lon="10.603499"><time>2022-08-24T05:53:08.000Z</time><ele>3281.6</ele></trkpt><trkpt lat="46.461882" lon="10.603507"><time>2022-08-24T05:53:09.000Z</time><ele>3281.4</ele></trkpt><trkpt lat="46.461873" lon="10.603518"><time>2022-08-24T05:53:10.000Z</time><ele>3281.4</ele></trkpt><trkpt lat="46.46186" lon="10.60354"><time>2022-08-24T05:53:12.000Z</time><ele>3281.2</ele></trkpt><trkpt lat="46.461835" lon="10.603581"><time>2022-08-24T05:53:16.000Z</time><ele>3281.2</ele></trkpt><trkpt lat="46.46183" lon="10.603589"><time>2022-08-24T05:53:17.000Z</time><ele>3281.2</ele></trkpt><trkpt lat="46.461807" lon="10.603625"><time>2022-08-24T05:53:21.000Z</time><ele>3281.6</ele></trkpt><trkpt lat="46.4618" lon="10.603632"><time>2022-08-24T05:53:22.000Z</time><ele>3281.8</ele></trkpt><trkpt lat="46.461762" lon="10.60368"><time>2022-08-24T05:53:29.000Z</time><ele>3282.4</ele></trkpt><trkpt lat="46.461762" lon="10.60368"><time>2022-08-24T05:53:30.000Z</time><ele>3282.4</ele></trkpt><trkpt lat="46.461752" lon="10.603701"><time>2022-08-24T05:53:32.000Z</time><ele>3282.6</ele></trkpt><trkpt lat="46.461748" lon="10.603714"><time>2022-08-24T05:53:34.000Z</time><ele>3283</ele></trkpt><trkpt lat="46.461742" lon="10.603734"><time>2022-08-24T05:53:36.000Z</time><ele>3283.6</ele></trkpt><trkpt lat="46.461741" lon="10.603741"><time>2022-08-24T05:53:37.000Z</time><ele>3284</ele></trkpt><trkpt lat="46.461732" lon="10.603764"><time>2022-08-24T05:53:39.000Z</time><ele>3284.2</ele></trkpt><trkpt lat="46.461722" lon="10.60381"><time>2022-08-24T05:53:44.000Z</time><ele>3284.6</ele></trkpt><trkpt lat="46.461701" lon="10.603852"><time>2022-08-24T05:53:49.000Z</time><ele>3285.2</ele></trkpt><trkpt lat="46.461677" lon="10.603892"><time>2022-08-24T05:53:55.000Z</time><ele>3286.4</ele></trkpt><trkpt lat="46.46167" lon="10.6039"><time>2022-08-24T05:53:57.000Z</time><ele>3286.6</ele></trkpt><trkpt lat="46.461652" lon="10.603941"><time>2022-08-24T05:54:03.000Z</time><ele>3287.4</ele></trkpt><trkpt lat="46.461648" lon="10.60396"><time>2022-08-24T05:54:06.000Z</time><ele>3287.8</ele></trkpt><trkpt lat="46.461646" lon="10.603988"><time>2022-08-24T05:54:09.000Z</time><ele>3288.6</ele></trkpt><trkpt lat="46.461644" lon="10.604007"><time>2022-08-24T05:54:12.000Z</time><ele>3289.2</ele></trkpt><trkpt lat="46.461632" lon="10.60404"><time>2022-08-24T05:54:17.000Z</time><ele>3289.8</ele></trkpt><trkpt lat="46.461619" lon="10.604067"><time>2022-08-24T05:54:20.000Z</time><ele>3290.2</ele></trkpt><trkpt lat="46.461611" lon="10.604081"><time>2022-08-24T05:54:22.000Z</time><ele>3291</ele></trkpt><trkpt lat="46.461612" lon="10.604106"><time>2022-08-24T05:54:26.000Z</time><ele>3291.6</ele></trkpt><trkpt lat="46.461608" lon="10.604124"><time>2022-08-24T05:54:29.000Z</time><ele>3292.2</ele></trkpt><trkpt lat="46.461595" lon="10.604159"><time>2022-08-24T05:54:35.000Z</time><ele>3293</ele></trkpt><trkpt lat="46.461586" lon="10.604176"><time>2022-08-24T05:54:38.000Z</time><ele>3293.4</ele></trkpt><trkpt lat="46.461569" lon="10.604207"><time>2022-08-24T05:54:42.000Z</time><ele>3293.6</ele></trkpt><trkpt lat="46.461563" lon="10.604231"><time>2022-08-24T05:54:44.000Z</time><ele>3293.6</ele></trkpt><trkpt lat="46.461559" lon="10.604248"><time>2022-08-24T05:54:46.000Z</time><ele>3293.8</ele></trkpt><trkpt lat="46.461551" lon="10.604261"><time>2022-08-24T05:54:48.000Z</time><ele>3294.4</ele></trkpt><trkpt lat="46.461541" lon="10.604279"><time>2022-08-24T05:54:50.000Z</time><ele>3294.8</ele></trkpt><trkpt lat="46.46154" lon="10.604287"><time>2022-08-24T05:54:51.000Z</time><ele>3295</ele></trkpt><trkpt lat="46.461541" lon="10.604292"><time>2022-08-24T05:54:52.000Z</time><ele>3295</ele></trkpt><trkpt lat="46.461528" lon="10.604314"><time>2022-08-24T05:54:56.000Z</time><ele>3295.4</ele></trkpt><trkpt lat="46.461522" lon="10.604331"><time>2022-08-24T05:54:58.000Z</time><ele>3295.8</ele></trkpt><trkpt lat="46.461504" lon="10.604401"><time>2022-08-24T05:55:06.000Z</time><ele>3296.4</ele></trkpt><trkpt lat="46.461501" lon="10.604425"><time>2022-08-24T05:55:08.000Z</time><ele>3296.8</ele></trkpt><trkpt lat="46.461491" lon="10.604466"><time>2022-08-24T05:55:12.000Z</time><ele>3297.4</ele></trkpt><trkpt lat="46.461482" lon="10.60449"><time>2022-08-24T05:55:15.000Z</time><ele>3297.4</ele></trkpt><trkpt lat="46.461461" lon="10.604518"><time>2022-08-24T05:55:18.000Z</time><ele>3297.6</ele></trkpt><trkpt lat="46.461442" lon="10.604579"><time>2022-08-24T05:55:24.000Z</time><ele>3297.6</ele></trkpt><trkpt lat="46.461424" lon="10.604621"><time>2022-08-24T05:55:29.000Z</time><ele>3298.4</ele></trkpt><trkpt lat="46.461424" lon="10.604631"><time>2022-08-24T05:55:30.000Z</time><ele>3298.6</ele></trkpt><trkpt lat="46.461399" lon="10.604689"><time>2022-08-24T05:55:36.000Z</time><ele>3298.8</ele></trkpt><trkpt lat="46.461391" lon="10.604707"><time>2022-08-24T05:55:38.000Z</time><ele>3298.8</ele></trkpt><trkpt lat="46.461359" lon="10.604756"><time>2022-08-24T05:55:44.000Z</time><ele>3299.2</ele></trkpt><trkpt lat="46.461349" lon="10.604783"><time>2022-08-24T05:55:46.000Z</time><ele>3299.4</ele></trkpt><trkpt lat="46.461338" lon="10.604809"><time>2022-08-24T05:55:49.000Z</time><ele>3299.6</ele></trkpt><trkpt lat="46.461303" lon="10.604853"><time>2022-08-24T05:55:55.000Z</time><ele>3299.8</ele></trkpt><trkpt lat="46.461277" lon="10.604929"><time>2022-08-24T05:56:03.000Z</time><ele>3300.4</ele></trkpt><trkpt lat="46.461252" lon="10.604992"><time>2022-08-24T05:56:09.000Z</time><ele>3300.6</ele></trkpt><trkpt lat="46.461235" lon="10.605023"><time>2022-08-24T05:56:12.000Z</time><ele>3300.8</ele></trkpt><trkpt lat="46.461208" lon="10.605075"><time>2022-08-24T05:56:18.000Z</time><ele>3301.4</ele></trkpt><trkpt lat="46.461176" lon="10.605144"><time>2022-08-24T05:56:27.000Z</time><ele>3301.6</ele></trkpt><trkpt lat="46.461157" lon="10.605177"><time>2022-08-24T05:56:31.000Z</time><ele>3302.2</ele></trkpt><trkpt lat="46.461127" lon="10.605247"><time>2022-08-24T05:56:37.000Z</time><ele>3303</ele></trkpt><trkpt lat="46.461118" lon="10.605268"><time>2022-08-24T05:56:39.000Z</time><ele>3303.2</ele></trkpt><trkpt lat="46.46108" lon="10.605342"><time>2022-08-24T05:56:48.000Z</time><ele>3303.6</ele></trkpt><trkpt lat="46.461067" lon="10.60538"><time>2022-08-24T05:56:51.000Z</time><ele>3304</ele></trkpt><trkpt lat="46.461035" lon="10.60548"><time>2022-08-24T05:57:01.000Z</time><ele>3304.6</ele></trkpt><trkpt lat="46.461021" lon="10.605511"><time>2022-08-24T05:57:04.000Z</time><ele>3305.2</ele></trkpt><trkpt lat="46.461006" lon="10.605569"><time>2022-08-24T05:57:10.000Z</time><ele>3305.8</ele></trkpt><trkpt lat="46.461" lon="10.605585"><time>2022-08-24T05:57:12.000Z</time><ele>3306.2</ele></trkpt><trkpt lat="46.460993" lon="10.605628"><time>2022-08-24T05:57:17.000Z</time><ele>3306.8</ele></trkpt><trkpt lat="46.460988" lon="10.605643"><time>2022-08-24T05:57:18.000Z</time><ele>3306.8</ele></trkpt><trkpt lat="46.460984" lon="10.605651"><time>2022-08-24T05:57:19.000Z</time><ele>3306.8</ele></trkpt><trkpt lat="46.460962" lon="10.605679"><time>2022-08-24T05:57:23.000Z</time><ele>3307.4</ele></trkpt><trkpt lat="46.460944" lon="10.605728"><time>2022-08-24T05:57:28.000Z</time><ele>3308</ele></trkpt><trkpt lat="46.460932" lon="10.605785"><time>2022-08-24T05:57:34.000Z</time><ele>3308.4</ele></trkpt><trkpt lat="46.460927" lon="10.605796"><time>2022-08-24T05:57:35.000Z</time><ele>3308.4</ele></trkpt><trkpt lat="46.460927" lon="10.605796"><time>2022-08-24T05:57:36.000Z</time><ele>3308.6</ele></trkpt><trkpt lat="46.460919" lon="10.605856"><time>2022-08-24T05:57:40.000Z</time><ele>3309.2</ele></trkpt><trkpt lat="46.460906" lon="10.605887"><time>2022-08-24T05:57:43.000Z</time><ele>3309.6</ele></trkpt><trkpt lat="46.460904" lon="10.605895"><time>2022-08-24T05:57:44.000Z</time><ele>3309.6</ele></trkpt><trkpt lat="46.460897" lon="10.605916"><time>2022-08-24T05:57:46.000Z</time><ele>3309.8</ele></trkpt><trkpt lat="46.460869" lon="10.605992"><time>2022-08-24T05:57:55.000Z</time><ele>3310.6</ele></trkpt><trkpt lat="46.460863" lon="10.606009"><time>2022-08-24T05:57:57.000Z</time><ele>3311</ele></trkpt><trkpt lat="46.460846" lon="10.606038"><time>2022-08-24T05:58:00.000Z</time><ele>3311.2</ele></trkpt><trkpt lat="46.460828" lon="10.606088"><time>2022-08-24T05:58:05.000Z</time><ele>3311.4</ele></trkpt><trkpt lat="46.460809" lon="10.606127"><time>2022-08-24T05:58:09.000Z</time><ele>3311.8</ele></trkpt><trkpt lat="46.460783" lon="10.606178"><time>2022-08-24T05:58:15.000Z</time><ele>3312.6</ele></trkpt><trkpt lat="46.460782" lon="10.606191"><time>2022-08-24T05:58:16.000Z</time><ele>3312.8</ele></trkpt><trkpt lat="46.460772" lon="10.606224"><time>2022-08-24T05:58:19.000Z</time><ele>3313</ele></trkpt><trkpt lat="46.460759" lon="10.606271"><time>2022-08-24T05:58:23.000Z</time><ele>3313</ele></trkpt><trkpt lat="46.460746" lon="10.606376"><time>2022-08-24T05:58:32.000Z</time><ele>3313.2</ele></trkpt><trkpt lat="46.460745" lon="10.606415"><time>2022-08-24T05:58:35.000Z</time><ele>3313.4</ele></trkpt><trkpt lat="46.460741" lon="10.606519"><time>2022-08-24T05:58:43.000Z</time><ele>3313.6</ele></trkpt><trkpt lat="46.460731" lon="10.60655"><time>2022-08-24T05:58:45.000Z</time><ele>3313.4</ele></trkpt><trkpt lat="46.460728" lon="10.606568"><time>2022-08-24T05:58:48.000Z</time><ele>3313</ele></trkpt><trkpt lat="46.460726" lon="10.606572"><time>2022-08-24T05:58:50.000Z</time><ele>3312.8</ele></trkpt><trkpt lat="46.460712" lon="10.606591"><time>2022-08-24T05:59:01.000Z</time><ele>3313.4</ele></trkpt><trkpt lat="46.46071" lon="10.606597"><time>2022-08-24T05:59:33.000Z</time><ele>3313.2</ele></trkpt><trkpt lat="46.460707" lon="10.606593"><time>2022-08-24T05:59:42.000Z</time><ele>3313.2</ele></trkpt><trkpt lat="46.460715" lon="10.606581"><time>2022-08-24T05:59:51.000Z</time><ele>3313.4</ele></trkpt><trkpt lat="46.460721" lon="10.606578"><time>2022-08-24T05:59:56.000Z</time><ele>3313.4</ele></trkpt><trkpt lat="46.460724" lon="10.606572"><time>2022-08-24T06:00:04.000Z</time><ele>3313.2</ele></trkpt><trkpt lat="46.460726" lon="10.606571"><time>2022-08-24T06:00:08.000Z</time><ele>3313.4</ele></trkpt><trkpt lat="46.460727" lon="10.606571"><time>2022-08-24T06:00:10.000Z</time><ele>3313.6</ele></trkpt><trkpt lat="46.460725" lon="10.606592"><time>2022-08-24T06:00:17.000Z</time><ele>3313.8</ele></trkpt><trkpt lat="46.460728" lon="10.606681"><time>2022-08-24T06:00:23.000Z</time><ele>3313.6</ele></trkpt><trkpt lat="46.460724" lon="10.60677"><time>2022-08-24T06:00:30.000Z</time><ele>3314</ele></trkpt><trkpt lat="46.460713" lon="10.606851"><time>2022-08-24T06:00:35.000Z</time><ele>3313.2</ele></trkpt><trkpt lat="46.460711" lon="10.606861"><time>2022-08-24T06:00:36.000Z</time><ele>3312.8</ele></trkpt><trkpt lat="46.460709" lon="10.606941"><time>2022-08-24T06:00:43.000Z</time><ele>3312.2</ele></trkpt><trkpt lat="46.4607" lon="10.607043"><time>2022-08-24T06:00:52.000Z</time><ele>3312</ele></trkpt><trkpt lat="46.4607" lon="10.607055"><time>2022-08-24T06:00:53.000Z</time><ele>3311.8</ele></trkpt><trkpt lat="46.460695" lon="10.607103"><time>2022-08-24T06:00:57.000Z</time><ele>3310.8</ele></trkpt><trkpt lat="46.460688" lon="10.607137"><time>2022-08-24T06:01:00.000Z</time><ele>3310</ele></trkpt><trkpt lat="46.460687" lon="10.607152"><time>2022-08-24T06:01:01.000Z</time><ele>3309.6</ele></trkpt><trkpt lat="46.460678" lon="10.607224"><time>2022-08-24T06:01:08.000Z</time><ele>3308.8</ele></trkpt><trkpt lat="46.460672" lon="10.607246"><time>2022-08-24T06:01:10.000Z</time><ele>3308.2</ele></trkpt><trkpt lat="46.460655" lon="10.6073"><time>2022-08-24T06:01:16.000Z</time><ele>3307.2</ele></trkpt><trkpt lat="46.46065" lon="10.607311"><time>2022-08-24T06:01:17.000Z</time><ele>3307.2</ele></trkpt><trkpt lat="46.460644" lon="10.607317"><time>2022-08-24T06:01:18.000Z</time><ele>3307</ele></trkpt><trkpt lat="46.460623" lon="10.607347"><time>2022-08-24T06:01:23.000Z</time><ele>3306</ele></trkpt><trkpt lat="46.460606" lon="10.607356"><time>2022-08-24T06:01:28.000Z</time><ele>3305.6</ele></trkpt><trkpt lat="46.46053" lon="10.60738"><time>2022-08-24T06:01:38.000Z</time><ele>3306.2</ele></trkpt><trkpt lat="46.460521" lon="10.607388"><time>2022-08-24T06:01:40.000Z</time><ele>3306.8</ele></trkpt><trkpt lat="46.460505" lon="10.607383"><time>2022-08-24T06:01:48.000Z</time><ele>3307</ele></trkpt><trkpt lat="46.460497" lon="10.607387"><time>2022-08-24T06:01:50.000Z</time><ele>3307</ele></trkpt><trkpt lat="46.460486" lon="10.60739"><time>2022-08-24T06:01:53.000Z</time><ele>3307</ele></trkpt><trkpt lat="46.460475" lon="10.607392"><time>2022-08-24T06:01:56.000Z</time><ele>3306.8</ele></trkpt><trkpt lat="46.460464" lon="10.607395"><time>2022-08-24T06:01:58.000Z</time><ele>3307</ele></trkpt><trkpt lat="46.460459" lon="10.607408"><time>2022-08-24T06:02:01.000Z</time><ele>3307.6</ele></trkpt><trkpt lat="46.460457" lon="10.607413"><time>2022-08-24T06:02:03.000Z</time><ele>3308.2</ele></trkpt><trkpt lat="46.460448" lon="10.607416"><time>2022-08-24T06:02:07.000Z</time><ele>3308.4</ele></trkpt><trkpt lat="46.460434" lon="10.607425"><time>2022-08-24T06:02:13.000Z</time><ele>3309</ele></trkpt><trkpt lat="46.460434" lon="10.607425"><time>2022-08-24T06:02:16.000Z</time><ele>3309.4</ele></trkpt><trkpt lat="46.460432" lon="10.607427"><time>2022-08-24T06:02:30.000Z</time><ele>3310</ele></trkpt><trkpt lat="46.46043" lon="10.607428"><time>2022-08-24T06:02:32.000Z</time><ele>3310</ele></trkpt><trkpt lat="46.460423" lon="10.607429"><time>2022-08-24T06:02:35.000Z</time><ele>3310</ele></trkpt><trkpt lat="46.460418" lon="10.607429"><time>2022-08-24T06:02:37.000Z</time><ele>3310</ele></trkpt><trkpt lat="46.460405" lon="10.607427"><time>2022-08-24T06:02:58.000Z</time><ele>3310.4</ele></trkpt><trkpt lat="46.460404" lon="10.607425"><time>2022-08-24T06:03:19.000Z</time><ele>3310.8</ele></trkpt><trkpt lat="46.460404" lon="10.607423"><time>2022-08-24T06:03:22.000Z</time><ele>3310.8</ele></trkpt><trkpt lat="46.460399" lon="10.607405"><time>2022-08-24T06:03:28.000Z</time><ele>3311.2</ele></trkpt><trkpt lat="46.460399" lon="10.607404"><time>2022-08-24T06:03:31.000Z</time><ele>3311.4</ele></trkpt><trkpt lat="46.460402" lon="10.6074"><time>2022-08-24T06:03:39.000Z</time><ele>3311.2</ele></trkpt><trkpt lat="46.460403" lon="10.6074"><time>2022-08-24T06:03:41.000Z</time><ele>3311</ele></trkpt><trkpt lat="46.460403" lon="10.607399"><time>2022-08-24T06:03:43.000Z</time><ele>3311</ele></trkpt><trkpt lat="46.460403" lon="10.607399"><time>2022-08-24T06:03:48.000Z</time><ele>3311.2</ele></trkpt><trkpt lat="46.460391" lon="10.607393"><time>2022-08-24T06:04:12.000Z</time><ele>3312.2</ele></trkpt><trkpt lat="46.460379" lon="10.607393"><time>2022-08-24T06:04:16.000Z</time><ele>3312.4</ele></trkpt><trkpt lat="46.460361" lon="10.607396"><time>2022-08-24T06:04:28.000Z</time><ele>3313.6</ele></trkpt><trkpt lat="46.460355" lon="10.607396"><time>2022-08-24T06:04:32.000Z</time><ele>3314.6</ele></trkpt><trkpt lat="46.460348" lon="10.607397"><time>2022-08-24T06:04:36.000Z</time><ele>3314.8</ele></trkpt><trkpt lat="46.460332" lon="10.607401"><time>2022-08-24T06:04:44.000Z</time><ele>3315.8</ele></trkpt><trkpt lat="46.460329" lon="10.607403"><time>2022-08-24T06:04:49.000Z</time><ele>3316.2</ele></trkpt><trkpt lat="46.460328" lon="10.607403"><time>2022-08-24T06:04:50.000Z</time><ele>3316.2</ele></trkpt><trkpt lat="46.460325" lon="10.607403"><time>2022-08-24T06:04:56.000Z</time><ele>3316.8</ele></trkpt><trkpt lat="46.460307" lon="10.607396"><time>2022-08-24T06:05:10.000Z</time><ele>3318</ele></trkpt><trkpt lat="46.460293" lon="10.607387"><time>2022-08-24T06:05:20.000Z</time><ele>3319</ele></trkpt><trkpt lat="46.460289" lon="10.607383"><time>2022-08-24T06:05:24.000Z</time><ele>3319.4</ele></trkpt><trkpt lat="46.460286" lon="10.607381"><time>2022-08-24T06:05:28.000Z</time><ele>3320</ele></trkpt><trkpt lat="46.460283" lon="10.607379"><time>2022-08-24T06:05:34.000Z</time><ele>3321</ele></trkpt><trkpt lat="46.460283" lon="10.607379"><time>2022-08-24T06:05:38.000Z</time><ele>3321</ele></trkpt><trkpt lat="46.460283" lon="10.607379"><time>2022-08-24T06:05:41.000Z</time><ele>3321.2</ele></trkpt><trkpt lat="46.460283" lon="10.607378"><time>2022-08-24T06:05:44.000Z</time><ele>3322.2</ele></trkpt><trkpt lat="46.460282" lon="10.607378"><time>2022-08-24T06:05:50.000Z</time><ele>3322.8</ele></trkpt><trkpt lat="46.460281" lon="10.607378"><time>2022-08-24T06:05:55.000Z</time><ele>3323.2</ele></trkpt><trkpt lat="46.46028" lon="10.607377"><time>2022-08-24T06:06:01.000Z</time><ele>3323.8</ele></trkpt><trkpt lat="46.460279" lon="10.607377"><time>2022-08-24T06:06:05.000Z</time><ele>3324.2</ele></trkpt><trkpt lat="46.460278" lon="10.607376"><time>2022-08-24T06:06:13.000Z</time><ele>3325.4</ele></trkpt><trkpt lat="46.460275" lon="10.607374"><time>2022-08-24T06:06:26.000Z</time><ele>3326.4</ele></trkpt><trkpt lat="46.460274" lon="10.607373"><time>2022-08-24T06:06:30.000Z</time><ele>3327</ele></trkpt><trkpt lat="46.460273" lon="10.607372"><time>2022-08-24T06:06:32.000Z</time><ele>3327.4</ele></trkpt><trkpt lat="46.460272" lon="10.607371"><time>2022-08-24T06:06:36.000Z</time><ele>3328</ele></trkpt><trkpt lat="46.46027" lon="10.60737"><time>2022-08-24T06:06:43.000Z</time><ele>3328.8</ele></trkpt><trkpt lat="46.460268" lon="10.607368"><time>2022-08-24T06:06:51.000Z</time><ele>3329.8</ele></trkpt><trkpt lat="46.460265" lon="10.607366"><time>2022-08-24T06:06:59.000Z</time><ele>3330.8</ele></trkpt><trkpt lat="46.460264" lon="10.607366"><time>2022-08-24T06:07:02.000Z</time><ele>3331</ele></trkpt><trkpt lat="46.460255" lon="10.60736"><time>2022-08-24T06:07:26.000Z</time><ele>3329.8</ele></trkpt><trkpt lat="46.460254" lon="10.607359"><time>2022-08-24T06:07:29.000Z</time><ele>3329.6</ele></trkpt><trkpt lat="46.460253" lon="10.607359"><time>2022-08-24T06:07:31.000Z</time><ele>3329.4</ele></trkpt><trkpt lat="46.460251" lon="10.607358"><time>2022-08-24T06:07:36.000Z</time><ele>3328.8</ele></trkpt><trkpt lat="46.460246" lon="10.607356"><time>2022-08-24T06:07:47.000Z</time><ele>3327.6</ele></trkpt><trkpt lat="46.460244" lon="10.607356"><time>2022-08-24T06:07:52.000Z</time><ele>3327</ele></trkpt><trkpt lat="46.460241" lon="10.607356"><time>2022-08-24T06:07:57.000Z</time><ele>3326.4</ele></trkpt><trkpt lat="46.460236" lon="10.607356"><time>2022-08-24T06:08:10.000Z</time><ele>3327.6</ele></trkpt><trkpt lat="46.460232" lon="10.607358"><time>2022-08-24T06:08:16.000Z</time><ele>3328</ele></trkpt><trkpt lat="46.460232" lon="10.607358"><time>2022-08-24T06:08:17.000Z</time><ele>3328.2</ele></trkpt><trkpt lat="46.460231" lon="10.607358"><time>2022-08-24T06:08:19.000Z</time><ele>3328.6</ele></trkpt><trkpt lat="46.460226" lon="10.607361"><time>2022-08-24T06:08:28.000Z</time><ele>3329.6</ele></trkpt><trkpt lat="46.460226" lon="10.607362"><time>2022-08-24T06:08:30.000Z</time><ele>3329.6</ele></trkpt><trkpt lat="46.460225" lon="10.607362"><time>2022-08-24T06:08:31.000Z</time><ele>3329.6</ele></trkpt><trkpt lat="46.460222" lon="10.607365"><time>2022-08-24T06:08:37.000Z</time><ele>3330.8</ele></trkpt><trkpt lat="46.460221" lon="10.607367"><time>2022-08-24T06:08:41.000Z</time><ele>3332</ele></trkpt><trkpt lat="46.460216" lon="10.607372"><time>2022-08-24T06:08:51.000Z</time><ele>3333</ele></trkpt><trkpt lat="46.460213" lon="10.607376"><time>2022-08-24T06:08:59.000Z</time><ele>3334.2</ele></trkpt><trkpt lat="46.460212" lon="10.607377"><time>2022-08-24T06:09:00.000Z</time><ele>3334.4</ele></trkpt><trkpt lat="46.460212" lon="10.607378"><time>2022-08-24T06:09:02.000Z</time><ele>3334.6</ele></trkpt><trkpt lat="46.460211" lon="10.607378"><time>2022-08-24T06:09:03.000Z</time><ele>3334.8</ele></trkpt><trkpt lat="46.46021" lon="10.60738"><time>2022-08-24T06:09:06.000Z</time><ele>3335.2</ele></trkpt><trkpt lat="46.460205" lon="10.607386"><time>2022-08-24T06:09:15.000Z</time><ele>3336.4</ele></trkpt><trkpt lat="46.460201" lon="10.60739"><time>2022-08-24T06:09:22.000Z</time><ele>3337.4</ele></trkpt><trkpt lat="46.460196" lon="10.607396"><time>2022-08-24T06:09:30.000Z</time><ele>3338.8</ele></trkpt><trkpt lat="46.460191" lon="10.607403"><time>2022-08-24T06:09:39.000Z</time><ele>3339.2</ele></trkpt><trkpt lat="46.46019" lon="10.607404"><time>2022-08-24T06:09:40.000Z</time><ele>3339.2</ele></trkpt><trkpt lat="46.460188" lon="10.607406"><time>2022-08-24T06:09:43.000Z</time><ele>3339.8</ele></trkpt><trkpt lat="46.460187" lon="10.607408"><time>2022-08-24T06:09:45.000Z</time><ele>3340.2</ele></trkpt><trkpt lat="46.460185" lon="10.607411"><time>2022-08-24T06:09:49.000Z</time><ele>3341</ele></trkpt><trkpt lat="46.460179" lon="10.607418"><time>2022-08-24T06:09:58.000Z</time><ele>3342.2</ele></trkpt><trkpt lat="46.460172" lon="10.607426"><time>2022-08-24T06:10:08.000Z</time><ele>3343.2</ele></trkpt><trkpt lat="46.460169" lon="10.607431"><time>2022-08-24T06:10:13.000Z</time><ele>3344</ele></trkpt><trkpt lat="46.460167" lon="10.607433"><time>2022-08-24T06:10:15.000Z</time><ele>3344.4</ele></trkpt><trkpt lat="46.460161" lon="10.607441"><time>2022-08-24T06:10:24.000Z</time><ele>3345.4</ele></trkpt><trkpt lat="46.460157" lon="10.607446"><time>2022-08-24T06:10:30.000Z</time><ele>3346.4</ele></trkpt><trkpt lat="46.460151" lon="10.607454"><time>2022-08-24T06:10:38.000Z</time><ele>3347.4</ele></trkpt><trkpt lat="46.460148" lon="10.607457"><time>2022-08-24T06:10:41.000Z</time><ele>3347.6</ele></trkpt><trkpt lat="46.460142" lon="10.607465"><time>2022-08-24T06:10:49.000Z</time><ele>3348.6</ele></trkpt><trkpt lat="46.460134" lon="10.607476"><time>2022-08-24T06:10:59.000Z</time><ele>3349.4</ele></trkpt><trkpt lat="46.460133" lon="10.607478"><time>2022-08-24T06:11:01.000Z</time><ele>3350</ele></trkpt><trkpt lat="46.460124" lon="10.60749"><time>2022-08-24T06:11:11.000Z</time><ele>3351</ele></trkpt><trkpt lat="46.460117" lon="10.6075"><time>2022-08-24T06:11:20.000Z</time><ele>3352.2</ele></trkpt><trkpt lat="46.460108" lon="10.607512"><time>2022-08-24T06:11:30.000Z</time><ele>3353.4</ele></trkpt><trkpt lat="46.460102" lon="10.607521"><time>2022-08-24T06:11:37.000Z</time><ele>3354.4</ele></trkpt><trkpt lat="46.460094" lon="10.607531"><time>2022-08-24T06:11:45.000Z</time><ele>3355.4</ele></trkpt><trkpt lat="46.460089" lon="10.607539"><time>2022-08-24T06:11:51.000Z</time><ele>3356</ele></trkpt><trkpt lat="46.460084" lon="10.607546"><time>2022-08-24T06:11:56.000Z</time><ele>3356.4</ele></trkpt><trkpt lat="46.460076" lon="10.607557"><time>2022-08-24T06:12:04.000Z</time><ele>3357.6</ele></trkpt><trkpt lat="46.460068" lon="10.607568"><time>2022-08-24T06:12:12.000Z</time><ele>3358.6</ele></trkpt><trkpt lat="46.460062" lon="10.607577"><time>2022-08-24T06:12:18.000Z</time><ele>3359.4</ele></trkpt><trkpt lat="46.46006" lon="10.60758"><time>2022-08-24T06:12:20.000Z</time><ele>3359.8</ele></trkpt><trkpt lat="46.460054" lon="10.607589"><time>2022-08-24T06:12:26.000Z</time><ele>3360</ele></trkpt><trkpt lat="46.460047" lon="10.607598"><time>2022-08-24T06:12:32.000Z</time><ele>3360.8</ele></trkpt><trkpt lat="46.460037" lon="10.607613"><time>2022-08-24T06:12:42.000Z</time><ele>3361.8</ele></trkpt><trkpt lat="46.460029" lon="10.607625"><time>2022-08-24T06:12:50.000Z</time><ele>3362.8</ele></trkpt><trkpt lat="46.460022" lon="10.607634"><time>2022-08-24T06:12:55.000Z</time><ele>3364</ele></trkpt><trkpt lat="46.460006" lon="10.607658"><time>2022-08-24T06:13:09.000Z</time><ele>3365</ele></trkpt><trkpt lat="46.46" lon="10.607667"><time>2022-08-24T06:13:14.000Z</time><ele>3365.2</ele></trkpt><trkpt lat="46.459997" lon="10.607672"><time>2022-08-24T06:13:17.000Z</time><ele>3366.2</ele></trkpt><trkpt lat="46.45999" lon="10.607683"><time>2022-08-24T06:13:23.000Z</time><ele>3367</ele></trkpt><trkpt lat="46.459988" lon="10.607685"><time>2022-08-24T06:13:24.000Z</time><ele>3367</ele></trkpt><trkpt lat="46.459987" lon="10.607687"><time>2022-08-24T06:13:25.000Z</time><ele>3367</ele></trkpt><trkpt lat="46.459985" lon="10.607691"><time>2022-08-24T06:13:27.000Z</time><ele>3367.2</ele></trkpt><trkpt lat="46.459984" lon="10.607692"><time>2022-08-24T06:13:28.000Z</time><ele>3367.4</ele></trkpt><trkpt lat="46.459982" lon="10.607694"><time>2022-08-24T06:13:29.000Z</time><ele>3367.2</ele></trkpt><trkpt lat="46.45998" lon="10.607698"><time>2022-08-24T06:13:31.000Z</time><ele>3367.4</ele></trkpt><trkpt lat="46.45997" lon="10.607713"><time>2022-08-24T06:13:39.000Z</time><ele>3368.4</ele></trkpt><trkpt lat="46.459958" lon="10.607732"><time>2022-08-24T06:13:49.000Z</time><ele>3369.4</ele></trkpt><trkpt lat="46.459943" lon="10.607755"><time>2022-08-24T06:14:01.000Z</time><ele>3370.4</ele></trkpt><trkpt lat="46.459934" lon="10.607769"><time>2022-08-24T06:14:08.000Z</time><ele>3371</ele></trkpt><trkpt lat="46.459929" lon="10.607777"><time>2022-08-24T06:14:12.000Z</time><ele>3371.2</ele></trkpt><trkpt lat="46.459926" lon="10.607781"><time>2022-08-24T06:14:14.000Z</time><ele>3371.4</ele></trkpt><trkpt lat="46.459922" lon="10.607787"><time>2022-08-24T06:14:17.000Z</time><ele>3372</ele></trkpt><trkpt lat="46.459921" lon="10.607789"><time>2022-08-24T06:14:18.000Z</time><ele>3372.2</ele></trkpt><trkpt lat="46.459917" lon="10.607796"><time>2022-08-24T06:14:21.000Z</time><ele>3372.6</ele></trkpt><trkpt lat="46.459901" lon="10.607821"><time>2022-08-24T06:14:33.000Z</time><ele>3373.8</ele></trkpt><trkpt lat="46.45989" lon="10.607838"><time>2022-08-24T06:14:41.000Z</time><ele>3374.8</ele></trkpt><trkpt lat="46.45988" lon="10.607853"><time>2022-08-24T06:14:48.000Z</time><ele>3375.4</ele></trkpt><trkpt lat="46.459873" lon="10.607864"><time>2022-08-24T06:14:53.000Z</time><ele>3376</ele></trkpt><trkpt lat="46.459865" lon="10.607877"><time>2022-08-24T06:14:59.000Z</time><ele>3376.2</ele></trkpt><trkpt lat="46.459856" lon="10.607891"><time>2022-08-24T06:15:05.000Z</time><ele>3377</ele></trkpt><trkpt lat="46.459843" lon="10.607912"><time>2022-08-24T06:15:14.000Z</time><ele>3378.2</ele></trkpt><trkpt lat="46.459839" lon="10.607919"><time>2022-08-24T06:15:17.000Z</time><ele>3379</ele></trkpt><trkpt lat="46.459828" lon="10.607935"><time>2022-08-24T06:15:24.000Z</time><ele>3379</ele></trkpt><trkpt lat="46.459819" lon="10.60795"><time>2022-08-24T06:15:30.000Z</time><ele>3379.2</ele></trkpt><trkpt lat="46.459803" lon="10.607977"><time>2022-08-24T06:15:41.000Z</time><ele>3380.4</ele></trkpt><trkpt lat="46.459589" lon="10.608323"><time>2022-08-24T06:15:48.000Z</time><ele>3380.6</ele></trkpt><trkpt lat="46.459485" lon="10.608491"><time>2022-08-24T06:15:49.000Z</time><ele>3380.8</ele></trkpt><trkpt lat="46.459275" lon="10.608833"><time>2022-08-24T06:15:51.000Z</time><ele>3381.2</ele></trkpt><trkpt lat="46.459067" lon="10.609173"><time>2022-08-24T06:15:53.000Z</time><ele>3381.4</ele></trkpt><trkpt lat="46.45886" lon="10.609512"><time>2022-08-24T06:15:55.000Z</time><ele>3381.4</ele></trkpt><trkpt lat="46.458749" lon="10.609694"><time>2022-08-24T06:15:57.000Z</time><ele>3381.6</ele></trkpt><trkpt lat="46.458744" lon="10.609707"><time>2022-08-24T06:15:58.000Z</time><ele>3381.8</ele></trkpt><trkpt lat="46.458739" lon="10.609719"><time>2022-08-24T06:15:59.000Z</time><ele>3381.8</ele></trkpt><trkpt lat="46.458727" lon="10.609752"><time>2022-08-24T06:16:02.000Z</time><ele>3382</ele></trkpt><trkpt lat="46.458722" lon="10.609767"><time>2022-08-24T06:16:04.000Z</time><ele>3382.4</ele></trkpt><trkpt lat="46.458718" lon="10.609777"><time>2022-08-24T06:16:05.000Z</time><ele>3382.6</ele></trkpt><trkpt lat="46.458693" lon="10.609824"><time>2022-08-24T06:16:11.000Z</time><ele>3383</ele></trkpt><trkpt lat="46.458676" lon="10.609853"><time>2022-08-24T06:16:15.000Z</time><ele>3383.4</ele></trkpt><trkpt lat="46.458672" lon="10.609862"><time>2022-08-24T06:16:16.000Z</time><ele>3383.6</ele></trkpt><trkpt lat="46.45867" lon="10.609871"><time>2022-08-24T06:16:17.000Z</time><ele>3383.8</ele></trkpt><trkpt lat="46.458661" lon="10.609887"><time>2022-08-24T06:16:19.000Z</time><ele>3383.8</ele></trkpt><trkpt lat="46.458636" lon="10.609928"><time>2022-08-24T06:16:24.000Z</time><ele>3384.2</ele></trkpt><trkpt lat="46.458632" lon="10.609936"><time>2022-08-24T06:16:26.000Z</time><ele>3384</ele></trkpt><trkpt lat="46.458622" lon="10.609981"><time>2022-08-24T06:16:30.000Z</time><ele>3384.6</ele></trkpt><trkpt lat="46.458613" lon="10.610009"><time>2022-08-24T06:16:33.000Z</time><ele>3384.6</ele></trkpt><trkpt lat="46.458611" lon="10.61002"><time>2022-08-24T06:16:34.000Z</time><ele>3384.6</ele></trkpt><trkpt lat="46.458604" lon="10.610037"><time>2022-08-24T06:16:36.000Z</time><ele>3384.4</ele></trkpt><trkpt lat="46.458592" lon="10.610067"><time>2022-08-24T06:16:40.000Z</time><ele>3384.6</ele></trkpt><trkpt lat="46.458584" lon="10.610092"><time>2022-08-24T06:16:43.000Z</time><ele>3384.8</ele></trkpt><trkpt lat="46.458573" lon="10.610127"><time>2022-08-24T06:16:47.000Z</time><ele>3385.4</ele></trkpt><trkpt lat="46.458565" lon="10.610147"><time>2022-08-24T06:16:49.000Z</time><ele>3385.4</ele></trkpt><trkpt lat="46.458555" lon="10.61016"><time>2022-08-24T06:16:51.000Z</time><ele>3385.4</ele></trkpt><trkpt lat="46.45855" lon="10.610169"><time>2022-08-24T06:16:52.000Z</time><ele>3385.2</ele></trkpt><trkpt lat="46.458546" lon="10.610175"><time>2022-08-24T06:16:53.000Z</time><ele>3385.2</ele></trkpt><trkpt lat="46.45854" lon="10.610183"><time>2022-08-24T06:16:54.000Z</time><ele>3385</ele></trkpt><trkpt lat="46.45853" lon="10.610203"><time>2022-08-24T06:16:57.000Z</time><ele>3385.2</ele></trkpt><trkpt lat="46.458523" lon="10.610216"><time>2022-08-24T06:17:00.000Z</time><ele>3385.8</ele></trkpt><trkpt lat="46.458513" lon="10.610225"><time>2022-08-24T06:17:01.000Z</time><ele>3386</ele></trkpt><trkpt lat="46.458495" lon="10.610244"><time>2022-08-24T06:17:05.000Z</time><ele>3386.6</ele></trkpt><trkpt lat="46.458489" lon="10.610247"><time>2022-08-24T06:17:06.000Z</time><ele>3386.6</ele></trkpt><trkpt lat="46.458485" lon="10.610251"><time>2022-08-24T06:17:07.000Z</time><ele>3386.6</ele></trkpt><trkpt lat="46.458477" lon="10.610257"><time>2022-08-24T06:17:09.000Z</time><ele>3386.6</ele></trkpt><trkpt lat="46.458475" lon="10.610261"><time>2022-08-24T06:17:10.000Z</time><ele>3386.8</ele></trkpt><trkpt lat="46.458469" lon="10.610264"><time>2022-08-24T06:17:11.000Z</time><ele>3386.8</ele></trkpt><trkpt lat="46.458466" lon="10.610267"><time>2022-08-24T06:17:12.000Z</time><ele>3387</ele></trkpt><trkpt lat="46.458461" lon="10.610269"><time>2022-08-24T06:17:13.000Z</time><ele>3386.8</ele></trkpt><trkpt lat="46.458442" lon="10.610276"><time>2022-08-24T06:17:16.000Z</time><ele>3387.4</ele></trkpt><trkpt lat="46.458431" lon="10.610284"><time>2022-08-24T06:17:20.000Z</time><ele>3388</ele></trkpt><trkpt lat="46.458428" lon="10.610287"><time>2022-08-24T06:17:21.000Z</time><ele>3388.2</ele></trkpt><trkpt lat="46.458426" lon="10.610289"><time>2022-08-24T06:17:23.000Z</time><ele>3388.2</ele></trkpt><trkpt lat="46.458402" lon="10.610347"><time>2022-08-24T06:17:32.000Z</time><ele>3389.4</ele></trkpt><trkpt lat="46.458395" lon="10.610356"><time>2022-08-24T06:17:34.000Z</time><ele>3389.8</ele></trkpt><trkpt lat="46.458393" lon="10.61036"><time>2022-08-24T06:17:35.000Z</time><ele>3389.8</ele></trkpt><trkpt lat="46.458381" lon="10.61037"><time>2022-08-24T06:17:39.000Z</time><ele>3390.4</ele></trkpt><trkpt lat="46.458375" lon="10.610387"><time>2022-08-24T06:17:42.000Z</time><ele>3390.4</ele></trkpt><trkpt lat="46.458357" lon="10.610403"><time>2022-08-24T06:17:47.000Z</time><ele>3391.2</ele></trkpt><trkpt lat="46.458349" lon="10.610425"><time>2022-08-24T06:17:51.000Z</time><ele>3391.4</ele></trkpt><trkpt lat="46.458346" lon="10.610427"><time>2022-08-24T06:17:52.000Z</time><ele>3391.6</ele></trkpt><trkpt lat="46.458326" lon="10.610436"><time>2022-08-24T06:17:56.000Z</time><ele>3392</ele></trkpt><trkpt lat="46.458315" lon="10.61045"><time>2022-08-24T06:17:59.000Z</time><ele>3392.2</ele></trkpt><trkpt lat="46.458305" lon="10.610453"><time>2022-08-24T06:18:03.000Z</time><ele>3392.4</ele></trkpt><trkpt lat="46.458299" lon="10.610458"><time>2022-08-24T06:18:05.000Z</time><ele>3392.6</ele></trkpt><trkpt lat="46.458294" lon="10.61046"><time>2022-08-24T06:18:06.000Z</time><ele>3392.6</ele></trkpt><trkpt lat="46.458287" lon="10.610464"><time>2022-08-24T06:18:08.000Z</time><ele>3392.6</ele></trkpt><trkpt lat="46.458278" lon="10.610469"><time>2022-08-24T06:18:10.000Z</time><ele>3393</ele></trkpt><trkpt lat="46.458271" lon="10.610481"><time>2022-08-24T06:18:12.000Z</time><ele>3393.6</ele></trkpt><trkpt lat="46.458263" lon="10.610492"><time>2022-08-24T06:18:16.000Z</time><ele>3394.2</ele></trkpt><trkpt lat="46.458257" lon="10.6105"><time>2022-08-24T06:18:19.000Z</time><ele>3394.6</ele></trkpt><trkpt lat="46.458252" lon="10.610505"><time>2022-08-24T06:18:20.000Z</time><ele>3394.6</ele></trkpt><trkpt lat="46.458242" lon="10.610526"><time>2022-08-24T06:18:24.000Z</time><ele>3394.8</ele></trkpt><trkpt lat="46.458236" lon="10.610529"><time>2022-08-24T06:18:26.000Z</time><ele>3395.2</ele></trkpt><trkpt lat="46.458221" lon="10.610556"><time>2022-08-24T06:18:34.000Z</time><ele>3395.6</ele></trkpt><trkpt lat="46.458216" lon="10.610569"><time>2022-08-24T06:18:37.000Z</time><ele>3396</ele></trkpt><trkpt lat="46.4582" lon="10.610575"><time>2022-08-24T06:18:43.000Z</time><ele>3396.8</ele></trkpt><trkpt lat="46.45819" lon="10.610578"><time>2022-08-24T06:18:44.000Z</time><ele>3397</ele></trkpt><trkpt lat="46.45818" lon="10.610581"><time>2022-08-24T06:18:46.000Z</time><ele>3397.2</ele></trkpt><trkpt lat="46.458164" lon="10.610616"><time>2022-08-24T06:18:54.000Z</time><ele>3397.6</ele></trkpt><trkpt lat="46.458161" lon="10.610619"><time>2022-08-24T06:18:56.000Z</time><ele>3398</ele></trkpt><trkpt lat="46.458145" lon="10.610626"><time>2022-08-24T06:19:02.000Z</time><ele>3398.6</ele></trkpt><trkpt lat="46.458141" lon="10.610634"><time>2022-08-24T06:19:04.000Z</time><ele>3399</ele></trkpt><trkpt lat="46.458121" lon="10.610655"><time>2022-08-24T06:19:13.000Z</time><ele>3400.2</ele></trkpt><trkpt lat="46.458121" lon="10.610668"><time>2022-08-24T06:19:16.000Z</time><ele>3400.4</ele></trkpt><trkpt lat="46.458101" lon="10.610698"><time>2022-08-24T06:19:22.000Z</time><ele>3401.2</ele></trkpt><trkpt lat="46.458076" lon="10.610723"><time>2022-08-24T06:19:29.000Z</time><ele>3401.8</ele></trkpt><trkpt lat="46.458065" lon="10.610749"><time>2022-08-24T06:19:34.000Z</time><ele>3402.2</ele></trkpt><trkpt lat="46.458062" lon="10.610756"><time>2022-08-24T06:19:37.000Z</time><ele>3402.6</ele></trkpt><trkpt lat="46.458031" lon="10.610773"><time>2022-08-24T06:19:46.000Z</time><ele>3403.4</ele></trkpt><trkpt lat="46.458028" lon="10.610775"><time>2022-08-24T06:19:47.000Z</time><ele>3403.2</ele></trkpt><trkpt lat="46.457997" lon="10.610807"><time>2022-08-24T06:19:58.000Z</time><ele>3404.6</ele></trkpt><trkpt lat="46.457994" lon="10.610809"><time>2022-08-24T06:19:59.000Z</time><ele>3405</ele></trkpt><trkpt lat="46.457968" lon="10.610832"><time>2022-08-24T06:20:07.000Z</time><ele>3405.6</ele></trkpt><trkpt lat="46.457957" lon="10.610839"><time>2022-08-24T06:20:10.000Z</time><ele>3406.2</ele></trkpt><trkpt lat="46.457948" lon="10.610862"><time>2022-08-24T06:20:17.000Z</time><ele>3406.8</ele></trkpt><trkpt lat="46.457931" lon="10.610892"><time>2022-08-24T06:20:25.000Z</time><ele>3407.6</ele></trkpt><trkpt lat="46.45793" lon="10.610894"><time>2022-08-24T06:20:26.000Z</time><ele>3407.8</ele></trkpt><trkpt lat="46.457907" lon="10.610918"><time>2022-08-24T06:20:37.000Z</time><ele>3408.8</ele></trkpt><trkpt lat="46.457907" lon="10.610921"><time>2022-08-24T06:20:38.000Z</time><ele>3408.8</ele></trkpt><trkpt lat="46.457898" lon="10.610936"><time>2022-08-24T06:20:42.000Z</time><ele>3409.2</ele></trkpt><trkpt lat="46.457872" lon="10.610947"><time>2022-08-24T06:20:47.000Z</time><ele>3410</ele></trkpt><trkpt lat="46.457873" lon="10.610967"><time>2022-08-24T06:20:51.000Z</time><ele>3410.2</ele></trkpt><trkpt lat="46.457866" lon="10.610981"><time>2022-08-24T06:20:55.000Z</time><ele>3411</ele></trkpt><trkpt lat="46.457851" lon="10.611001"><time>2022-08-24T06:21:02.000Z</time><ele>3411.6</ele></trkpt><trkpt lat="46.457838" lon="10.611017"><time>2022-08-24T06:21:07.000Z</time><ele>3412</ele></trkpt><trkpt lat="46.45782" lon="10.611032"><time>2022-08-24T06:21:13.000Z</time><ele>3412.6</ele></trkpt><trkpt lat="46.457814" lon="10.611035"><time>2022-08-24T06:21:16.000Z</time><ele>3413</ele></trkpt><trkpt lat="46.457814" lon="10.611035"><time>2022-08-24T06:21:26.000Z</time><ele>3414</ele></trkpt><trkpt lat="46.457814" lon="10.611035"><time>2022-08-24T06:21:28.000Z</time><ele>3414</ele></trkpt><trkpt lat="46.457812" lon="10.611044"><time>2022-08-24T06:21:36.000Z</time><ele>3415.2</ele></trkpt><trkpt lat="46.457802" lon="10.611065"><time>2022-08-24T06:21:44.000Z</time><ele>3416.2</ele></trkpt><trkpt lat="46.457787" lon="10.61109"><time>2022-08-24T06:21:54.000Z</time><ele>3417.6</ele></trkpt><trkpt lat="46.457778" lon="10.611123"><time>2022-08-24T06:22:04.000Z</time><ele>3418.6</ele></trkpt><trkpt lat="46.457771" lon="10.611144"><time>2022-08-24T06:22:10.000Z</time><ele>3419.6</ele></trkpt><trkpt lat="46.457742" lon="10.611175"><time>2022-08-24T06:22:20.000Z</time><ele>3420.8</ele></trkpt><trkpt lat="46.457719" lon="10.61121"><time>2022-08-24T06:22:31.000Z</time><ele>3421.8</ele></trkpt><trkpt lat="46.457693" lon="10.61125"><time>2022-08-24T06:22:42.000Z</time><ele>3422.8</ele></trkpt><trkpt lat="46.457681" lon="10.611269"><time>2022-08-24T06:22:48.000Z</time><ele>3424.2</ele></trkpt><trkpt lat="46.457651" lon="10.61132"><time>2022-08-24T06:23:23.000Z</time><ele>3424.4</ele></trkpt><trkpt lat="46.457651" lon="10.611321"><time>2022-08-24T06:23:26.000Z</time><ele>3424.4</ele></trkpt><trkpt lat="46.457651" lon="10.611322"><time>2022-08-24T06:23:30.000Z</time><ele>3424.4</ele></trkpt><trkpt lat="46.457651" lon="10.611322"><time>2022-08-24T06:23:33.000Z</time><ele>3424.2</ele></trkpt><trkpt lat="46.457649" lon="10.611321"><time>2022-08-24T06:23:37.000Z</time><ele>3424.6</ele></trkpt><trkpt lat="46.45763" lon="10.611316"><time>2022-08-24T06:23:58.000Z</time><ele>3425.2</ele></trkpt><trkpt lat="46.457625" lon="10.611314"><time>2022-08-24T06:24:01.000Z</time><ele>3425.6</ele></trkpt><trkpt lat="46.457619" lon="10.611314"><time>2022-08-24T06:24:04.000Z</time><ele>3425.8</ele></trkpt><trkpt lat="46.457601" lon="10.611301"><time>2022-08-24T06:24:13.000Z</time><ele>3426.2</ele></trkpt><trkpt lat="46.457589" lon="10.611283"><time>2022-08-24T06:24:18.000Z</time><ele>3427</ele></trkpt><trkpt lat="46.457585" lon="10.611275"><time>2022-08-24T06:24:20.000Z</time><ele>3427.2</ele></trkpt><trkpt lat="46.45758" lon="10.611265"><time>2022-08-24T06:24:23.000Z</time><ele>3427.2</ele></trkpt><trkpt lat="46.457566" lon="10.611238"><time>2022-08-24T06:24:35.000Z</time><ele>3428</ele></trkpt><trkpt lat="46.457565" lon="10.611236"><time>2022-08-24T06:24:44.000Z</time><ele>3428.4</ele></trkpt><trkpt lat="46.457562" lon="10.61123"><time>2022-08-24T06:25:04.000Z</time><ele>3428.4</ele></trkpt><trkpt lat="46.457447" lon="10.611003"><time>2022-08-24T06:25:15.000Z</time><ele>3428.8</ele></trkpt><trkpt lat="46.45738" lon="10.610868"><time>2022-08-24T06:25:18.000Z</time><ele>3429.2</ele></trkpt><trkpt lat="46.457336" lon="10.61077"><time>2022-08-24T06:25:21.000Z</time><ele>3428.6</ele></trkpt><trkpt lat="46.457332" lon="10.610749"><time>2022-08-24T06:25:25.000Z</time><ele>3428.2</ele></trkpt><trkpt lat="46.457304" lon="10.610704"><time>2022-08-24T06:25:33.000Z</time><ele>3428.2</ele></trkpt><trkpt lat="46.45726" lon="10.61069"><time>2022-08-24T06:25:44.000Z</time><ele>3428.2</ele></trkpt><trkpt lat="46.457248" lon="10.610688"><time>2022-08-24T06:25:48.000Z</time><ele>3428.2</ele></trkpt><trkpt lat="46.45723" lon="10.610685"><time>2022-08-24T06:25:55.000Z</time><ele>3428.2</ele></trkpt><trkpt lat="46.457185" lon="10.610667"><time>2022-08-24T06:26:06.000Z</time><ele>3428.2</ele></trkpt><trkpt lat="46.457172" lon="10.610664"><time>2022-08-24T06:26:09.000Z</time><ele>3428.2</ele></trkpt><trkpt lat="46.457153" lon="10.610659"><time>2022-08-24T06:26:14.000Z</time><ele>3428.2</ele></trkpt><trkpt lat="46.457128" lon="10.610652"><time>2022-08-24T06:26:19.000Z</time><ele>3428.2</ele></trkpt><trkpt lat="46.457115" lon="10.610643"><time>2022-08-24T06:26:25.000Z</time><ele>3428.2</ele></trkpt><trkpt lat="46.457111" lon="10.610643"><time>2022-08-24T06:26:26.000Z</time><ele>3435.8</ele></trkpt><trkpt lat="46.457073" lon="10.610637"><time>2022-08-24T06:26:35.000Z</time><ele>3436.6</ele></trkpt><trkpt lat="46.457066" lon="10.610638"><time>2022-08-24T06:26:37.000Z</time><ele>3436.8</ele></trkpt><trkpt lat="46.457021" lon="10.6106"><time>2022-08-24T06:26:49.000Z</time><ele>3437.6</ele></trkpt><trkpt lat="46.457006" lon="10.610544"><time>2022-08-24T06:26:58.000Z</time><ele>3437.2</ele></trkpt><trkpt lat="46.456998" lon="10.610524"><time>2022-08-24T06:27:00.000Z</time><ele>3437</ele></trkpt><trkpt lat="46.456998" lon="10.610515"><time>2022-08-24T06:27:01.000Z</time><ele>3436.8</ele></trkpt><trkpt lat="46.456998" lon="10.610475"><time>2022-08-24T06:27:05.000Z</time><ele>3436.4</ele></trkpt><trkpt lat="46.456985" lon="10.610426"><time>2022-08-24T06:27:13.000Z</time><ele>3436.2</ele></trkpt><trkpt lat="46.456954" lon="10.610397"><time>2022-08-24T06:27:20.000Z</time><ele>3436.4</ele></trkpt><trkpt lat="46.456936" lon="10.610399"><time>2022-08-24T06:27:23.000Z</time><ele>3436.6</ele></trkpt><trkpt lat="46.456929" lon="10.610401"><time>2022-08-24T06:27:24.000Z</time><ele>3436.8</ele></trkpt><trkpt lat="46.45691" lon="10.61041"><time>2022-08-24T06:27:28.000Z</time><ele>3437.2</ele></trkpt><trkpt lat="46.456902" lon="10.61042"><time>2022-08-24T06:27:31.000Z</time><ele>3437.8</ele></trkpt><trkpt lat="46.456899" lon="10.610422"><time>2022-08-24T06:27:32.000Z</time><ele>3438</ele></trkpt><trkpt lat="46.456863" lon="10.610421"><time>2022-08-24T06:27:40.000Z</time><ele>3439</ele></trkpt><trkpt lat="46.456854" lon="10.610429"><time>2022-08-24T06:27:42.000Z</time><ele>3439.2</ele></trkpt><trkpt lat="46.456838" lon="10.610441"><time>2022-08-24T06:27:47.000Z</time><ele>3440</ele></trkpt><trkpt lat="46.456831" lon="10.610447"><time>2022-08-24T06:27:50.000Z</time><ele>3440.4</ele></trkpt><trkpt lat="46.456803" lon="10.610477"><time>2022-08-24T06:27:59.000Z</time><ele>3441</ele></trkpt><trkpt lat="46.456796" lon="10.610483"><time>2022-08-24T06:28:01.000Z</time><ele>3441.2</ele></trkpt><trkpt lat="46.456776" lon="10.610506"><time>2022-08-24T06:28:08.000Z</time><ele>3442</ele></trkpt><trkpt lat="46.45677" lon="10.610514"><time>2022-08-24T06:28:10.000Z</time><ele>3442.2</ele></trkpt><trkpt lat="46.456758" lon="10.610521"><time>2022-08-24T06:28:13.000Z</time><ele>3442.8</ele></trkpt><trkpt lat="46.45674" lon="10.610533"><time>2022-08-24T06:28:17.000Z</time><ele>3443.4</ele></trkpt><trkpt lat="46.456733" lon="10.610552"><time>2022-08-24T06:28:21.000Z</time><ele>3444</ele></trkpt><trkpt lat="46.456729" lon="10.610562"><time>2022-08-24T06:28:23.000Z</time><ele>3444.4</ele></trkpt><trkpt lat="46.456714" lon="10.610577"><time>2022-08-24T06:28:28.000Z</time><ele>3444.8</ele></trkpt><trkpt lat="46.456694" lon="10.610584"><time>2022-08-24T06:28:32.000Z</time><ele>3445.4</ele></trkpt><trkpt lat="46.456682" lon="10.610592"><time>2022-08-24T06:28:35.000Z</time><ele>3446.2</ele></trkpt><trkpt lat="46.456679" lon="10.610593"><time>2022-08-24T06:28:36.000Z</time><ele>3446.4</ele></trkpt><trkpt lat="46.456648" lon="10.610606"><time>2022-08-24T06:28:44.000Z</time><ele>3447</ele></trkpt><trkpt lat="46.456633" lon="10.610616"><time>2022-08-24T06:28:48.000Z</time><ele>3447.6</ele></trkpt><trkpt lat="46.456622" lon="10.610638"><time>2022-08-24T06:28:53.000Z</time><ele>3448</ele></trkpt><trkpt lat="46.456628" lon="10.610645"><time>2022-08-24T06:29:06.000Z</time><ele>3448.4</ele></trkpt><trkpt lat="46.456627" lon="10.61064"><time>2022-08-24T06:29:14.000Z</time><ele>3448.6</ele></trkpt><trkpt lat="46.456625" lon="10.610644"><time>2022-08-24T06:29:20.000Z</time><ele>3449.8</ele></trkpt><trkpt lat="46.456588" lon="10.610661"><time>2022-08-24T06:29:31.000Z</time><ele>3451</ele></trkpt><trkpt lat="46.45654" lon="10.610708"><time>2022-08-24T06:29:42.000Z</time><ele>3452</ele></trkpt><trkpt lat="46.456503" lon="10.610776"><time>2022-08-24T06:29:52.000Z</time><ele>3453</ele></trkpt><trkpt lat="46.456467" lon="10.610832"><time>2022-08-24T06:30:04.000Z</time><ele>3454.4</ele></trkpt><trkpt lat="46.456418" lon="10.610878"><time>2022-08-24T06:30:19.000Z</time><ele>3455.4</ele></trkpt><trkpt lat="46.45638" lon="10.610933"><time>2022-08-24T06:30:28.000Z</time><ele>3456.6</ele></trkpt><trkpt lat="46.456336" lon="10.61103"><time>2022-08-24T06:30:42.000Z</time><ele>3457.6</ele></trkpt><trkpt lat="46.456266" lon="10.611101"><time>2022-08-24T06:30:48.000Z</time><ele>3457.4</ele></trkpt><trkpt lat="46.456178" lon="10.611205"><time>2022-08-24T06:30:56.000Z</time><ele>3457.8</ele></trkpt><trkpt lat="46.456168" lon="10.611215"><time>2022-08-24T06:30:58.000Z</time><ele>3457.8</ele></trkpt><trkpt lat="46.456128" lon="10.611266"><time>2022-08-24T06:31:06.000Z</time><ele>3458.4</ele></trkpt><trkpt lat="46.456107" lon="10.611289"><time>2022-08-24T06:31:10.000Z</time><ele>3459</ele></trkpt><trkpt lat="46.456098" lon="10.611296"><time>2022-08-24T06:31:12.000Z</time><ele>3459.2</ele></trkpt><trkpt lat="46.456075" lon="10.611325"><time>2022-08-24T06:31:16.000Z</time><ele>3459.6</ele></trkpt><trkpt lat="46.456077" lon="10.61138"><time>2022-08-24T06:31:23.000Z</time><ele>3459.6</ele></trkpt><trkpt lat="46.456078" lon="10.611389"><time>2022-08-24T06:31:24.000Z</time><ele>3459.8</ele></trkpt><trkpt lat="46.456079" lon="10.611397"><time>2022-08-24T06:31:25.000Z</time><ele>3459.8</ele></trkpt><trkpt lat="46.456078" lon="10.611406"><time>2022-08-24T06:31:26.000Z</time><ele>3460</ele></trkpt><trkpt lat="46.456077" lon="10.611433"><time>2022-08-24T06:31:29.000Z</time><ele>3460.2</ele></trkpt><trkpt lat="46.456074" lon="10.611462"><time>2022-08-24T06:31:32.000Z</time><ele>3460.6</ele></trkpt><trkpt lat="46.456073" lon="10.611498"><time>2022-08-24T06:31:36.000Z</time><ele>3461</ele></trkpt><trkpt lat="46.456073" lon="10.611508"><time>2022-08-24T06:31:37.000Z</time><ele>3461</ele></trkpt><trkpt lat="46.456075" lon="10.611522"><time>2022-08-24T06:31:39.000Z</time><ele>3461.4</ele></trkpt><trkpt lat="46.456069" lon="10.61154"><time>2022-08-24T06:31:41.000Z</time><ele>3461.6</ele></trkpt><trkpt lat="46.456066" lon="10.611557"><time>2022-08-24T06:31:43.000Z</time><ele>3461.8</ele></trkpt><trkpt lat="46.456063" lon="10.611565"><time>2022-08-24T06:31:44.000Z</time><ele>3461.8</ele></trkpt><trkpt lat="46.456057" lon="10.611581"><time>2022-08-24T06:31:46.000Z</time><ele>3461.6</ele></trkpt><trkpt lat="46.456054" lon="10.611596"><time>2022-08-24T06:31:48.000Z</time><ele>3461.6</ele></trkpt><trkpt lat="46.456053" lon="10.61161"><time>2022-08-24T06:31:52.000Z</time><ele>3461.8</ele></trkpt><trkpt lat="46.456052" lon="10.611618"><time>2022-08-24T06:32:03.000Z</time><ele>3462</ele></trkpt><trkpt lat="46.456055" lon="10.61161"><time>2022-08-24T06:32:15.000Z</time><ele>3461.4</ele></trkpt><trkpt lat="46.456064" lon="10.611609"><time>2022-08-24T06:32:17.000Z</time><ele>3461.6</ele></trkpt><trkpt lat="46.456069" lon="10.611605"><time>2022-08-24T06:32:24.000Z</time><ele>3461.8</ele></trkpt><trkpt lat="46.456069" lon="10.6116"><time>2022-08-24T06:32:38.000Z</time><ele>3462.2</ele></trkpt><trkpt lat="46.456069" lon="10.6116"><time>2022-08-24T06:32:42.000Z</time><ele>3462.2</ele></trkpt><trkpt lat="46.45607" lon="10.611585"><time>2022-08-24T06:33:14.000Z</time><ele>3461.8</ele></trkpt><trkpt lat="46.456071" lon="10.611586"><time>2022-08-24T06:33:18.000Z</time><ele>3461.6</ele></trkpt><trkpt lat="46.456071" lon="10.611587"><time>2022-08-24T06:33:22.000Z</time><ele>3461.6</ele></trkpt><trkpt lat="46.456071" lon="10.61159"><time>2022-08-24T06:33:26.000Z</time><ele>3461.6</ele></trkpt><trkpt lat="46.456066" lon="10.611599"><time>2022-08-24T06:34:03.000Z</time><ele>3461</ele></trkpt><trkpt lat="46.456067" lon="10.611599"><time>2022-08-24T06:34:11.000Z</time><ele>3461</ele></trkpt><trkpt lat="46.456068" lon="10.611597"><time>2022-08-24T06:34:25.000Z</time><ele>3461</ele></trkpt><trkpt lat="46.456068" lon="10.611599"><time>2022-08-24T06:34:34.000Z</time><ele>3461</ele></trkpt><trkpt lat="46.456055" lon="10.611603"><time>2022-08-24T06:34:49.000Z</time><ele>3461</ele></trkpt><trkpt lat="46.456007" lon="10.611616"><time>2022-08-24T06:34:52.000Z</time><ele>3461</ele></trkpt><trkpt lat="46.455974" lon="10.611624"><time>2022-08-24T06:34:54.000Z</time><ele>3461</ele></trkpt><trkpt lat="46.455958" lon="10.611627"><time>2022-08-24T06:34:55.000Z</time><ele>3461</ele></trkpt><trkpt lat="46.455926" lon="10.611631"><time>2022-08-24T06:34:57.000Z</time><ele>3461</ele></trkpt><trkpt lat="46.455824" lon="10.611649"><time>2022-08-24T06:35:07.000Z</time><ele>3461</ele></trkpt><trkpt lat="46.455758" lon="10.611675"><time>2022-08-24T06:35:15.000Z</time><ele>3460.2</ele></trkpt><trkpt lat="46.455732" lon="10.611668"><time>2022-08-24T06:35:19.000Z</time><ele>3460.2</ele></trkpt><trkpt lat="46.455676" lon="10.611675"><time>2022-08-24T06:35:25.000Z</time><ele>3460.8</ele></trkpt><trkpt lat="46.455666" lon="10.611675"><time>2022-08-24T06:35:26.000Z</time><ele>3461</ele></trkpt><trkpt lat="46.455655" lon="10.611675"><time>2022-08-24T06:35:27.000Z</time><ele>3461</ele></trkpt><trkpt lat="46.455618" lon="10.61168"><time>2022-08-24T06:35:32.000Z</time><ele>3460.8</ele></trkpt><trkpt lat="46.455613" lon="10.611685"><time>2022-08-24T06:35:33.000Z</time><ele>3461</ele></trkpt><trkpt lat="46.455571" lon="10.611696"><time>2022-08-24T06:35:39.000Z</time><ele>3461.2</ele></trkpt><trkpt lat="46.455556" lon="10.611696"><time>2022-08-24T06:35:41.000Z</time><ele>3461</ele></trkpt><trkpt lat="46.455548" lon="10.611699"><time>2022-08-24T06:35:42.000Z</time><ele>3461.2</ele></trkpt><trkpt lat="46.455541" lon="10.611703"><time>2022-08-24T06:35:43.000Z</time><ele>3461.2</ele></trkpt><trkpt lat="46.455533" lon="10.611703"><time>2022-08-24T06:35:44.000Z</time><ele>3461.4</ele></trkpt><trkpt lat="46.455507" lon="10.6117"><time>2022-08-24T06:35:48.000Z</time><ele>3461.4</ele></trkpt><trkpt lat="46.455494" lon="10.611694"><time>2022-08-24T06:35:50.000Z</time><ele>3461.4</ele></trkpt><trkpt lat="46.455472" lon="10.611708"><time>2022-08-24T06:35:53.000Z</time><ele>3461.8</ele></trkpt><trkpt lat="46.45546" lon="10.611723"><time>2022-08-24T06:35:55.000Z</time><ele>3462</ele></trkpt><trkpt lat="46.455453" lon="10.611729"><time>2022-08-24T06:35:57.000Z</time><ele>3462.2</ele></trkpt><trkpt lat="46.455439" lon="10.611731"><time>2022-08-24T06:36:00.000Z</time><ele>3462.6</ele></trkpt><trkpt lat="46.455415" lon="10.611735"><time>2022-08-24T06:36:03.000Z</time><ele>3462.8</ele></trkpt><trkpt lat="46.455402" lon="10.611737"><time>2022-08-24T06:36:05.000Z</time><ele>3462.8</ele></trkpt><trkpt lat="46.455384" lon="10.611737"><time>2022-08-24T06:36:08.000Z</time><ele>3462.6</ele></trkpt><trkpt lat="46.455371" lon="10.611739"><time>2022-08-24T06:36:10.000Z</time><ele>3462.6</ele></trkpt><trkpt lat="46.455351" lon="10.61174"><time>2022-08-24T06:36:13.000Z</time><ele>3463</ele></trkpt><trkpt lat="46.455343" lon="10.611738"><time>2022-08-24T06:36:14.000Z</time><ele>3463</ele></trkpt><trkpt lat="46.455343" lon="10.611738"><time>2022-08-24T06:36:15.000Z</time><ele>3463</ele></trkpt><trkpt lat="46.45533" lon="10.611744"><time>2022-08-24T06:36:16.000Z</time><ele>3463.2</ele></trkpt><trkpt lat="46.455326" lon="10.611747"><time>2022-08-24T06:36:17.000Z</time><ele>3463.2</ele></trkpt><trkpt lat="46.455326" lon="10.611747"><time>2022-08-24T06:36:18.000Z</time><ele>3463.4</ele></trkpt><trkpt lat="46.455281" lon="10.611765"><time>2022-08-24T06:36:23.000Z</time><ele>3463.6</ele></trkpt><trkpt lat="46.455274" lon="10.611767"><time>2022-08-24T06:36:24.000Z</time><ele>3463.8</ele></trkpt><trkpt lat="46.455262" lon="10.611775"><time>2022-08-24T06:36:26.000Z</time><ele>3464.2</ele></trkpt><trkpt lat="46.455255" lon="10.611777"><time>2022-08-24T06:36:27.000Z</time><ele>3464.4</ele></trkpt><trkpt lat="46.455246" lon="10.611784"><time>2022-08-24T06:36:30.000Z</time><ele>3464.6</ele></trkpt><trkpt lat="46.455211" lon="10.611791"><time>2022-08-24T06:36:36.000Z</time><ele>3465</ele></trkpt><trkpt lat="46.45519" lon="10.61178"><time>2022-08-24T06:36:39.000Z</time><ele>3465.4</ele></trkpt><trkpt lat="46.455167" lon="10.611809"><time>2022-08-24T06:36:44.000Z</time><ele>3465.8</ele></trkpt><trkpt lat="46.45516" lon="10.611812"><time>2022-08-24T06:36:46.000Z</time><ele>3466</ele></trkpt><trkpt lat="46.455145" lon="10.61183"><time>2022-08-24T06:36:50.000Z</time><ele>3466.2</ele></trkpt><trkpt lat="46.455134" lon="10.611845"><time>2022-08-24T06:36:52.000Z</time><ele>3466.4</ele></trkpt><trkpt lat="46.455118" lon="10.611851"><time>2022-08-24T06:36:54.000Z</time><ele>3466.6</ele></trkpt><trkpt lat="46.45511" lon="10.611852"><time>2022-08-24T06:36:55.000Z</time><ele>3467</ele></trkpt><trkpt lat="46.455081" lon="10.61188"><time>2022-08-24T06:37:00.000Z</time><ele>3467.4</ele></trkpt><trkpt lat="46.455062" lon="10.611896"><time>2022-08-24T06:37:04.000Z</time><ele>3467.8</ele></trkpt><trkpt lat="46.455046" lon="10.61193"><time>2022-08-24T06:37:10.000Z</time><ele>3468.4</ele></trkpt><trkpt lat="46.455032" lon="10.611947"><time>2022-08-24T06:37:13.000Z</time><ele>3468.4</ele></trkpt><trkpt lat="46.455027" lon="10.61195"><time>2022-08-24T06:37:14.000Z</time><ele>3468.6</ele></trkpt><trkpt lat="46.455013" lon="10.611957"><time>2022-08-24T06:37:17.000Z</time><ele>3468.6</ele></trkpt><trkpt lat="46.45501" lon="10.611956"><time>2022-08-24T06:37:18.000Z</time><ele>3468.6</ele></trkpt><trkpt lat="46.454992" lon="10.611978"><time>2022-08-24T06:37:23.000Z</time><ele>3469.6</ele></trkpt><trkpt lat="46.454969" lon="10.611995"><time>2022-08-24T06:37:28.000Z</time><ele>3470</ele></trkpt><trkpt lat="46.454934" lon="10.612019"><time>2022-08-24T06:37:35.000Z</time><ele>3470.6</ele></trkpt><trkpt lat="46.45493" lon="10.612022"><time>2022-08-24T06:37:36.000Z</time><ele>3470.8</ele></trkpt><trkpt lat="46.454884" lon="10.612022"><time>2022-08-24T06:37:43.000Z</time><ele>3471.6</ele></trkpt><trkpt lat="46.454858" lon="10.612018"><time>2022-08-24T06:37:47.000Z</time><ele>3472</ele></trkpt><trkpt lat="46.454805" lon="10.612029"><time>2022-08-24T06:37:57.000Z</time><ele>3472.6</ele></trkpt><trkpt lat="46.4548" lon="10.612031"><time>2022-08-24T06:37:58.000Z</time><ele>3472.6</ele></trkpt><trkpt lat="46.454757" lon="10.612048"><time>2022-08-24T06:38:07.000Z</time><ele>3473.2</ele></trkpt><trkpt lat="46.454744" lon="10.612064"><time>2022-08-24T06:38:10.000Z</time><ele>3473.8</ele></trkpt><trkpt lat="46.454699" lon="10.612079"><time>2022-08-24T06:38:17.000Z</time><ele>3474.2</ele></trkpt><trkpt lat="46.454668" lon="10.612096"><time>2022-08-24T06:38:22.000Z</time><ele>3474.6</ele></trkpt><trkpt lat="46.454652" lon="10.612107"><time>2022-08-24T06:38:25.000Z</time><ele>3475</ele></trkpt><trkpt lat="46.454641" lon="10.612119"><time>2022-08-24T06:38:27.000Z</time><ele>3475.4</ele></trkpt><trkpt lat="46.454588" lon="10.612154"><time>2022-08-24T06:38:35.000Z</time><ele>3475.6</ele></trkpt><trkpt lat="46.454565" lon="10.612176"><time>2022-08-24T06:38:41.000Z</time><ele>3476</ele></trkpt><trkpt lat="46.454525" lon="10.612204"><time>2022-08-24T06:38:48.000Z</time><ele>3477</ele></trkpt><trkpt lat="46.454517" lon="10.61221"><time>2022-08-24T06:38:50.000Z</time><ele>3477.2</ele></trkpt><trkpt lat="46.454497" lon="10.61224"><time>2022-08-24T06:38:55.000Z</time><ele>3477.4</ele></trkpt><trkpt lat="46.454452" lon="10.612292"><time>2022-08-24T06:39:04.000Z</time><ele>3478.4</ele></trkpt><trkpt lat="46.454452" lon="10.612292"><time>2022-08-24T06:39:05.000Z</time><ele>3478.4</ele></trkpt><trkpt lat="46.454396" lon="10.612316"><time>2022-08-24T06:39:12.000Z</time><ele>3479.4</ele></trkpt><trkpt lat="46.454389" lon="10.612319"><time>2022-08-24T06:39:13.000Z</time><ele>3479.6</ele></trkpt><trkpt lat="46.454342" lon="10.612314"><time>2022-08-24T06:39:20.000Z</time><ele>3480</ele></trkpt><trkpt lat="46.454313" lon="10.61231"><time>2022-08-24T06:39:24.000Z</time><ele>3480.4</ele></trkpt><trkpt lat="46.454276" lon="10.612308"><time>2022-08-24T06:39:30.000Z</time><ele>3480.6</ele></trkpt><trkpt lat="46.454234" lon="10.612331"><time>2022-08-24T06:39:37.000Z</time><ele>3481.4</ele></trkpt><trkpt lat="46.454211" lon="10.612346"><time>2022-08-24T06:39:41.000Z</time><ele>3481.6</ele></trkpt><trkpt lat="46.454174" lon="10.612359"><time>2022-08-24T06:39:47.000Z</time><ele>3482.6</ele></trkpt><trkpt lat="46.454148" lon="10.612377"><time>2022-08-24T06:39:51.000Z</time><ele>3483</ele></trkpt><trkpt lat="46.454115" lon="10.612413"><time>2022-08-24T06:39:56.000Z</time><ele>3483.6</ele></trkpt><trkpt lat="46.454107" lon="10.612421"><time>2022-08-24T06:39:57.000Z</time><ele>3483.6</ele></trkpt><trkpt lat="46.454071" lon="10.612474"><time>2022-08-24T06:40:05.000Z</time><ele>3484.2</ele></trkpt><trkpt lat="46.454054" lon="10.61249"><time>2022-08-24T06:40:08.000Z</time><ele>3484.6</ele></trkpt><trkpt lat="46.454019" lon="10.612499"><time>2022-08-24T06:40:14.000Z</time><ele>3485.8</ele></trkpt><trkpt lat="46.454016" lon="10.612502"><time>2022-08-24T06:40:15.000Z</time><ele>3485.8</ele></trkpt><trkpt lat="46.453971" lon="10.612534"><time>2022-08-24T06:40:23.000Z</time><ele>3486</ele></trkpt><trkpt lat="46.453952" lon="10.612547"><time>2022-08-24T06:40:26.000Z</time><ele>3486.4</ele></trkpt><trkpt lat="46.453935" lon="10.612564"><time>2022-08-24T06:40:29.000Z</time><ele>3487</ele></trkpt><trkpt lat="46.453932" lon="10.612569"><time>2022-08-24T06:40:31.000Z</time><ele>3487.2</ele></trkpt><trkpt lat="46.453917" lon="10.612583"><time>2022-08-24T06:40:34.000Z</time><ele>3487.2</ele></trkpt><trkpt lat="46.453894" lon="10.612605"><time>2022-08-24T06:40:38.000Z</time><ele>3487.2</ele></trkpt><trkpt lat="46.453873" lon="10.61264"><time>2022-08-24T06:40:43.000Z</time><ele>3488</ele></trkpt><trkpt lat="46.453837" lon="10.612656"><time>2022-08-24T06:40:49.000Z</time><ele>3488.4</ele></trkpt><trkpt lat="46.453784" lon="10.612687"><time>2022-08-24T06:40:57.000Z</time><ele>3488.8</ele></trkpt><trkpt lat="46.453761" lon="10.612706"><time>2022-08-24T06:41:01.000Z</time><ele>3489.2</ele></trkpt><trkpt lat="46.453729" lon="10.612744"><time>2022-08-24T06:41:08.000Z</time><ele>3490</ele></trkpt><trkpt lat="46.453704" lon="10.612769"><time>2022-08-24T06:41:13.000Z</time><ele>3490.4</ele></trkpt><trkpt lat="46.453674" lon="10.612794"><time>2022-08-24T06:41:19.000Z</time><ele>3490.4</ele></trkpt><trkpt lat="46.453628" lon="10.612849"><time>2022-08-24T06:41:27.000Z</time><ele>3491.2</ele></trkpt><trkpt lat="46.453611" lon="10.612866"><time>2022-08-24T06:41:30.000Z</time><ele>3491.4</ele></trkpt><trkpt lat="46.45357" lon="10.612905"><time>2022-08-24T06:41:37.000Z</time><ele>3492.2</ele></trkpt><trkpt lat="46.453557" lon="10.612911"><time>2022-08-24T06:41:39.000Z</time><ele>3492.6</ele></trkpt><trkpt lat="46.453504" lon="10.612952"><time>2022-08-24T06:41:47.000Z</time><ele>3492.8</ele></trkpt><trkpt lat="46.453441" lon="10.613009"><time>2022-08-24T06:41:56.000Z</time><ele>3493.4</ele></trkpt><trkpt lat="46.453428" lon="10.613021"><time>2022-08-24T06:41:58.000Z</time><ele>3493.6</ele></trkpt><trkpt lat="46.453395" lon="10.61304"><time>2022-08-24T06:42:03.000Z</time><ele>3493.8</ele></trkpt><trkpt lat="46.45336" lon="10.613045"><time>2022-08-24T06:42:10.000Z</time><ele>3494.2</ele></trkpt><trkpt lat="46.453359" lon="10.613046"><time>2022-08-24T06:42:12.000Z</time><ele>3494.2</ele></trkpt><trkpt lat="46.453358" lon="10.613048"><time>2022-08-24T06:42:21.000Z</time><ele>3494</ele></trkpt><trkpt lat="46.453358" lon="10.613048"><time>2022-08-24T06:42:23.000Z</time><ele>3494</ele></trkpt><trkpt lat="46.453358" lon="10.613048"><time>2022-08-24T06:42:30.000Z</time><ele>3494</ele></trkpt><trkpt lat="46.453358" lon="10.613048"><time>2022-08-24T06:42:33.000Z</time><ele>3494</ele></trkpt><trkpt lat="46.453359" lon="10.613049"><time>2022-08-24T06:42:46.000Z</time><ele>3494</ele></trkpt><trkpt lat="46.45336" lon="10.613049"><time>2022-08-24T06:42:49.000Z</time><ele>3493.8</ele></trkpt><trkpt lat="46.45336" lon="10.613049"><time>2022-08-24T06:42:50.000Z</time><ele>3493.8</ele></trkpt><trkpt lat="46.45336" lon="10.613046"><time>2022-08-24T06:42:52.000Z</time><ele>3493.8</ele></trkpt><trkpt lat="46.45336" lon="10.613042"><time>2022-08-24T06:42:54.000Z</time><ele>3493.8</ele></trkpt><trkpt lat="46.45336" lon="10.613033"><time>2022-08-24T06:42:57.000Z</time><ele>3493.8</ele></trkpt><trkpt lat="46.453361" lon="10.613032"><time>2022-08-24T06:42:59.000Z</time><ele>3493.8</ele></trkpt><trkpt lat="46.453361" lon="10.613032"><time>2022-08-24T06:43:01.000Z</time><ele>3493.8</ele></trkpt><trkpt lat="46.453361" lon="10.613032"><time>2022-08-24T06:43:03.000Z</time><ele>3493.8</ele></trkpt><trkpt lat="46.45333" lon="10.613055"><time>2022-08-24T06:43:09.000Z</time><ele>3493.8</ele></trkpt><trkpt lat="46.453307" lon="10.613072"><time>2022-08-24T06:43:11.000Z</time><ele>3493.8</ele></trkpt><trkpt lat="46.453296" lon="10.613081"><time>2022-08-24T06:43:12.000Z</time><ele>3493.8</ele></trkpt><trkpt lat="46.453284" lon="10.613091"><time>2022-08-24T06:43:13.000Z</time><ele>3493.8</ele></trkpt><trkpt lat="46.453222" lon="10.613135"><time>2022-08-24T06:43:19.000Z</time><ele>3494.6</ele></trkpt><trkpt lat="46.453216" lon="10.613139"><time>2022-08-24T06:43:20.000Z</time><ele>3494.8</ele></trkpt><trkpt lat="46.453193" lon="10.61316"><time>2022-08-24T06:43:23.000Z</time><ele>3495</ele></trkpt><trkpt lat="46.453175" lon="10.613179"><time>2022-08-24T06:43:26.000Z</time><ele>3494.8</ele></trkpt><trkpt lat="46.45316" lon="10.613197"><time>2022-08-24T06:43:28.000Z</time><ele>3495</ele></trkpt><trkpt lat="46.453146" lon="10.613211"><time>2022-08-24T06:43:30.000Z</time><ele>3495</ele></trkpt><trkpt lat="46.453141" lon="10.613218"><time>2022-08-24T06:43:31.000Z</time><ele>3495</ele></trkpt><trkpt lat="46.453051" lon="10.613307"><time>2022-08-24T06:43:43.000Z</time><ele>3495.2</ele></trkpt><trkpt lat="46.453011" lon="10.613342"><time>2022-08-24T06:43:48.000Z</time><ele>3495.4</ele></trkpt><trkpt lat="46.45298" lon="10.613376"><time>2022-08-24T06:43:52.000Z</time><ele>3495.8</ele></trkpt><trkpt lat="46.452975" lon="10.613383"><time>2022-08-24T06:43:53.000Z</time><ele>3495.8</ele></trkpt><trkpt lat="46.452893" lon="10.613457"><time>2022-08-24T06:44:03.000Z</time><ele>3496.2</ele></trkpt><trkpt lat="46.452864" lon="10.613485"><time>2022-08-24T06:44:06.000Z</time><ele>3496.4</ele></trkpt><trkpt lat="46.452815" lon="10.613533"><time>2022-08-24T06:44:12.000Z</time><ele>3496.6</ele></trkpt><trkpt lat="46.452786" lon="10.613561"><time>2022-08-24T06:44:16.000Z</time><ele>3496.8</ele></trkpt><trkpt lat="46.452778" lon="10.613569"><time>2022-08-24T06:44:17.000Z</time><ele>3496.8</ele></trkpt><trkpt lat="46.452728" lon="10.613626"><time>2022-08-24T06:44:24.000Z</time><ele>3497.6</ele></trkpt><trkpt lat="46.45271" lon="10.613646"><time>2022-08-24T06:44:27.000Z</time><ele>3497.8</ele></trkpt><trkpt lat="46.452703" lon="10.613658"><time>2022-08-24T06:44:28.000Z</time><ele>3497.8</ele></trkpt><trkpt lat="46.452648" lon="10.61373"><time>2022-08-24T06:44:36.000Z</time><ele>3497.8</ele></trkpt><trkpt lat="46.45257" lon="10.613831"><time>2022-08-24T06:44:47.000Z</time><ele>3497.6</ele></trkpt><trkpt lat="46.452498" lon="10.613902"><time>2022-08-24T06:44:56.000Z</time><ele>3498.4</ele></trkpt><trkpt lat="46.452431" lon="10.61399"><time>2022-08-24T06:45:05.000Z</time><ele>3498.2</ele></trkpt><trkpt lat="46.452333" lon="10.614103"><time>2022-08-24T06:45:17.000Z</time><ele>3498.2</ele></trkpt><trkpt lat="46.452231" lon="10.614219"><time>2022-08-24T06:45:30.000Z</time><ele>3498.6</ele></trkpt><trkpt lat="46.452161" lon="10.614293"><time>2022-08-24T06:45:39.000Z</time><ele>3498.8</ele></trkpt><trkpt lat="46.452136" lon="10.614317"><time>2022-08-24T06:45:42.000Z</time><ele>3499</ele></trkpt><trkpt lat="46.452111" lon="10.614339"><time>2022-08-24T06:45:45.000Z</time><ele>3499</ele></trkpt><trkpt lat="46.452077" lon="10.614378"><time>2022-08-24T06:45:49.000Z</time><ele>3499.2</ele></trkpt><trkpt lat="46.452058" lon="10.614408"><time>2022-08-24T06:45:52.000Z</time><ele>3499.2</ele></trkpt><trkpt lat="46.45199" lon="10.614497"><time>2022-08-24T06:46:02.000Z</time><ele>3499.4</ele></trkpt><trkpt lat="46.45198" lon="10.614527"><time>2022-08-24T06:46:04.000Z</time><ele>3500</ele></trkpt><trkpt lat="46.451974" lon="10.614536"><time>2022-08-24T06:46:05.000Z</time><ele>3500</ele></trkpt><trkpt lat="46.451942" lon="10.614576"><time>2022-08-24T06:46:11.000Z</time><ele>3499.8</ele></trkpt><trkpt lat="46.451921" lon="10.614598"><time>2022-08-24T06:46:15.000Z</time><ele>3500.6</ele></trkpt><trkpt lat="46.45191" lon="10.614611"><time>2022-08-24T06:46:17.000Z</time><ele>3501</ele></trkpt><trkpt lat="46.451891" lon="10.614633"><time>2022-08-24T06:46:20.000Z</time><ele>3501.4</ele></trkpt><trkpt lat="46.451851" lon="10.614672"><time>2022-08-24T06:46:27.000Z</time><ele>3502</ele></trkpt><trkpt lat="46.451827" lon="10.614697"><time>2022-08-24T06:46:32.000Z</time><ele>3502.4</ele></trkpt><trkpt lat="46.451809" lon="10.614716"><time>2022-08-24T06:46:38.000Z</time><ele>3503</ele></trkpt><trkpt lat="46.451805" lon="10.614729"><time>2022-08-24T06:46:40.000Z</time><ele>3503.2</ele></trkpt><trkpt lat="46.451783" lon="10.614753"><time>2022-08-24T06:46:46.000Z</time><ele>3504.4</ele></trkpt><trkpt lat="46.45177" lon="10.614775"><time>2022-08-24T06:46:49.000Z</time><ele>3504.8</ele></trkpt><trkpt lat="46.451741" lon="10.614808"><time>2022-08-24T06:46:56.000Z</time><ele>3505.6</ele></trkpt><trkpt lat="46.451734" lon="10.614818"><time>2022-08-24T06:46:59.000Z</time><ele>3505.8</ele></trkpt><trkpt lat="46.451705" lon="10.614842"><time>2022-08-24T06:47:06.000Z</time><ele>3506.8</ele></trkpt><trkpt lat="46.451699" lon="10.61485"><time>2022-08-24T06:47:08.000Z</time><ele>3507.2</ele></trkpt><trkpt lat="46.451679" lon="10.614876"><time>2022-08-24T06:47:14.000Z</time><ele>3507.4</ele></trkpt><trkpt lat="46.451666" lon="10.614885"><time>2022-08-24T06:47:17.000Z</time><ele>3508</ele></trkpt><trkpt lat="46.451645" lon="10.614906"><time>2022-08-24T06:47:24.000Z</time><ele>3509</ele></trkpt><trkpt lat="46.451626" lon="10.614944"><time>2022-08-24T06:47:31.000Z</time><ele>3509.2</ele></trkpt><trkpt lat="46.451621" lon="10.614949"><time>2022-08-24T06:47:32.000Z</time><ele>3509.4</ele></trkpt><trkpt lat="46.4516" lon="10.614971"><time>2022-08-24T06:47:38.000Z</time><ele>3510.2</ele></trkpt><trkpt lat="46.451586" lon="10.614993"><time>2022-08-24T06:47:42.000Z</time><ele>3510.4</ele></trkpt><trkpt lat="46.45157" lon="10.615012"><time>2022-08-24T06:47:47.000Z</time><ele>3511.2</ele></trkpt><trkpt lat="46.451556" lon="10.615034"><time>2022-08-24T06:47:53.000Z</time><ele>3511.8</ele></trkpt><trkpt lat="46.451539" lon="10.615046"><time>2022-08-24T06:47:57.000Z</time><ele>3512.2</ele></trkpt><trkpt lat="46.451505" lon="10.615074"><time>2022-08-24T06:48:07.000Z</time><ele>3513.2</ele></trkpt><trkpt lat="46.451502" lon="10.615077"><time>2022-08-24T06:48:08.000Z</time><ele>3513.4</ele></trkpt><trkpt lat="46.45148" lon="10.615111"><time>2022-08-24T06:48:16.000Z</time><ele>3514.4</ele></trkpt><trkpt lat="46.451473" lon="10.615115"><time>2022-08-24T06:48:18.000Z</time><ele>3514.4</ele></trkpt><trkpt lat="46.451438" lon="10.615166"><time>2022-08-24T06:48:31.000Z</time><ele>3515.4</ele></trkpt><trkpt lat="46.451408" lon="10.615207"><time>2022-08-24T06:48:39.000Z</time><ele>3516.6</ele></trkpt><trkpt lat="46.451401" lon="10.615216"><time>2022-08-24T06:48:42.000Z</time><ele>3516.8</ele></trkpt><trkpt lat="46.451373" lon="10.615249"><time>2022-08-24T06:48:50.000Z</time><ele>3517.6</ele></trkpt><trkpt lat="46.451361" lon="10.615259"><time>2022-08-24T06:48:53.000Z</time><ele>3517.8</ele></trkpt><trkpt lat="46.451341" lon="10.615278"><time>2022-08-24T06:48:59.000Z</time><ele>3518.6</ele></trkpt><trkpt lat="46.451324" lon="10.615308"><time>2022-08-24T06:49:06.000Z</time><ele>3519.8</ele></trkpt><trkpt lat="46.451314" lon="10.615315"><time>2022-08-24T06:49:07.000Z</time><ele>3519.8</ele></trkpt><trkpt lat="46.451269" lon="10.615354"><time>2022-08-24T06:49:18.000Z</time><ele>3520.8</ele></trkpt><trkpt lat="46.451244" lon="10.615386"><time>2022-08-24T06:49:26.000Z</time><ele>3521.6</ele></trkpt><trkpt lat="46.451235" lon="10.615393"><time>2022-08-24T06:49:28.000Z</time><ele>3521.8</ele></trkpt><trkpt lat="46.451211" lon="10.61541"><time>2022-08-24T06:49:35.000Z</time><ele>3522.2</ele></trkpt><trkpt lat="46.451189" lon="10.615428"><time>2022-08-24T06:49:40.000Z</time><ele>3522.8</ele></trkpt><trkpt lat="46.451175" lon="10.615443"><time>2022-08-24T06:49:42.000Z</time><ele>3523</ele></trkpt><trkpt lat="46.451143" lon="10.61547"><time>2022-08-24T06:49:49.000Z</time><ele>3524</ele></trkpt><trkpt lat="46.451129" lon="10.615479"><time>2022-08-24T06:49:52.000Z</time><ele>3524.8</ele></trkpt><trkpt lat="46.451082" lon="10.615515"><time>2022-08-24T06:50:02.000Z</time><ele>3524.6</ele></trkpt><trkpt lat="46.451081" lon="10.615522"><time>2022-08-24T06:50:04.000Z</time><ele>3525</ele></trkpt><trkpt lat="46.451042" lon="10.615547"><time>2022-08-24T06:50:11.000Z</time><ele>3526</ele></trkpt><trkpt lat="46.451035" lon="10.615555"><time>2022-08-24T06:50:13.000Z</time><ele>3526</ele></trkpt><trkpt lat="46.450979" lon="10.615605"><time>2022-08-24T06:50:24.000Z</time><ele>3526.8</ele></trkpt><trkpt lat="46.45094" lon="10.615641"><time>2022-08-24T06:50:32.000Z</time><ele>3527.2</ele></trkpt><trkpt lat="46.450924" lon="10.615653"><time>2022-08-24T06:50:35.000Z</time><ele>3527.8</ele></trkpt><trkpt lat="46.450903" lon="10.615671"><time>2022-08-24T06:50:39.000Z</time><ele>3528.4</ele></trkpt><trkpt lat="46.450881" lon="10.615688"><time>2022-08-24T06:50:43.000Z</time><ele>3528.6</ele></trkpt><trkpt lat="46.450831" lon="10.615727"><time>2022-08-24T06:50:53.000Z</time><ele>3529.4</ele></trkpt><trkpt lat="46.450802" lon="10.615753"><time>2022-08-24T06:50:58.000Z</time><ele>3529.8</ele></trkpt><trkpt lat="46.450762" lon="10.615786"><time>2022-08-24T06:51:05.000Z</time><ele>3530.4</ele></trkpt><trkpt lat="46.450713" lon="10.615804"><time>2022-08-24T06:51:12.000Z</time><ele>3531</ele></trkpt><trkpt lat="46.450685" lon="10.615836"><time>2022-08-24T06:51:17.000Z</time><ele>3531.6</ele></trkpt><trkpt lat="46.450657" lon="10.615858"><time>2022-08-24T06:51:22.000Z</time><ele>3532.4</ele></trkpt><trkpt lat="46.45065" lon="10.615868"><time>2022-08-24T06:51:25.000Z</time><ele>3532.6</ele></trkpt><trkpt lat="46.450626" lon="10.615881"><time>2022-08-24T06:51:29.000Z</time><ele>3533.4</ele></trkpt><trkpt lat="46.450612" lon="10.615892"><time>2022-08-24T06:51:32.000Z</time><ele>3533.8</ele></trkpt><trkpt lat="46.450572" lon="10.615919"><time>2022-08-24T06:51:39.000Z</time><ele>3534.2</ele></trkpt><trkpt lat="46.450553" lon="10.615934"><time>2022-08-24T06:51:42.000Z</time><ele>3534.8</ele></trkpt><trkpt lat="46.450516" lon="10.615964"><time>2022-08-24T06:51:49.000Z</time><ele>3535.6</ele></trkpt><trkpt lat="46.450513" lon="10.615969"><time>2022-08-24T06:51:50.000Z</time><ele>3535.8</ele></trkpt><trkpt lat="46.450469" lon="10.616015"><time>2022-08-24T06:51:59.000Z</time><ele>3536.4</ele></trkpt><trkpt lat="46.450446" lon="10.616042"><time>2022-08-24T06:52:03.000Z</time><ele>3537</ele></trkpt><trkpt lat="46.450404" lon="10.616069"><time>2022-08-24T06:52:10.000Z</time><ele>3537.6</ele></trkpt><trkpt lat="46.45036" lon="10.616099"><time>2022-08-24T06:52:18.000Z</time><ele>3538.2</ele></trkpt><trkpt lat="46.450354" lon="10.616106"><time>2022-08-24T06:52:19.000Z</time><ele>3538.4</ele></trkpt><trkpt lat="46.450291" lon="10.616157"><time>2022-08-24T06:52:30.000Z</time><ele>3539.2</ele></trkpt><trkpt lat="46.450244" lon="10.616223"><time>2022-08-24T06:52:40.000Z</time><ele>3540.4</ele></trkpt><trkpt lat="46.450239" lon="10.616231"><time>2022-08-24T06:52:41.000Z</time><ele>3540.4</ele></trkpt><trkpt lat="46.450192" lon="10.616265"><time>2022-08-24T06:52:49.000Z</time><ele>3541.2</ele></trkpt><trkpt lat="46.450181" lon="10.616272"><time>2022-08-24T06:52:51.000Z</time><ele>3541.4</ele></trkpt><trkpt lat="46.450156" lon="10.616291"><time>2022-08-24T06:52:55.000Z</time><ele>3541.6</ele></trkpt><trkpt lat="46.450151" lon="10.616298"><time>2022-08-24T06:52:56.000Z</time><ele>3541.6</ele></trkpt><trkpt lat="46.450143" lon="10.616308"><time>2022-08-24T06:52:58.000Z</time><ele>3541.8</ele></trkpt><trkpt lat="46.450115" lon="10.61633"><time>2022-08-24T06:53:02.000Z</time><ele>3542.6</ele></trkpt><trkpt lat="46.450104" lon="10.61634"><time>2022-08-24T06:53:04.000Z</time><ele>3543</ele></trkpt><trkpt lat="46.450096" lon="10.616349"><time>2022-08-24T06:53:06.000Z</time><ele>3543.2</ele></trkpt><trkpt lat="46.450085" lon="10.616364"><time>2022-08-24T06:53:09.000Z</time><ele>3543.2</ele></trkpt><trkpt lat="46.450066" lon="10.616378"><time>2022-08-24T06:53:12.000Z</time><ele>3543.2</ele></trkpt><trkpt lat="46.450061" lon="10.616385"><time>2022-08-24T06:53:13.000Z</time><ele>3543.6</ele></trkpt><trkpt lat="46.450049" lon="10.616395"><time>2022-08-24T06:53:15.000Z</time><ele>3543.8</ele></trkpt><trkpt lat="46.450035" lon="10.616415"><time>2022-08-24T06:53:18.000Z</time><ele>3543.8</ele></trkpt><trkpt lat="46.450025" lon="10.616421"><time>2022-08-24T06:53:20.000Z</time><ele>3544.2</ele></trkpt><trkpt lat="46.450011" lon="10.616431"><time>2022-08-24T06:53:22.000Z</time><ele>3544.4</ele></trkpt><trkpt lat="46.450003" lon="10.616437"><time>2022-08-24T06:53:24.000Z</time><ele>3544.6</ele></trkpt><trkpt lat="46.449982" lon="10.616447"><time>2022-08-24T06:53:28.000Z</time><ele>3544.8</ele></trkpt><trkpt lat="46.449964" lon="10.616464"><time>2022-08-24T06:53:31.000Z</time><ele>3545.2</ele></trkpt><trkpt lat="46.449957" lon="10.61647"><time>2022-08-24T06:53:32.000Z</time><ele>3545.2</ele></trkpt><trkpt lat="46.449945" lon="10.616483"><time>2022-08-24T06:53:34.000Z</time><ele>3545.6</ele></trkpt><trkpt lat="46.449942" lon="10.616488"><time>2022-08-24T06:53:35.000Z</time><ele>3545.8</ele></trkpt><trkpt lat="46.449927" lon="10.616504"><time>2022-08-24T06:53:38.000Z</time><ele>3545.8</ele></trkpt><trkpt lat="46.449913" lon="10.616522"><time>2022-08-24T06:53:41.000Z</time><ele>3546</ele></trkpt><trkpt lat="46.449908" lon="10.616526"><time>2022-08-24T06:53:42.000Z</time><ele>3546</ele></trkpt><trkpt lat="46.449886" lon="10.616558"><time>2022-08-24T06:53:46.000Z</time><ele>3546.6</ele></trkpt><trkpt lat="46.449877" lon="10.616569"><time>2022-08-24T06:53:48.000Z</time><ele>3546.6</ele></trkpt><trkpt lat="46.449873" lon="10.616574"><time>2022-08-24T06:53:49.000Z</time><ele>3546.8</ele></trkpt><trkpt lat="46.449864" lon="10.61658"><time>2022-08-24T06:53:51.000Z</time><ele>3546.8</ele></trkpt><trkpt lat="46.449855" lon="10.616592"><time>2022-08-24T06:53:53.000Z</time><ele>3547</ele></trkpt><trkpt lat="46.449845" lon="10.616599"><time>2022-08-24T06:53:56.000Z</time><ele>3547.2</ele></trkpt><trkpt lat="46.449837" lon="10.616608"><time>2022-08-24T06:53:57.000Z</time><ele>3547.4</ele></trkpt><trkpt lat="46.449833" lon="10.616611"><time>2022-08-24T06:53:58.000Z</time><ele>3547.4</ele></trkpt><trkpt lat="46.449819" lon="10.616624"><time>2022-08-24T06:54:01.000Z</time><ele>3547.8</ele></trkpt><trkpt lat="46.449806" lon="10.616639"><time>2022-08-24T06:54:05.000Z</time><ele>3548.4</ele></trkpt><trkpt lat="46.449797" lon="10.616644"><time>2022-08-24T06:54:06.000Z</time><ele>3548.6</ele></trkpt><trkpt lat="46.44979" lon="10.61665"><time>2022-08-24T06:54:07.000Z</time><ele>3548.6</ele></trkpt><trkpt lat="46.449769" lon="10.616662"><time>2022-08-24T06:54:10.000Z</time><ele>3549</ele></trkpt><trkpt lat="46.449751" lon="10.616665"><time>2022-08-24T06:54:13.000Z</time><ele>3549.8</ele></trkpt><trkpt lat="46.449745" lon="10.61667"><time>2022-08-24T06:54:14.000Z</time><ele>3550</ele></trkpt><trkpt lat="46.449736" lon="10.616683"><time>2022-08-24T06:54:16.000Z</time><ele>3550.2</ele></trkpt><trkpt lat="46.449689" lon="10.616713"><time>2022-08-24T06:54:25.000Z</time><ele>3551</ele></trkpt><trkpt lat="46.449685" lon="10.616715"><time>2022-08-24T06:54:26.000Z</time><ele>3551.2</ele></trkpt><trkpt lat="46.449681" lon="10.616718"><time>2022-08-24T06:54:27.000Z</time><ele>3551.2</ele></trkpt><trkpt lat="46.449663" lon="10.616741"><time>2022-08-24T06:54:31.000Z</time><ele>3551.4</ele></trkpt><trkpt lat="46.449637" lon="10.61677"><time>2022-08-24T06:54:36.000Z</time><ele>3551.6</ele></trkpt><trkpt lat="46.449633" lon="10.616774"><time>2022-08-24T06:54:37.000Z</time><ele>3551.6</ele></trkpt><trkpt lat="46.449626" lon="10.616777"><time>2022-08-24T06:54:38.000Z</time><ele>3551.6</ele></trkpt><trkpt lat="46.449622" lon="10.616783"><time>2022-08-24T06:54:39.000Z</time><ele>3551.6</ele></trkpt><trkpt lat="46.4496" lon="10.616805"><time>2022-08-24T06:54:44.000Z</time><ele>3552.4</ele></trkpt><trkpt lat="46.449595" lon="10.616811"><time>2022-08-24T06:54:45.000Z</time><ele>3552.6</ele></trkpt><trkpt lat="46.449585" lon="10.616823"><time>2022-08-24T06:54:47.000Z</time><ele>3552.8</ele></trkpt><trkpt lat="46.449578" lon="10.61683"><time>2022-08-24T06:54:48.000Z</time><ele>3552.8</ele></trkpt><trkpt lat="46.449573" lon="10.616836"><time>2022-08-24T06:54:49.000Z</time><ele>3553</ele></trkpt><trkpt lat="46.449549" lon="10.616863"><time>2022-08-24T06:54:53.000Z</time><ele>3553.4</ele></trkpt><trkpt lat="46.449544" lon="10.616867"><time>2022-08-24T06:54:54.000Z</time><ele>3553.4</ele></trkpt><trkpt lat="46.449529" lon="10.616884"><time>2022-08-24T06:54:58.000Z</time><ele>3554.4</ele></trkpt><trkpt lat="46.449521" lon="10.616893"><time>2022-08-24T06:55:00.000Z</time><ele>3554.6</ele></trkpt><trkpt lat="46.449512" lon="10.616902"><time>2022-08-24T06:55:02.000Z</time><ele>3554.6</ele></trkpt><trkpt lat="46.449472" lon="10.616941"><time>2022-08-24T06:55:10.000Z</time><ele>3555</ele></trkpt><trkpt lat="46.449458" lon="10.616949"><time>2022-08-24T06:55:13.000Z</time><ele>3555.4</ele></trkpt><trkpt lat="46.449429" lon="10.616977"><time>2022-08-24T06:55:18.000Z</time><ele>3555.6</ele></trkpt><trkpt lat="46.449382" lon="10.617001"><time>2022-08-24T06:55:26.000Z</time><ele>3556.6</ele></trkpt><trkpt lat="46.449372" lon="10.617008"><time>2022-08-24T06:55:28.000Z</time><ele>3556.8</ele></trkpt><trkpt lat="46.449338" lon="10.617029"><time>2022-08-24T06:55:35.000Z</time><ele>3557.4</ele></trkpt><trkpt lat="46.449322" lon="10.617047"><time>2022-08-24T06:55:38.000Z</time><ele>3557.6</ele></trkpt><trkpt lat="46.4493" lon="10.617068"><time>2022-08-24T06:55:43.000Z</time><ele>3558.4</ele></trkpt><trkpt lat="46.449274" lon="10.617081"><time>2022-08-24T06:55:47.000Z</time><ele>3558.8</ele></trkpt><trkpt lat="46.449248" lon="10.617105"><time>2022-08-24T06:55:52.000Z</time><ele>3558.8</ele></trkpt><trkpt lat="46.449212" lon="10.617129"><time>2022-08-24T06:55:59.000Z</time><ele>3559.8</ele></trkpt><trkpt lat="46.449197" lon="10.617144"><time>2022-08-24T06:56:02.000Z</time><ele>3560.2</ele></trkpt><trkpt lat="46.449173" lon="10.617165"><time>2022-08-24T06:56:06.000Z</time><ele>3560.8</ele></trkpt><trkpt lat="46.449168" lon="10.617172"><time>2022-08-24T06:56:07.000Z</time><ele>3561</ele></trkpt><trkpt lat="46.449153" lon="10.617187"><time>2022-08-24T06:56:10.000Z</time><ele>3561.2</ele></trkpt><trkpt lat="46.449129" lon="10.617201"><time>2022-08-24T06:56:14.000Z</time><ele>3561.8</ele></trkpt><trkpt lat="46.449085" lon="10.617245"><time>2022-08-24T06:56:24.000Z</time><ele>3562.8</ele></trkpt><trkpt lat="46.449068" lon="10.617262"><time>2022-08-24T06:56:27.000Z</time><ele>3563</ele></trkpt><trkpt lat="46.449056" lon="10.617269"><time>2022-08-24T06:56:29.000Z</time><ele>3563.4</ele></trkpt><trkpt lat="46.449034" lon="10.617275"><time>2022-08-24T06:56:32.000Z</time><ele>3563.6</ele></trkpt><trkpt lat="46.449029" lon="10.617278"><time>2022-08-24T06:56:33.000Z</time><ele>3563.8</ele></trkpt><trkpt lat="46.449015" lon="10.617295"><time>2022-08-24T06:56:36.000Z</time><ele>3563.6</ele></trkpt><trkpt lat="46.449007" lon="10.617306"><time>2022-08-24T06:56:38.000Z</time><ele>3564</ele></trkpt><trkpt lat="46.449" lon="10.617308"><time>2022-08-24T06:56:39.000Z</time><ele>3564</ele></trkpt><trkpt lat="46.448993" lon="10.617314"><time>2022-08-24T06:56:40.000Z</time><ele>3564.2</ele></trkpt><trkpt lat="46.448988" lon="10.617317"><time>2022-08-24T06:56:41.000Z</time><ele>3564.4</ele></trkpt><trkpt lat="46.448957" lon="10.617345"><time>2022-08-24T06:56:47.000Z</time><ele>3565.2</ele></trkpt><trkpt lat="46.448938" lon="10.617349"><time>2022-08-24T06:56:50.000Z</time><ele>3565</ele></trkpt><trkpt lat="46.44887" lon="10.617408"><time>2022-08-24T06:57:02.000Z</time><ele>3565.8</ele></trkpt><trkpt lat="46.448862" lon="10.617414"><time>2022-08-24T06:57:04.000Z</time><ele>3566</ele></trkpt><trkpt lat="46.448859" lon="10.617421"><time>2022-08-24T06:57:05.000Z</time><ele>3566.2</ele></trkpt><trkpt lat="46.448829" lon="10.61745"><time>2022-08-24T06:57:10.000Z</time><ele>3566.8</ele></trkpt><trkpt lat="46.448818" lon="10.617458"><time>2022-08-24T06:57:12.000Z</time><ele>3567.2</ele></trkpt><trkpt lat="46.448783" lon="10.617483"><time>2022-08-24T06:57:18.000Z</time><ele>3567.8</ele></trkpt><trkpt lat="46.448763" lon="10.617507"><time>2022-08-24T06:57:21.000Z</time><ele>3568.4</ele></trkpt><trkpt lat="46.448736" lon="10.617533"><time>2022-08-24T06:57:28.000Z</time><ele>3568.8</ele></trkpt><trkpt lat="46.448694" lon="10.617577"><time>2022-08-24T06:57:36.000Z</time><ele>3569.6</ele></trkpt><trkpt lat="46.448652" lon="10.617599"><time>2022-08-24T06:57:44.000Z</time><ele>3570.8</ele></trkpt><trkpt lat="46.448598" lon="10.617653"><time>2022-08-24T06:57:54.000Z</time><ele>3571.6</ele></trkpt><trkpt lat="46.448578" lon="10.617656"><time>2022-08-24T06:57:57.000Z</time><ele>3571.8</ele></trkpt><trkpt lat="46.448559" lon="10.617664"><time>2022-08-24T06:58:02.000Z</time><ele>3572.4</ele></trkpt><trkpt lat="46.448524" lon="10.617681"><time>2022-08-24T06:58:08.000Z</time><ele>3573</ele></trkpt><trkpt lat="46.448515" lon="10.617685"><time>2022-08-24T06:58:11.000Z</time><ele>3573.2</ele></trkpt><trkpt lat="46.448469" lon="10.617738"><time>2022-08-24T06:58:20.000Z</time><ele>3574</ele></trkpt><trkpt lat="46.448434" lon="10.617769"><time>2022-08-24T06:58:27.000Z</time><ele>3575.2</ele></trkpt><trkpt lat="46.44843" lon="10.617772"><time>2022-08-24T06:58:28.000Z</time><ele>3575.4</ele></trkpt><trkpt lat="46.448402" lon="10.617787"><time>2022-08-24T06:58:34.000Z</time><ele>3576.2</ele></trkpt><trkpt lat="46.448395" lon="10.617788"><time>2022-08-24T06:58:35.000Z</time><ele>3576.4</ele></trkpt><trkpt lat="46.448378" lon="10.617802"><time>2022-08-24T06:58:40.000Z</time><ele>3577.4</ele></trkpt><trkpt lat="46.448362" lon="10.617811"><time>2022-08-24T06:58:43.000Z</time><ele>3577.8</ele></trkpt><trkpt lat="46.448326" lon="10.617846"><time>2022-08-24T06:58:53.000Z</time><ele>3578.4</ele></trkpt><trkpt lat="46.448324" lon="10.61785"><time>2022-08-24T06:58:54.000Z</time><ele>3578.6</ele></trkpt><trkpt lat="46.44829" lon="10.61786"><time>2022-08-24T06:59:02.000Z</time><ele>3579.4</ele></trkpt><trkpt lat="46.448253" lon="10.617878"><time>2022-08-24T06:59:09.000Z</time><ele>3580.2</ele></trkpt><trkpt lat="46.44825" lon="10.617882"><time>2022-08-24T06:59:11.000Z</time><ele>3580.6</ele></trkpt><trkpt lat="46.44824" lon="10.617887"><time>2022-08-24T06:59:14.000Z</time><ele>3580.8</ele></trkpt><trkpt lat="46.448193" lon="10.6179"><time>2022-08-24T06:59:24.000Z</time><ele>3581.8</ele></trkpt><trkpt lat="46.448163" lon="10.617941"><time>2022-08-24T06:59:32.000Z</time><ele>3582.8</ele></trkpt><trkpt lat="46.448158" lon="10.617953"><time>2022-08-24T06:59:34.000Z</time><ele>3583</ele></trkpt><trkpt lat="46.448128" lon="10.618001"><time>2022-08-24T06:59:43.000Z</time><ele>3584</ele></trkpt><trkpt lat="46.448124" lon="10.618012"><time>2022-08-24T06:59:44.000Z</time><ele>3584</ele></trkpt><trkpt lat="46.448094" lon="10.618031"><time>2022-08-24T06:59:51.000Z</time><ele>3585</ele></trkpt><trkpt lat="46.448061" lon="10.618065"><time>2022-08-24T06:59:59.000Z</time><ele>3586.2</ele></trkpt><trkpt lat="46.448057" lon="10.61807"><time>2022-08-24T07:00:00.000Z</time><ele>3586.4</ele></trkpt><trkpt lat="46.448017" lon="10.618097"><time>2022-08-24T07:00:10.000Z</time><ele>3587.2</ele></trkpt><trkpt lat="46.448003" lon="10.618112"><time>2022-08-24T07:00:15.000Z</time><ele>3588.4</ele></trkpt><trkpt lat="46.447983" lon="10.618132"><time>2022-08-24T07:00:20.000Z</time><ele>3588.6</ele></trkpt><trkpt lat="46.447958" lon="10.618144"><time>2022-08-24T07:00:25.000Z</time><ele>3589.4</ele></trkpt><trkpt lat="46.447926" lon="10.618167"><time>2022-08-24T07:00:32.000Z</time><ele>3590.4</ele></trkpt><trkpt lat="46.447923" lon="10.618171"><time>2022-08-24T07:00:33.000Z</time><ele>3590.4</ele></trkpt><trkpt lat="46.447884" lon="10.618192"><time>2022-08-24T07:00:43.000Z</time><ele>3591.4</ele></trkpt><trkpt lat="46.44788" lon="10.618195"><time>2022-08-24T07:00:44.000Z</time><ele>3591.6</ele></trkpt><trkpt lat="46.447848" lon="10.61821"><time>2022-08-24T07:00:51.000Z</time><ele>3592.8</ele></trkpt><trkpt lat="46.44782" lon="10.618235"><time>2022-08-24T07:00:56.000Z</time><ele>3593.4</ele></trkpt><trkpt lat="46.447801" lon="10.618234"><time>2022-08-24T07:01:01.000Z</time><ele>3594</ele></trkpt><trkpt lat="46.447777" lon="10.618246"><time>2022-08-24T07:01:06.000Z</time><ele>3594.4</ele></trkpt><trkpt lat="46.447769" lon="10.618246"><time>2022-08-24T07:01:10.000Z</time><ele>3595.2</ele></trkpt><trkpt lat="46.44774" lon="10.618264"><time>2022-08-24T07:01:15.000Z</time><ele>3596</ele></trkpt><trkpt lat="46.447726" lon="10.61827"><time>2022-08-24T07:01:18.000Z</time><ele>3596.2</ele></trkpt><trkpt lat="46.447707" lon="10.618287"><time>2022-08-24T07:01:23.000Z</time><ele>3597.2</ele></trkpt><trkpt lat="46.447703" lon="10.618288"><time>2022-08-24T07:01:24.000Z</time><ele>3597.4</ele></trkpt><trkpt lat="46.447666" lon="10.618306"><time>2022-08-24T07:01:32.000Z</time><ele>3598.4</ele></trkpt><trkpt lat="46.447618" lon="10.618338"><time>2022-08-24T07:01:44.000Z</time><ele>3599.6</ele></trkpt><trkpt lat="46.447614" lon="10.618339"><time>2022-08-24T07:01:45.000Z</time><ele>3599.6</ele></trkpt><trkpt lat="46.447596" lon="10.618354"><time>2022-08-24T07:01:50.000Z</time><ele>3600.6</ele></trkpt><trkpt lat="46.447573" lon="10.618376"><time>2022-08-24T07:01:55.000Z</time><ele>3600.8</ele></trkpt><trkpt lat="46.447566" lon="10.618377"><time>2022-08-24T07:01:58.000Z</time><ele>3601.6</ele></trkpt><trkpt lat="46.447555" lon="10.618387"><time>2022-08-24T07:02:01.000Z</time><ele>3602.2</ele></trkpt><trkpt lat="46.447514" lon="10.618415"><time>2022-08-24T07:02:11.000Z</time><ele>3602.8</ele></trkpt><trkpt lat="46.447511" lon="10.618414"><time>2022-08-24T07:02:12.000Z</time><ele>3603</ele></trkpt><trkpt lat="46.447504" lon="10.618424"><time>2022-08-24T07:02:16.000Z</time><ele>3604</ele></trkpt><trkpt lat="46.447474" lon="10.618465"><time>2022-08-24T07:02:26.000Z</time><ele>3605</ele></trkpt><trkpt lat="46.44744" lon="10.618495"><time>2022-08-24T07:02:33.000Z</time><ele>3606</ele></trkpt><trkpt lat="46.447408" lon="10.618536"><time>2022-08-24T07:02:43.000Z</time><ele>3607</ele></trkpt><trkpt lat="46.447403" lon="10.618545"><time>2022-08-24T07:02:44.000Z</time><ele>3607</ele></trkpt><trkpt lat="46.447389" lon="10.618562"><time>2022-08-24T07:02:49.000Z</time><ele>3608.2</ele></trkpt><trkpt lat="46.447365" lon="10.618578"><time>2022-08-24T07:02:53.000Z</time><ele>3608.6</ele></trkpt><trkpt lat="46.447343" lon="10.618594"><time>2022-08-24T07:02:58.000Z</time><ele>3609.2</ele></trkpt><trkpt lat="46.447329" lon="10.618599"><time>2022-08-24T07:03:01.000Z</time><ele>3609.8</ele></trkpt><trkpt lat="46.447312" lon="10.61862"><time>2022-08-24T07:03:06.000Z</time><ele>3610.4</ele></trkpt><trkpt lat="46.447294" lon="10.618647"><time>2022-08-24T07:03:15.000Z</time><ele>3611.4</ele></trkpt><trkpt lat="46.447274" lon="10.618673"><time>2022-08-24T07:03:21.000Z</time><ele>3612.4</ele></trkpt><trkpt lat="46.447264" lon="10.618686"><time>2022-08-24T07:03:24.000Z</time><ele>3613</ele></trkpt><trkpt lat="46.447246" lon="10.618709"><time>2022-08-24T07:03:31.000Z</time><ele>3613.6</ele></trkpt><trkpt lat="46.447239" lon="10.618715"><time>2022-08-24T07:03:33.000Z</time><ele>3613.6</ele></trkpt><trkpt lat="46.44723" lon="10.618733"><time>2022-08-24T07:03:37.000Z</time><ele>3614.6</ele></trkpt><trkpt lat="46.447219" lon="10.618749"><time>2022-08-24T07:03:45.000Z</time><ele>3615.6</ele></trkpt><trkpt lat="46.447215" lon="10.61875"><time>2022-08-24T07:03:46.000Z</time><ele>3615.8</ele></trkpt><trkpt lat="46.447204" lon="10.61875"><time>2022-08-24T07:03:51.000Z</time><ele>3616.6</ele></trkpt><trkpt lat="46.447175" lon="10.618743"><time>2022-08-24T07:03:58.000Z</time><ele>3617.6</ele></trkpt><trkpt lat="46.447172" lon="10.618744"><time>2022-08-24T07:03:59.000Z</time><ele>3617.6</ele></trkpt><trkpt lat="46.447135" lon="10.618764"><time>2022-08-24T07:04:07.000Z</time><ele>3618.4</ele></trkpt><trkpt lat="46.447133" lon="10.618765"><time>2022-08-24T07:04:08.000Z</time><ele>3618.6</ele></trkpt><trkpt lat="46.447119" lon="10.618777"><time>2022-08-24T07:04:12.000Z</time><ele>3618.8</ele></trkpt><trkpt lat="46.447114" lon="10.618784"><time>2022-08-24T07:04:16.000Z</time><ele>3619.6</ele></trkpt><trkpt lat="46.447093" lon="10.61879"><time>2022-08-24T07:04:22.000Z</time><ele>3620.2</ele></trkpt><trkpt lat="46.447089" lon="10.618796"><time>2022-08-24T07:04:24.000Z</time><ele>3621</ele></trkpt><trkpt lat="46.447066" lon="10.618808"><time>2022-08-24T07:04:30.000Z</time><ele>3622</ele></trkpt><trkpt lat="46.447064" lon="10.618809"><time>2022-08-24T07:04:31.000Z</time><ele>3622</ele></trkpt><trkpt lat="46.44703" lon="10.618822"><time>2022-08-24T07:04:37.000Z</time><ele>3622.6</ele></trkpt><trkpt lat="46.447016" lon="10.618824"><time>2022-08-24T07:04:40.000Z</time><ele>3623</ele></trkpt><trkpt lat="46.446988" lon="10.618829"><time>2022-08-24T07:04:47.000Z</time><ele>3623.6</ele></trkpt><trkpt lat="46.446982" lon="10.618829"><time>2022-08-24T07:04:49.000Z</time><ele>3624</ele></trkpt><trkpt lat="46.446956" lon="10.61884"><time>2022-08-24T07:04:57.000Z</time><ele>3625</ele></trkpt><trkpt lat="46.446953" lon="10.618839"><time>2022-08-24T07:04:58.000Z</time><ele>3625</ele></trkpt><trkpt lat="46.446922" lon="10.61883"><time>2022-08-24T07:05:04.000Z</time><ele>3626.2</ele></trkpt><trkpt lat="46.446914" lon="10.618831"><time>2022-08-24T07:05:08.000Z</time><ele>3626.2</ele></trkpt><trkpt lat="46.446909" lon="10.618824"><time>2022-08-24T07:05:20.000Z</time><ele>3626.6</ele></trkpt><trkpt lat="46.446916" lon="10.618833"><time>2022-08-24T07:05:37.000Z</time><ele>3627</ele></trkpt><trkpt lat="46.446918" lon="10.618835"><time>2022-08-24T07:05:43.000Z</time><ele>3626.6</ele></trkpt><trkpt lat="46.446921" lon="10.618837"><time>2022-08-24T07:05:47.000Z</time><ele>3626.6</ele></trkpt><trkpt lat="46.446929" lon="10.618844"><time>2022-08-24T07:06:03.000Z</time><ele>3626.6</ele></trkpt><trkpt lat="46.446939" lon="10.618867"><time>2022-08-24T07:06:12.000Z</time><ele>3626.4</ele></trkpt><trkpt lat="46.446939" lon="10.618887"><time>2022-08-24T07:06:18.000Z</time><ele>3626.6</ele></trkpt><trkpt lat="46.446938" lon="10.618888"><time>2022-08-24T07:06:28.000Z</time><ele>3626.6</ele></trkpt><trkpt lat="46.446933" lon="10.618888"><time>2022-08-24T07:06:38.000Z</time><ele>3626.6</ele></trkpt><trkpt lat="46.446932" lon="10.618887"><time>2022-08-24T07:06:40.000Z</time><ele>3626.6</ele></trkpt><trkpt lat="46.446931" lon="10.618883"><time>2022-08-24T07:06:44.000Z</time><ele>3626.6</ele></trkpt><trkpt lat="46.446929" lon="10.618873"><time>2022-08-24T07:06:56.000Z</time><ele>3626.6</ele></trkpt><trkpt lat="46.446927" lon="10.618866"><time>2022-08-24T07:07:04.000Z</time><ele>3626.6</ele></trkpt><trkpt lat="46.446929" lon="10.618864"><time>2022-08-24T07:07:08.000Z</time><ele>3626.6</ele></trkpt><trkpt lat="46.446931" lon="10.618858"><time>2022-08-24T07:07:17.000Z</time><ele>3626.6</ele></trkpt><trkpt lat="46.44694" lon="10.618842"><time>2022-08-24T07:07:32.000Z</time><ele>3626.6</ele></trkpt><trkpt lat="46.446943" lon="10.618833"><time>2022-08-24T07:07:50.000Z</time><ele>3626.6</ele></trkpt><trkpt lat="46.446941" lon="10.618827"><time>2022-08-24T07:07:57.000Z</time><ele>3626.6</ele></trkpt><trkpt lat="46.446941" lon="10.618827"><time>2022-08-24T07:07:59.000Z</time><ele>3626.6</ele></trkpt><trkpt lat="46.446936" lon="10.618823"><time>2022-08-24T07:08:13.000Z</time><ele>3626.6</ele></trkpt><trkpt lat="46.44693" lon="10.618823"><time>2022-08-24T07:08:33.000Z</time><ele>3626.6</ele></trkpt><trkpt lat="46.44693" lon="10.618823"><time>2022-08-24T07:08:53.000Z</time><ele>3626.6</ele></trkpt><trkpt lat="46.44693" lon="10.618824"><time>2022-08-24T07:09:14.000Z</time><ele>3626.6</ele></trkpt><trkpt lat="46.44693" lon="10.618824"><time>2022-08-24T07:09:17.000Z</time><ele>3626.6</ele></trkpt><trkpt lat="46.44693" lon="10.618825"><time>2022-08-24T07:09:23.000Z</time><ele>3626.6</ele></trkpt><trkpt lat="46.44693" lon="10.618825"><time>2022-08-24T07:09:33.000Z</time><ele>3626.6</ele></trkpt><trkpt lat="46.44693" lon="10.618826"><time>2022-08-24T07:10:14.000Z</time><ele>3626.6</ele></trkpt><trkpt lat="46.44693" lon="10.618826"><time>2022-08-24T07:10:30.000Z</time><ele>3626.6</ele></trkpt><trkpt lat="46.446931" lon="10.618826"><time>2022-08-24T07:10:41.000Z</time><ele>3626.6</ele></trkpt><trkpt lat="46.446931" lon="10.618827"><time>2022-08-24T07:10:53.000Z</time><ele>3626.6</ele></trkpt><trkpt lat="46.446931" lon="10.618827"><time>2022-08-24T07:10:58.000Z</time><ele>3626.6</ele></trkpt><trkpt lat="46.446931" lon="10.618828"><time>2022-08-24T07:11:23.000Z</time><ele>3626.6</ele></trkpt><trkpt lat="46.446931" lon="10.618829"><time>2022-08-24T07:11:56.000Z</time><ele>3626.6</ele></trkpt><trkpt lat="46.44693" lon="10.618829"><time>2022-08-24T07:12:08.000Z</time><ele>3626.6</ele></trkpt><trkpt lat="46.44693" lon="10.618829"><time>2022-08-24T07:12:12.000Z</time><ele>3626.6</ele></trkpt><trkpt lat="46.44693" lon="10.618829"><time>2022-08-24T07:12:14.000Z</time><ele>3626.6</ele></trkpt><trkpt lat="46.44693" lon="10.61883"><time>2022-08-24T07:12:37.000Z</time><ele>3626.6</ele></trkpt><trkpt lat="46.44693" lon="10.61883"><time>2022-08-24T07:12:48.000Z</time><ele>3626.6</ele></trkpt><trkpt lat="46.44693" lon="10.618831"><time>2022-08-24T07:12:50.000Z</time><ele>3626.6</ele></trkpt><trkpt lat="46.44693" lon="10.618831"><time>2022-08-24T07:12:53.000Z</time><ele>3626.6</ele></trkpt><trkpt lat="46.44693" lon="10.618831"><time>2022-08-24T07:13:03.000Z</time><ele>3626.6</ele></trkpt><trkpt lat="46.44693" lon="10.618831"><time>2022-08-24T07:13:15.000Z</time><ele>3626.6</ele></trkpt><trkpt lat="46.446929" lon="10.618832"><time>2022-08-24T07:13:30.000Z</time><ele>3626.6</ele></trkpt><trkpt lat="46.446929" lon="10.618832"><time>2022-08-24T07:14:08.000Z</time><ele>3626.6</ele></trkpt><trkpt lat="46.446929" lon="10.618832"><time>2022-08-24T07:14:28.000Z</time><ele>3626.6</ele></trkpt><trkpt lat="46.446929" lon="10.618833"><time>2022-08-24T07:14:53.000Z</time><ele>3626.6</ele></trkpt><trkpt lat="46.446929" lon="10.618833"><time>2022-08-24T07:14:56.000Z</time><ele>3626.6</ele></trkpt><trkpt lat="46.446928" lon="10.618834"><time>2022-08-24T07:15:07.000Z</time><ele>3626.6</ele></trkpt><trkpt lat="46.446926" lon="10.618834"><time>2022-08-24T07:15:23.000Z</time><ele>3626.6</ele></trkpt><trkpt lat="46.446926" lon="10.618834"><time>2022-08-24T07:15:27.000Z</time><ele>3626.6</ele></trkpt><trkpt lat="46.446924" lon="10.618835"><time>2022-08-24T07:15:35.000Z</time><ele>3633.2</ele></trkpt><trkpt lat="46.446924" lon="10.618835"><time>2022-08-24T07:15:38.000Z</time><ele>3633.2</ele></trkpt><trkpt lat="46.446923" lon="10.618835"><time>2022-08-24T07:15:39.000Z</time><ele>3633.6</ele></trkpt><trkpt lat="46.446923" lon="10.618835"><time>2022-08-24T07:15:40.000Z</time><ele>3633.8</ele></trkpt><trkpt lat="46.446923" lon="10.618835"><time>2022-08-24T07:15:42.000Z</time><ele>3634</ele></trkpt><trkpt lat="46.446922" lon="10.618835"><time>2022-08-24T07:15:43.000Z</time><ele>3634</ele></trkpt><trkpt lat="46.446922" lon="10.618835"><time>2022-08-24T07:15:44.000Z</time><ele>3634.2</ele></trkpt><trkpt lat="46.446921" lon="10.618835"><time>2022-08-24T07:15:50.000Z</time><ele>3635.2</ele></trkpt><trkpt lat="46.446917" lon="10.618835"><time>2022-08-24T07:16:03.000Z</time><ele>3636.2</ele></trkpt><trkpt lat="46.446914" lon="10.618836"><time>2022-08-24T07:16:12.000Z</time><ele>3637.2</ele></trkpt><trkpt lat="46.446911" lon="10.618836"><time>2022-08-24T07:16:22.000Z</time><ele>3638.4</ele></trkpt><trkpt lat="46.446906" lon="10.618836"><time>2022-08-24T07:16:34.000Z</time><ele>3639.4</ele></trkpt><trkpt lat="46.446901" lon="10.618837"><time>2022-08-24T07:16:46.000Z</time><ele>3640.6</ele></trkpt><trkpt lat="46.446898" lon="10.618837"><time>2022-08-24T07:16:54.000Z</time><ele>3641.6</ele></trkpt><trkpt lat="46.446893" lon="10.618836"><time>2022-08-24T07:17:05.000Z</time><ele>3642.6</ele></trkpt><trkpt lat="46.446889" lon="10.618836"><time>2022-08-24T07:17:13.000Z</time><ele>3643.6</ele></trkpt><trkpt lat="46.446883" lon="10.618836"><time>2022-08-24T07:17:26.000Z</time><ele>3644.6</ele></trkpt><trkpt lat="46.446877" lon="10.618835"><time>2022-08-24T07:17:37.000Z</time><ele>3645.8</ele></trkpt><trkpt lat="46.446871" lon="10.618835"><time>2022-08-24T07:17:48.000Z</time><ele>3646.8</ele></trkpt><trkpt lat="46.446861" lon="10.618834"><time>2022-08-24T07:18:06.000Z</time><ele>3647.4</ele></trkpt><trkpt lat="46.446859" lon="10.618834"><time>2022-08-24T07:18:10.000Z</time><ele>3647.6</ele></trkpt><trkpt lat="46.446848" lon="10.618833"><time>2022-08-24T07:18:29.000Z</time><ele>3647.8</ele></trkpt><trkpt lat="46.446843" lon="10.618832"><time>2022-08-24T07:18:38.000Z</time><ele>3649</ele></trkpt><trkpt lat="46.446838" lon="10.618831"><time>2022-08-24T07:18:47.000Z</time><ele>3649.8</ele></trkpt><trkpt lat="46.446838" lon="10.618831"><time>2022-08-24T07:18:48.000Z</time><ele>3650</ele></trkpt><trkpt lat="46.446834" lon="10.61883"><time>2022-08-24T07:18:54.000Z</time><ele>3651</ele></trkpt><trkpt lat="46.446829" lon="10.618829"><time>2022-08-24T07:19:03.000Z</time><ele>3652</ele></trkpt><trkpt lat="46.446822" lon="10.618828"><time>2022-08-24T07:19:15.000Z</time><ele>3653.2</ele></trkpt><trkpt lat="46.446816" lon="10.618826"><time>2022-08-24T07:19:24.000Z</time><ele>3654.2</ele></trkpt><trkpt lat="46.446812" lon="10.618825"><time>2022-08-24T07:19:31.000Z</time><ele>3655.2</ele></trkpt><trkpt lat="46.446811" lon="10.618825"><time>2022-08-24T07:19:32.000Z</time><ele>3655.2</ele></trkpt><trkpt lat="46.446809" lon="10.618824"><time>2022-08-24T07:19:36.000Z</time><ele>3655.6</ele></trkpt><trkpt lat="46.446804" lon="10.618823"><time>2022-08-24T07:19:43.000Z</time><ele>3656.4</ele></trkpt><trkpt lat="46.4468" lon="10.618821"><time>2022-08-24T07:19:50.000Z</time><ele>3656.8</ele></trkpt><trkpt lat="46.446796" lon="10.61882"><time>2022-08-24T07:19:56.000Z</time><ele>3657.4</ele></trkpt><trkpt lat="46.446791" lon="10.618818"><time>2022-08-24T07:20:04.000Z</time><ele>3658.6</ele></trkpt><trkpt lat="46.446783" lon="10.618815"><time>2022-08-24T07:20:16.000Z</time><ele>3659.8</ele></trkpt><trkpt lat="46.446775" lon="10.618812"><time>2022-08-24T07:20:28.000Z</time><ele>3660.8</ele></trkpt><trkpt lat="46.446775" lon="10.618811"><time>2022-08-24T07:20:29.000Z</time><ele>3660.8</ele></trkpt><trkpt lat="46.446771" lon="10.61881"><time>2022-08-24T07:20:35.000Z</time><ele>3661.6</ele></trkpt><trkpt lat="46.446769" lon="10.618809"><time>2022-08-24T07:20:37.000Z</time><ele>3661.8</ele></trkpt><trkpt lat="46.446761" lon="10.618805"><time>2022-08-24T07:20:49.000Z</time><ele>3663</ele></trkpt><trkpt lat="46.446759" lon="10.618804"><time>2022-08-24T07:20:53.000Z</time><ele>3663.4</ele></trkpt><trkpt lat="46.446753" lon="10.618801"><time>2022-08-24T07:21:01.000Z</time><ele>3664</ele></trkpt><trkpt lat="46.446749" lon="10.618798"><time>2022-08-24T07:21:07.000Z</time><ele>3664</ele></trkpt><trkpt lat="46.446743" lon="10.618795"><time>2022-08-24T07:21:15.000Z</time><ele>3665.2</ele></trkpt><trkpt lat="46.446735" lon="10.618789"><time>2022-08-24T07:21:27.000Z</time><ele>3666.2</ele></trkpt><trkpt lat="46.44672" lon="10.618777"><time>2022-08-24T07:21:48.000Z</time><ele>3667.2</ele></trkpt><trkpt lat="46.446719" lon="10.618777"><time>2022-08-24T07:21:49.000Z</time><ele>3667.2</ele></trkpt><trkpt lat="46.446707" lon="10.618766"><time>2022-08-24T07:22:04.000Z</time><ele>3667.4</ele></trkpt><trkpt lat="46.446703" lon="10.618761"><time>2022-08-24T07:22:10.000Z</time><ele>3667.2</ele></trkpt><trkpt lat="46.446699" lon="10.618757"><time>2022-08-24T07:22:15.000Z</time><ele>3667</ele></trkpt><trkpt lat="46.446693" lon="10.618751"><time>2022-08-24T07:22:22.000Z</time><ele>3666.2</ele></trkpt><trkpt lat="46.446692" lon="10.61875"><time>2022-08-24T07:22:23.000Z</time><ele>3666.2</ele></trkpt><trkpt lat="46.446685" lon="10.618741"><time>2022-08-24T07:22:32.000Z</time><ele>3666.2</ele></trkpt><trkpt lat="46.446682" lon="10.618737"><time>2022-08-24T07:22:36.000Z</time><ele>3666.2</ele></trkpt><trkpt lat="46.446677" lon="10.618731"><time>2022-08-24T07:22:43.000Z</time><ele>3666</ele></trkpt><trkpt lat="46.446674" lon="10.618727"><time>2022-08-24T07:22:47.000Z</time><ele>3665.8</ele></trkpt><trkpt lat="46.446666" lon="10.618717"><time>2022-08-24T07:22:57.000Z</time><ele>3666.4</ele></trkpt><trkpt lat="46.446665" lon="10.618716"><time>2022-08-24T07:22:58.000Z</time><ele>3666.6</ele></trkpt><trkpt lat="46.446664" lon="10.618714"><time>2022-08-24T07:23:00.000Z</time><ele>3666.8</ele></trkpt><trkpt lat="46.446662" lon="10.618711"><time>2022-08-24T07:23:03.000Z</time><ele>3667</ele></trkpt><trkpt lat="46.44666" lon="10.618709"><time>2022-08-24T07:23:05.000Z</time><ele>3667</ele></trkpt><trkpt lat="46.446657" lon="10.618706"><time>2022-08-24T07:23:09.000Z</time><ele>3667</ele></trkpt><trkpt lat="46.44665" lon="10.618697"><time>2022-08-24T07:23:18.000Z</time><ele>3666.8</ele></trkpt><trkpt lat="46.446644" lon="10.618689"><time>2022-08-24T07:23:27.000Z</time><ele>3666.6</ele></trkpt><trkpt lat="46.446634" lon="10.618676"><time>2022-08-24T07:23:41.000Z</time><ele>3666</ele></trkpt><trkpt lat="46.446633" lon="10.618675"><time>2022-08-24T07:23:43.000Z</time><ele>3666.2</ele></trkpt><trkpt lat="46.446622" lon="10.618661"><time>2022-08-24T07:23:59.000Z</time><ele>3666.2</ele></trkpt><trkpt lat="46.446604" lon="10.618638"><time>2022-08-24T07:24:27.000Z</time><ele>3666.2</ele></trkpt><trkpt lat="46.446602" lon="10.618635"><time>2022-08-24T07:24:30.000Z</time><ele>3666.2</ele></trkpt><trkpt lat="46.446597" lon="10.618628"><time>2022-08-24T07:24:39.000Z</time><ele>3666.2</ele></trkpt><trkpt lat="46.446594" lon="10.618625"><time>2022-08-24T07:24:43.000Z</time><ele>3666.2</ele></trkpt><trkpt lat="46.446592" lon="10.618623"><time>2022-08-24T07:24:46.000Z</time><ele>3666.2</ele></trkpt><trkpt lat="46.446591" lon="10.61862"><time>2022-08-24T07:24:49.000Z</time><ele>3666.2</ele></trkpt><trkpt lat="46.446572" lon="10.618597"><time>2022-08-24T07:25:19.000Z</time><ele>3666.2</ele></trkpt><trkpt lat="46.446568" lon="10.618592"><time>2022-08-24T07:25:25.000Z</time><ele>3666.2</ele></trkpt><trkpt lat="46.446566" lon="10.618589"><time>2022-08-24T07:25:28.000Z</time><ele>3666.2</ele></trkpt><trkpt lat="46.446565" lon="10.618587"><time>2022-08-24T07:25:31.000Z</time><ele>3666.2</ele></trkpt><trkpt lat="46.446564" lon="10.618586"><time>2022-08-24T07:25:32.000Z</time><ele>3666.2</ele></trkpt><trkpt lat="46.446562" lon="10.618583"><time>2022-08-24T07:25:35.000Z</time><ele>3666.2</ele></trkpt><trkpt lat="46.446553" lon="10.618569"><time>2022-08-24T07:25:52.000Z</time><ele>3666.2</ele></trkpt><trkpt lat="46.446545" lon="10.618556"><time>2022-08-24T07:26:08.000Z</time><ele>3666.2</ele></trkpt><trkpt lat="46.446535" lon="10.618543"><time>2022-08-24T07:26:25.000Z</time><ele>3666.2</ele></trkpt><trkpt lat="46.446532" lon="10.618539"><time>2022-08-24T07:26:30.000Z</time><ele>3666.2</ele></trkpt><trkpt lat="46.446529" lon="10.618535"><time>2022-08-24T07:26:35.000Z</time><ele>3666.2</ele></trkpt><trkpt lat="46.446523" lon="10.618528"><time>2022-08-24T07:26:46.000Z</time><ele>3673</ele></trkpt><trkpt lat="46.446521" lon="10.618527"><time>2022-08-24T07:26:48.000Z</time><ele>3673</ele></trkpt><trkpt lat="46.44652" lon="10.618525"><time>2022-08-24T07:26:50.000Z</time><ele>3673.2</ele></trkpt><trkpt lat="46.446517" lon="10.618522"><time>2022-08-24T07:26:55.000Z</time><ele>3674.2</ele></trkpt><trkpt lat="46.446511" lon="10.618517"><time>2022-08-24T07:27:03.000Z</time><ele>3675.2</ele></trkpt><trkpt lat="46.446505" lon="10.618511"><time>2022-08-24T07:27:12.000Z</time><ele>3676.4</ele></trkpt><trkpt lat="46.446501" lon="10.618508"><time>2022-08-24T07:27:18.000Z</time><ele>3677</ele></trkpt><trkpt lat="46.446499" lon="10.618506"><time>2022-08-24T07:27:21.000Z</time><ele>3677.2</ele></trkpt><trkpt lat="46.446497" lon="10.618504"><time>2022-08-24T07:27:24.000Z</time><ele>3677.4</ele></trkpt><trkpt lat="46.44649" lon="10.618497"><time>2022-08-24T07:27:34.000Z</time><ele>3678.4</ele></trkpt><trkpt lat="46.446483" lon="10.618491"><time>2022-08-24T07:27:43.000Z</time><ele>3679.4</ele></trkpt><trkpt lat="46.446476" lon="10.618484"><time>2022-08-24T07:27:53.000Z</time><ele>3680.6</ele></trkpt><trkpt lat="46.446469" lon="10.618477"><time>2022-08-24T07:28:00.000Z</time><ele>3681.6</ele></trkpt><trkpt lat="46.446463" lon="10.618471"><time>2022-08-24T07:28:08.000Z</time><ele>3682.6</ele></trkpt><trkpt lat="46.446456" lon="10.618465"><time>2022-08-24T07:28:16.000Z</time><ele>3683.8</ele></trkpt><trkpt lat="46.44645" lon="10.61846"><time>2022-08-24T07:28:23.000Z</time><ele>3684.8</ele></trkpt><trkpt lat="46.446445" lon="10.618455"><time>2022-08-24T07:28:29.000Z</time><ele>3686</ele></trkpt><trkpt lat="46.446434" lon="10.618446"><time>2022-08-24T07:28:41.000Z</time><ele>3687</ele></trkpt><trkpt lat="46.446429" lon="10.618443"><time>2022-08-24T07:28:46.000Z</time><ele>3688</ele></trkpt><trkpt lat="46.446422" lon="10.618437"><time>2022-08-24T07:28:55.000Z</time><ele>3689.2</ele></trkpt><trkpt lat="46.446401" lon="10.618421"><time>2022-08-24T07:29:16.000Z</time><ele>3689.4</ele></trkpt><trkpt lat="46.446394" lon="10.618416"><time>2022-08-24T07:29:23.000Z</time><ele>3689.2</ele></trkpt><trkpt lat="46.446383" lon="10.618407"><time>2022-08-24T07:29:35.000Z</time><ele>3689.6</ele></trkpt><trkpt lat="46.446371" lon="10.618398"><time>2022-08-24T07:29:49.000Z</time><ele>3689.2</ele></trkpt><trkpt lat="46.44636" lon="10.61839"><time>2022-08-24T07:30:01.000Z</time><ele>3689.2</ele></trkpt><trkpt lat="46.446357" lon="10.618388"><time>2022-08-24T07:30:04.000Z</time><ele>3689.2</ele></trkpt><trkpt lat="46.446356" lon="10.618386"><time>2022-08-24T07:30:06.000Z</time><ele>3689.2</ele></trkpt><trkpt lat="46.446353" lon="10.618384"><time>2022-08-24T07:30:09.000Z</time><ele>3689.2</ele></trkpt><trkpt lat="46.446349" lon="10.618381"><time>2022-08-24T07:30:14.000Z</time><ele>3689.2</ele></trkpt><trkpt lat="46.446344" lon="10.618378"><time>2022-08-24T07:30:19.000Z</time><ele>3689.2</ele></trkpt><trkpt lat="46.446334" lon="10.618371"><time>2022-08-24T07:30:31.000Z</time><ele>3689.2</ele></trkpt><trkpt lat="46.446332" lon="10.61837"><time>2022-08-24T07:30:34.000Z</time><ele>3689.2</ele></trkpt><trkpt lat="46.446331" lon="10.618369"><time>2022-08-24T07:30:36.000Z</time><ele>3689.2</ele></trkpt><trkpt lat="46.446327" lon="10.618367"><time>2022-08-24T07:30:39.000Z</time><ele>3689.2</ele></trkpt><trkpt lat="46.446323" lon="10.618364"><time>2022-08-24T07:30:44.000Z</time><ele>3689.2</ele></trkpt><trkpt lat="46.446319" lon="10.618361"><time>2022-08-24T07:30:49.000Z</time><ele>3689.2</ele></trkpt><trkpt lat="46.446317" lon="10.61836"><time>2022-08-24T07:30:52.000Z</time><ele>3689.2</ele></trkpt><trkpt lat="46.446315" lon="10.618358"><time>2022-08-24T07:30:54.000Z</time><ele>3689.2</ele></trkpt><trkpt lat="46.446281" lon="10.618334"><time>2022-08-24T07:31:38.000Z</time><ele>3689.2</ele></trkpt><trkpt lat="46.44628" lon="10.618333"><time>2022-08-24T07:31:40.000Z</time><ele>3689.2</ele></trkpt><trkpt lat="46.446278" lon="10.618331"><time>2022-08-24T07:31:43.000Z</time><ele>3689.2</ele></trkpt><trkpt lat="46.446275" lon="10.618329"><time>2022-08-24T07:31:47.000Z</time><ele>3689.2</ele></trkpt><trkpt lat="46.446266" lon="10.618323"><time>2022-08-24T07:31:59.000Z</time><ele>3689.2</ele></trkpt><trkpt lat="46.446257" lon="10.618317"><time>2022-08-24T07:32:12.000Z</time><ele>3689.2</ele></trkpt><trkpt lat="46.446237" lon="10.618305"><time>2022-08-24T07:32:38.000Z</time><ele>3689.2</ele></trkpt><trkpt lat="46.44623" lon="10.618302"><time>2022-08-24T07:32:48.000Z</time><ele>3689.2</ele></trkpt><trkpt lat="46.446227" lon="10.6183"><time>2022-08-24T07:32:52.000Z</time><ele>3694.6</ele></trkpt><trkpt lat="46.446224" lon="10.618299"><time>2022-08-24T07:32:56.000Z</time><ele>3694.8</ele></trkpt><trkpt lat="46.44622" lon="10.618298"><time>2022-08-24T07:33:01.000Z</time><ele>3695.8</ele></trkpt><trkpt lat="46.446212" lon="10.618295"><time>2022-08-24T07:33:12.000Z</time><ele>3696.8</ele></trkpt><trkpt lat="46.446195" lon="10.618292"><time>2022-08-24T07:33:37.000Z</time><ele>3697</ele></trkpt><trkpt lat="46.446192" lon="10.618291"><time>2022-08-24T07:33:42.000Z</time><ele>3697</ele></trkpt><trkpt lat="46.446184" lon="10.61829"><time>2022-08-24T07:33:54.000Z</time><ele>3697.8</ele></trkpt><trkpt lat="46.446183" lon="10.61829"><time>2022-08-24T07:33:56.000Z</time><ele>3697.8</ele></trkpt><trkpt lat="46.44618" lon="10.618289"><time>2022-08-24T07:34:00.000Z</time><ele>3698.2</ele></trkpt><trkpt lat="46.446178" lon="10.618289"><time>2022-08-24T07:34:03.000Z</time><ele>3698.6</ele></trkpt><trkpt lat="46.446177" lon="10.618289"><time>2022-08-24T07:34:05.000Z</time><ele>3699</ele></trkpt><trkpt lat="46.446173" lon="10.618289"><time>2022-08-24T07:34:10.000Z</time><ele>3700</ele></trkpt><trkpt lat="46.446171" lon="10.618289"><time>2022-08-24T07:34:14.000Z</time><ele>3700.2</ele></trkpt><trkpt lat="46.44617" lon="10.618289"><time>2022-08-24T07:34:16.000Z</time><ele>3700.2</ele></trkpt><trkpt lat="46.446168" lon="10.618289"><time>2022-08-24T07:34:18.000Z</time><ele>3700.2</ele></trkpt><trkpt lat="46.446166" lon="10.618289"><time>2022-08-24T07:34:21.000Z</time><ele>3700.2</ele></trkpt><trkpt lat="46.44616" lon="10.618289"><time>2022-08-24T07:34:31.000Z</time><ele>3701.2</ele></trkpt><trkpt lat="46.446157" lon="10.61829"><time>2022-08-24T07:34:36.000Z</time><ele>3701.6</ele></trkpt><trkpt lat="46.446154" lon="10.61829"><time>2022-08-24T07:34:40.000Z</time><ele>3702</ele></trkpt><trkpt lat="46.446154" lon="10.61829"><time>2022-08-24T07:34:41.000Z</time><ele>3702.2</ele></trkpt><trkpt lat="46.446152" lon="10.61829"><time>2022-08-24T07:34:44.000Z</time><ele>3703.2</ele></trkpt><trkpt lat="46.446145" lon="10.618292"><time>2022-08-24T07:34:55.000Z</time><ele>3704.2</ele></trkpt><trkpt lat="46.446144" lon="10.618293"><time>2022-08-24T07:34:57.000Z</time><ele>3704.2</ele></trkpt><trkpt lat="46.446139" lon="10.618295"><time>2022-08-24T07:35:05.000Z</time><ele>3705.4</ele></trkpt><trkpt lat="46.446137" lon="10.618296"><time>2022-08-24T07:35:08.000Z</time><ele>3705.8</ele></trkpt><trkpt lat="46.446135" lon="10.618297"><time>2022-08-24T07:35:11.000Z</time><ele>3706.4</ele></trkpt><trkpt lat="46.446134" lon="10.618297"><time>2022-08-24T07:35:13.000Z</time><ele>3706.4</ele></trkpt><trkpt lat="46.446127" lon="10.618301"><time>2022-08-24T07:35:25.000Z</time><ele>3706.8</ele></trkpt><trkpt lat="46.446124" lon="10.618303"><time>2022-08-24T07:35:29.000Z</time><ele>3707.6</ele></trkpt><trkpt lat="46.446119" lon="10.618306"><time>2022-08-24T07:35:38.000Z</time><ele>3708</ele></trkpt><trkpt lat="46.446118" lon="10.618307"><time>2022-08-24T07:35:40.000Z</time><ele>3708.8</ele></trkpt><trkpt lat="46.446112" lon="10.618312"><time>2022-08-24T07:35:50.000Z</time><ele>3710</ele></trkpt><trkpt lat="46.44611" lon="10.618314"><time>2022-08-24T07:35:54.000Z</time><ele>3710.8</ele></trkpt><trkpt lat="46.446109" lon="10.618315"><time>2022-08-24T07:35:55.000Z</time><ele>3711</ele></trkpt><trkpt lat="46.446106" lon="10.618317"><time>2022-08-24T07:36:00.000Z</time><ele>3711.4</ele></trkpt><trkpt lat="46.446104" lon="10.618319"><time>2022-08-24T07:36:03.000Z</time><ele>3712</ele></trkpt><trkpt lat="46.4461" lon="10.618323"><time>2022-08-24T07:36:09.000Z</time><ele>3711.8</ele></trkpt><trkpt lat="46.446099" lon="10.618324"><time>2022-08-24T07:36:11.000Z</time><ele>3711.8</ele></trkpt><trkpt lat="46.446095" lon="10.618327"><time>2022-08-24T07:36:17.000Z</time><ele>3711.8</ele></trkpt><trkpt lat="46.446092" lon="10.61833"><time>2022-08-24T07:36:22.000Z</time><ele>3711.6</ele></trkpt><trkpt lat="46.446088" lon="10.618333"><time>2022-08-24T07:36:27.000Z</time><ele>3711.6</ele></trkpt><trkpt lat="46.446082" lon="10.618338"><time>2022-08-24T07:36:36.000Z</time><ele>3711.6</ele></trkpt><trkpt lat="46.446074" lon="10.618346"><time>2022-08-24T07:36:49.000Z</time><ele>3711.4</ele></trkpt><trkpt lat="46.446067" lon="10.618352"><time>2022-08-24T07:37:00.000Z</time><ele>3711.2</ele></trkpt><trkpt lat="46.446064" lon="10.618354"><time>2022-08-24T07:37:05.000Z</time><ele>3711.2</ele></trkpt><trkpt lat="46.446062" lon="10.618355"><time>2022-08-24T07:37:07.000Z</time><ele>3711.2</ele></trkpt><trkpt lat="46.446043" lon="10.618369"><time>2022-08-24T07:37:38.000Z</time><ele>3711.2</ele></trkpt><trkpt lat="46.445998" lon="10.618383"><time>2022-08-24T07:38:43.000Z</time><ele>3711.2</ele></trkpt><trkpt lat="46.445996" lon="10.618383"><time>2022-08-24T07:38:45.000Z</time><ele>3711.2</ele></trkpt><trkpt lat="46.44599" lon="10.618383"><time>2022-08-24T07:38:53.000Z</time><ele>3711.2</ele></trkpt><trkpt lat="46.445987" lon="10.618383"><time>2022-08-24T07:38:58.000Z</time><ele>3714</ele></trkpt><trkpt lat="46.44598" lon="10.618382"><time>2022-08-24T07:39:06.000Z</time><ele>3715</ele></trkpt><trkpt lat="46.445977" lon="10.618382"><time>2022-08-24T07:39:10.000Z</time><ele>3715.6</ele></trkpt><trkpt lat="46.445952" lon="10.61838"><time>2022-08-24T07:39:39.000Z</time><ele>3715.2</ele></trkpt><trkpt lat="46.445949" lon="10.61838"><time>2022-08-24T07:39:43.000Z</time><ele>3716</ele></trkpt><trkpt lat="46.445945" lon="10.61838"><time>2022-08-24T07:39:47.000Z</time><ele>3716</ele></trkpt><trkpt lat="46.445936" lon="10.618379"><time>2022-08-24T07:39:57.000Z</time><ele>3715.6</ele></trkpt><trkpt lat="46.445929" lon="10.618378"><time>2022-08-24T07:40:05.000Z</time><ele>3715</ele></trkpt><trkpt lat="46.44592" lon="10.618377"><time>2022-08-24T07:40:14.000Z</time><ele>3716</ele></trkpt><trkpt lat="46.445911" lon="10.618375"><time>2022-08-24T07:40:23.000Z</time><ele>3716.8</ele></trkpt><trkpt lat="46.445909" lon="10.618375"><time>2022-08-24T07:40:25.000Z</time><ele>3717.2</ele></trkpt><trkpt lat="46.445904" lon="10.618374"><time>2022-08-24T07:40:30.000Z</time><ele>3718</ele></trkpt><trkpt lat="46.445903" lon="10.618374"><time>2022-08-24T07:40:31.000Z</time><ele>3718.2</ele></trkpt><trkpt lat="46.445901" lon="10.618373"><time>2022-08-24T07:40:33.000Z</time><ele>3718.4</ele></trkpt><trkpt lat="46.445899" lon="10.618373"><time>2022-08-24T07:40:35.000Z</time><ele>3718.6</ele></trkpt><trkpt lat="46.445894" lon="10.618371"><time>2022-08-24T07:40:40.000Z</time><ele>3719.6</ele></trkpt><trkpt lat="46.445879" lon="10.618367"><time>2022-08-24T07:40:54.000Z</time><ele>3720.4</ele></trkpt><trkpt lat="46.445876" lon="10.618366"><time>2022-08-24T07:40:57.000Z</time><ele>3720.8</ele></trkpt><trkpt lat="46.445866" lon="10.618363"><time>2022-08-24T07:41:06.000Z</time><ele>3721</ele></trkpt><trkpt lat="46.445862" lon="10.618362"><time>2022-08-24T07:41:09.000Z</time><ele>3721.4</ele></trkpt><trkpt lat="46.445859" lon="10.618361"><time>2022-08-24T07:41:12.000Z</time><ele>3721.8</ele></trkpt><trkpt lat="46.445847" lon="10.618357"><time>2022-08-24T07:41:22.000Z</time><ele>3722.8</ele></trkpt><trkpt lat="46.445837" lon="10.618353"><time>2022-08-24T07:41:30.000Z</time><ele>3724</ele></trkpt><trkpt lat="46.445819" lon="10.618346"><time>2022-08-24T07:41:44.000Z</time><ele>3725</ele></trkpt><trkpt lat="46.445802" lon="10.618339"><time>2022-08-24T07:41:57.000Z</time><ele>3726.2</ele></trkpt><trkpt lat="46.445795" lon="10.618336"><time>2022-08-24T07:42:02.000Z</time><ele>3726.8</ele></trkpt><trkpt lat="46.445792" lon="10.618335"><time>2022-08-24T07:42:04.000Z</time><ele>3727.2</ele></trkpt><trkpt lat="46.445782" lon="10.618331"><time>2022-08-24T07:42:11.000Z</time><ele>3728.4</ele></trkpt><trkpt lat="46.445767" lon="10.618325"><time>2022-08-24T07:42:21.000Z</time><ele>3729.4</ele></trkpt><trkpt lat="46.445759" lon="10.618322"><time>2022-08-24T07:42:27.000Z</time><ele>3730.6</ele></trkpt><trkpt lat="46.445743" lon="10.618316"><time>2022-08-24T07:42:37.000Z</time><ele>3731.6</ele></trkpt><trkpt lat="46.445728" lon="10.61831"><time>2022-08-24T07:42:47.000Z</time><ele>3732.8</ele></trkpt><trkpt lat="46.445711" lon="10.618302"><time>2022-08-24T07:42:58.000Z</time><ele>3733.8</ele></trkpt><trkpt lat="46.445664" lon="10.618281"><time>2022-08-24T07:43:27.000Z</time><ele>3734.4</ele></trkpt><trkpt lat="46.445659" lon="10.618278"><time>2022-08-24T07:43:30.000Z</time><ele>3735</ele></trkpt><trkpt lat="46.445651" lon="10.618275"><time>2022-08-24T07:43:35.000Z</time><ele>3734.8</ele></trkpt><trkpt lat="46.44564" lon="10.618269"><time>2022-08-24T07:43:42.000Z</time><ele>3734.4</ele></trkpt><trkpt lat="46.445634" lon="10.618266"><time>2022-08-24T07:43:46.000Z</time><ele>3734.4</ele></trkpt><trkpt lat="46.445628" lon="10.618263"><time>2022-08-24T07:43:50.000Z</time><ele>3734.2</ele></trkpt><trkpt lat="46.445606" lon="10.618253"><time>2022-08-24T07:44:04.000Z</time><ele>3734.4</ele></trkpt><trkpt lat="46.445603" lon="10.618252"><time>2022-08-24T07:44:06.000Z</time><ele>3734.4</ele></trkpt><trkpt lat="46.445597" lon="10.618249"><time>2022-08-24T07:44:10.000Z</time><ele>3734.4</ele></trkpt><trkpt lat="46.445593" lon="10.618247"><time>2022-08-24T07:44:13.000Z</time><ele>3734.4</ele></trkpt><trkpt lat="46.44559" lon="10.618245"><time>2022-08-24T07:44:15.000Z</time><ele>3734.4</ele></trkpt><trkpt lat="46.445585" lon="10.618243"><time>2022-08-24T07:44:18.000Z</time><ele>3734.4</ele></trkpt><trkpt lat="46.445581" lon="10.618241"><time>2022-08-24T07:44:21.000Z</time><ele>3734.4</ele></trkpt><trkpt lat="46.445578" lon="10.61824"><time>2022-08-24T07:44:23.000Z</time><ele>3734.4</ele></trkpt><trkpt lat="46.445533" lon="10.618218"><time>2022-08-24T07:44:54.000Z</time><ele>3734.4</ele></trkpt><trkpt lat="46.445519" lon="10.618211"><time>2022-08-24T07:45:04.000Z</time><ele>3737.4</ele></trkpt><trkpt lat="46.445481" lon="10.618191"><time>2022-08-24T07:45:32.000Z</time><ele>3738.6</ele></trkpt><trkpt lat="46.445474" lon="10.618188"><time>2022-08-24T07:45:38.000Z</time><ele>3739.6</ele></trkpt><trkpt lat="46.445466" lon="10.618183"><time>2022-08-24T07:45:43.000Z</time><ele>3740.8</ele></trkpt><trkpt lat="46.44546" lon="10.61818"><time>2022-08-24T07:45:47.000Z</time><ele>3741.6</ele></trkpt><trkpt lat="46.445457" lon="10.618179"><time>2022-08-24T07:45:49.000Z</time><ele>3742</ele></trkpt><trkpt lat="46.44545" lon="10.618175"><time>2022-08-24T07:45:54.000Z</time><ele>3743.2</ele></trkpt><trkpt lat="46.445448" lon="10.618174"><time>2022-08-24T07:45:55.000Z</time><ele>3743.4</ele></trkpt><trkpt lat="46.445437" lon="10.618168"><time>2022-08-24T07:46:03.000Z</time><ele>3744.2</ele></trkpt><trkpt lat="46.445435" lon="10.618168"><time>2022-08-24T07:46:04.000Z</time><ele>3744.2</ele></trkpt><trkpt lat="46.445431" lon="10.618165"><time>2022-08-24T07:46:07.000Z</time><ele>3745</ele></trkpt><trkpt lat="46.445429" lon="10.618165"><time>2022-08-24T07:46:08.000Z</time><ele>3745.4</ele></trkpt><trkpt lat="46.445428" lon="10.618164"><time>2022-08-24T07:46:09.000Z</time><ele>3745.6</ele></trkpt><trkpt lat="46.445423" lon="10.618162"><time>2022-08-24T07:46:12.000Z</time><ele>3745.8</ele></trkpt><trkpt lat="46.445422" lon="10.618161"><time>2022-08-24T07:46:13.000Z</time><ele>3745.8</ele></trkpt><trkpt lat="46.44542" lon="10.61816"><time>2022-08-24T07:46:14.000Z</time><ele>3745.8</ele></trkpt><trkpt lat="46.445417" lon="10.618159"><time>2022-08-24T07:46:16.000Z</time><ele>3746.2</ele></trkpt><trkpt lat="46.445416" lon="10.618158"><time>2022-08-24T07:46:17.000Z</time><ele>3746.8</ele></trkpt><trkpt lat="46.445408" lon="10.618154"><time>2022-08-24T07:46:22.000Z</time><ele>3747.8</ele></trkpt><trkpt lat="46.445402" lon="10.618151"><time>2022-08-24T07:46:26.000Z</time><ele>3748.8</ele></trkpt><trkpt lat="46.44539" lon="10.618145"><time>2022-08-24T07:46:34.000Z</time><ele>3749.8</ele></trkpt><trkpt lat="46.445377" lon="10.618139"><time>2022-08-24T07:46:42.000Z</time><ele>3750.8</ele></trkpt><trkpt lat="46.445371" lon="10.618136"><time>2022-08-24T07:46:46.000Z</time><ele>3751.4</ele></trkpt><trkpt lat="46.445365" lon="10.618132"><time>2022-08-24T07:46:50.000Z</time><ele>3752</ele></trkpt><trkpt lat="46.44535" lon="10.618125"><time>2022-08-24T07:46:59.000Z</time><ele>3753</ele></trkpt><trkpt lat="46.445331" lon="10.618114"><time>2022-08-24T07:47:11.000Z</time><ele>3754</ele></trkpt><trkpt lat="46.445316" lon="10.618106"><time>2022-08-24T07:47:20.000Z</time><ele>3755</ele></trkpt><trkpt lat="46.44529" lon="10.61809"><time>2022-08-24T07:47:35.000Z</time><ele>3756.2</ele></trkpt><trkpt lat="46.445275" lon="10.61808"><time>2022-08-24T07:47:44.000Z</time><ele>3757.2</ele></trkpt><trkpt lat="46.445214" lon="10.618037"><time>2022-08-24T07:48:18.000Z</time><ele>3756</ele></trkpt><trkpt lat="46.445183" lon="10.618011"><time>2022-08-24T07:48:35.000Z</time><ele>3755.6</ele></trkpt><trkpt lat="46.445176" lon="10.618005"><time>2022-08-24T07:48:39.000Z</time><ele>3755.8</ele></trkpt><trkpt lat="46.445169" lon="10.617999"><time>2022-08-24T07:48:43.000Z</time><ele>3756</ele></trkpt><trkpt lat="46.445123" lon="10.61796"><time>2022-08-24T07:49:09.000Z</time><ele>3757</ele></trkpt><trkpt lat="46.445115" lon="10.617954"><time>2022-08-24T07:49:13.000Z</time><ele>3757.2</ele></trkpt><trkpt lat="46.445087" lon="10.61793"><time>2022-08-24T07:49:29.000Z</time><ele>3757.2</ele></trkpt><trkpt lat="46.445031" lon="10.617882"><time>2022-08-24T07:50:00.000Z</time><ele>3758.4</ele></trkpt><trkpt lat="46.445017" lon="10.617871"><time>2022-08-24T07:50:07.000Z</time><ele>3759.6</ele></trkpt><trkpt lat="46.445" lon="10.617856"><time>2022-08-24T07:50:16.000Z</time><ele>3760.6</ele></trkpt><trkpt lat="46.444992" lon="10.617849"><time>2022-08-24T07:50:20.000Z</time><ele>3761.6</ele></trkpt><trkpt lat="46.444991" lon="10.617847"><time>2022-08-24T07:50:21.000Z</time><ele>3761.8</ele></trkpt><trkpt lat="46.444987" lon="10.617844"><time>2022-08-24T07:50:23.000Z</time><ele>3762</ele></trkpt><trkpt lat="46.444981" lon="10.617839"><time>2022-08-24T07:50:26.000Z</time><ele>3762.4</ele></trkpt><trkpt lat="46.444975" lon="10.617834"><time>2022-08-24T07:50:29.000Z</time><ele>3762.8</ele></trkpt><trkpt lat="46.444938" lon="10.617801"><time>2022-08-24T07:50:48.000Z</time><ele>3763</ele></trkpt><trkpt lat="46.444929" lon="10.617792"><time>2022-08-24T07:50:53.000Z</time><ele>3764</ele></trkpt><trkpt lat="46.444857" lon="10.617725"><time>2022-08-24T07:51:30.000Z</time><ele>3763</ele></trkpt><trkpt lat="46.444817" lon="10.617687"><time>2022-08-24T07:51:52.000Z</time><ele>3764.4</ele></trkpt><trkpt lat="46.444802" lon="10.617674"><time>2022-08-24T07:52:00.000Z</time><ele>3764.6</ele></trkpt><trkpt lat="46.444797" lon="10.617669"><time>2022-08-24T07:52:03.000Z</time><ele>3764.8</ele></trkpt><trkpt lat="46.444795" lon="10.617667"><time>2022-08-24T07:52:04.000Z</time><ele>3765</ele></trkpt><trkpt lat="46.444789" lon="10.617662"><time>2022-08-24T07:52:07.000Z</time><ele>3765.4</ele></trkpt><trkpt lat="46.444761" lon="10.617636"><time>2022-08-24T07:52:23.000Z</time><ele>3764.4</ele></trkpt><trkpt lat="46.444746" lon="10.617622"><time>2022-08-24T07:52:31.000Z</time><ele>3764.4</ele></trkpt><trkpt lat="46.444743" lon="10.617619"><time>2022-08-24T07:52:33.000Z</time><ele>3764.4</ele></trkpt><trkpt lat="46.444739" lon="10.617616"><time>2022-08-24T07:52:35.000Z</time><ele>3764.4</ele></trkpt><trkpt lat="46.444736" lon="10.617612"><time>2022-08-24T07:52:38.000Z</time><ele>3764.4</ele></trkpt><trkpt lat="46.44473" lon="10.617608"><time>2022-08-24T07:52:40.000Z</time><ele>3764.4</ele></trkpt><trkpt lat="46.444727" lon="10.617604"><time>2022-08-24T07:52:42.000Z</time><ele>3764.4</ele></trkpt><trkpt lat="46.444723" lon="10.617601"><time>2022-08-24T07:52:44.000Z</time><ele>3764.4</ele></trkpt><trkpt lat="46.444714" lon="10.617593"><time>2022-08-24T07:52:49.000Z</time><ele>3764.4</ele></trkpt><trkpt lat="46.44469" lon="10.61757"><time>2022-08-24T07:53:03.000Z</time><ele>3764.4</ele></trkpt><trkpt lat="46.44467" lon="10.617551"><time>2022-08-24T07:53:15.000Z</time><ele>3764.4</ele></trkpt><trkpt lat="46.444655" lon="10.617538"><time>2022-08-24T07:53:24.000Z</time><ele>3764.4</ele></trkpt><trkpt lat="46.444627" lon="10.617512"><time>2022-08-24T07:53:41.000Z</time><ele>3764.4</ele></trkpt><trkpt lat="46.444624" lon="10.617509"><time>2022-08-24T07:53:43.000Z</time><ele>3764.4</ele></trkpt><trkpt lat="46.444618" lon="10.617503"><time>2022-08-24T07:53:47.000Z</time><ele>3764.4</ele></trkpt><trkpt lat="46.444567" lon="10.617455"><time>2022-08-24T07:54:20.000Z</time><ele>3764.4</ele></trkpt><trkpt lat="46.444546" lon="10.617436"><time>2022-08-24T07:54:34.000Z</time><ele>3764.4</ele></trkpt><trkpt lat="46.44454" lon="10.61743"><time>2022-08-24T07:54:38.000Z</time><ele>3764.4</ele></trkpt><trkpt lat="46.444464" lon="10.61736"><time>2022-08-24T07:55:31.000Z</time><ele>3764.4</ele></trkpt><trkpt lat="46.444428" lon="10.617328"><time>2022-08-24T07:55:57.000Z</time><ele>3764.4</ele></trkpt><trkpt lat="46.444404" lon="10.617306"><time>2022-08-24T07:56:15.000Z</time><ele>3764.4</ele></trkpt><trkpt lat="46.444391" lon="10.617294"><time>2022-08-24T07:56:25.000Z</time><ele>3764.4</ele></trkpt><trkpt lat="46.444363" lon="10.617269"><time>2022-08-24T07:56:47.000Z</time><ele>3764.4</ele></trkpt><trkpt lat="46.444358" lon="10.617265"><time>2022-08-24T07:56:51.000Z</time><ele>3764.4</ele></trkpt><trkpt lat="46.444341" lon="10.617249"><time>2022-08-24T07:57:06.000Z</time><ele>3764.4</ele></trkpt><trkpt lat="46.444331" lon="10.61724"><time>2022-08-24T07:57:13.000Z</time><ele>3764.4</ele></trkpt><trkpt lat="46.444319" lon="10.61723"><time>2022-08-24T07:57:23.000Z</time><ele>3764.4</ele></trkpt><trkpt lat="46.444309" lon="10.61722"><time>2022-08-24T07:57:32.000Z</time><ele>3764.4</ele></trkpt><trkpt lat="46.444302" lon="10.617214"><time>2022-08-24T07:57:38.000Z</time><ele>3764.4</ele></trkpt><trkpt lat="46.444297" lon="10.61721"><time>2022-08-24T07:57:42.000Z</time><ele>3764.4</ele></trkpt><trkpt lat="46.444282" lon="10.617196"><time>2022-08-24T07:57:56.000Z</time><ele>3764.4</ele></trkpt><trkpt lat="46.444222" lon="10.617143"><time>2022-08-24T07:58:52.000Z</time><ele>3764.4</ele></trkpt><trkpt lat="46.444205" lon="10.617126"><time>2022-08-24T07:59:10.000Z</time><ele>3764.4</ele></trkpt><trkpt lat="46.444189" lon="10.617112"><time>2022-08-24T07:59:26.000Z</time><ele>3764.4</ele></trkpt><trkpt lat="46.444178" lon="10.617102"><time>2022-08-24T07:59:38.000Z</time><ele>3764.4</ele></trkpt><trkpt lat="46.444109" lon="10.61704"><time>2022-08-24T08:00:57.000Z</time><ele>3764.4</ele></trkpt><trkpt lat="46.444079" lon="10.617013"><time>2022-08-24T08:01:34.000Z</time><ele>3764.4</ele></trkpt><trkpt lat="46.444073" lon="10.617008"><time>2022-08-24T08:01:42.000Z</time><ele>3764.4</ele></trkpt><trkpt lat="46.444066" lon="10.617002"><time>2022-08-24T08:01:51.000Z</time><ele>3764.4</ele></trkpt><trkpt lat="46.444064" lon="10.617"><time>2022-08-24T08:01:54.000Z</time><ele>3764.4</ele></trkpt><trkpt lat="46.444058" lon="10.616994"><time>2022-08-24T08:02:02.000Z</time><ele>3764.4</ele></trkpt><trkpt lat="46.444044" lon="10.616982"><time>2022-08-24T08:02:21.000Z</time><ele>3764.4</ele></trkpt><trkpt lat="46.444038" lon="10.616977"><time>2022-08-24T08:02:29.000Z</time><ele>3764.4</ele></trkpt><trkpt lat="46.44403" lon="10.61697"><time>2022-08-24T08:02:40.000Z</time><ele>3764.4</ele></trkpt><trkpt lat="46.444026" lon="10.616966"><time>2022-08-24T08:02:46.000Z</time><ele>3764.4</ele></trkpt><trkpt lat="46.444023" lon="10.616964"><time>2022-08-24T08:02:50.000Z</time><ele>3764.4</ele></trkpt><trkpt lat="46.444004" lon="10.616947"><time>2022-08-24T08:03:19.000Z</time><ele>3764.4</ele></trkpt><trkpt lat="46.443994" lon="10.616939"><time>2022-08-24T08:03:33.000Z</time><ele>3764.4</ele></trkpt><trkpt lat="46.443962" lon="10.616912"><time>2022-08-24T08:04:26.000Z</time><ele>3764.4</ele></trkpt><trkpt lat="46.443961" lon="10.616911"><time>2022-08-24T08:04:28.000Z</time><ele>3764.4</ele></trkpt><trkpt lat="46.443959" lon="10.61691"><time>2022-08-24T08:04:31.000Z</time><ele>3764.4</ele></trkpt><trkpt lat="46.443943" lon="10.616896"><time>2022-08-24T08:04:59.000Z</time><ele>3764.4</ele></trkpt><trkpt lat="46.443933" lon="10.616887"><time>2022-08-24T08:05:18.000Z</time><ele>3764.4</ele></trkpt><trkpt lat="46.443931" lon="10.616885"><time>2022-08-24T08:05:22.000Z</time><ele>3764.4</ele></trkpt><trkpt lat="46.443926" lon="10.616881"><time>2022-08-24T08:05:32.000Z</time><ele>3764.4</ele></trkpt><trkpt lat="46.443919" lon="10.616875"><time>2022-08-24T08:05:45.000Z</time><ele>3764.4</ele></trkpt><trkpt lat="46.443917" lon="10.616873"><time>2022-08-24T08:05:51.000Z</time><ele>3764.4</ele></trkpt><trkpt lat="46.443912" lon="10.616869"><time>2022-08-24T08:05:59.000Z</time><ele>3764.4</ele></trkpt><trkpt lat="46.443906" lon="10.616863"><time>2022-08-24T08:06:12.000Z</time><ele>3764.4</ele></trkpt><trkpt lat="46.443904" lon="10.616862"><time>2022-08-24T08:06:16.000Z</time><ele>3764.4</ele></trkpt><trkpt lat="46.4439" lon="10.616858"><time>2022-08-24T08:06:24.000Z</time><ele>3764.4</ele></trkpt><trkpt lat="46.443893" lon="10.616853"><time>2022-08-24T08:06:38.000Z</time><ele>3764.4</ele></trkpt><trkpt lat="46.443892" lon="10.616851"><time>2022-08-24T08:06:41.000Z</time><ele>3764.4</ele></trkpt><trkpt lat="46.443887" lon="10.616847"><time>2022-08-24T08:06:52.000Z</time><ele>3764.4</ele></trkpt><trkpt lat="46.443875" lon="10.616837"><time>2022-08-24T08:07:17.000Z</time><ele>3764.4</ele></trkpt><trkpt lat="46.443874" lon="10.616835"><time>2022-08-24T08:07:21.000Z</time><ele>3764.4</ele></trkpt><trkpt lat="46.443871" lon="10.616832"><time>2022-08-24T08:07:28.000Z</time><ele>3764.4</ele></trkpt><trkpt lat="46.443864" lon="10.616827"><time>2022-08-24T08:07:43.000Z</time><ele>3764.4</ele></trkpt><trkpt lat="46.443859" lon="10.616822"><time>2022-08-24T08:07:56.000Z</time><ele>3764.4</ele></trkpt><trkpt lat="46.443849" lon="10.616813"><time>2022-08-24T08:08:19.000Z</time><ele>3764.4</ele></trkpt><trkpt lat="46.443846" lon="10.616811"><time>2022-08-24T08:08:26.000Z</time><ele>3764.4</ele></trkpt><trkpt lat="46.443845" lon="10.616809"><time>2022-08-24T08:08:30.000Z</time><ele>3764.4</ele></trkpt><trkpt lat="46.443828" lon="10.616794"><time>2022-08-24T08:09:15.000Z</time><ele>3764.4</ele></trkpt><trkpt lat="46.443822" lon="10.616788"><time>2022-08-24T08:09:34.000Z</time><ele>3764.4</ele></trkpt><trkpt lat="46.443817" lon="10.616784"><time>2022-08-24T08:09:47.000Z</time><ele>3764.4</ele></trkpt><trkpt lat="46.443814" lon="10.616781"><time>2022-08-24T08:09:56.000Z</time><ele>3764.4</ele></trkpt><trkpt lat="46.44381" lon="10.616776"><time>2022-08-24T08:10:10.000Z</time><ele>3764.4</ele></trkpt><trkpt lat="46.443806" lon="10.616772"><time>2022-08-24T08:10:24.000Z</time><ele>3764.4</ele></trkpt><trkpt lat="46.443793" lon="10.61676"><time>2022-08-24T08:11:05.000Z</time><ele>3764.4</ele></trkpt><trkpt lat="46.443789" lon="10.616757"><time>2022-08-24T08:11:18.000Z</time><ele>3764.4</ele></trkpt><trkpt lat="46.443774" lon="10.616743"><time>2022-08-24T08:12:13.000Z</time><ele>3764.4</ele></trkpt><trkpt lat="46.443765" lon="10.616736"><time>2022-08-24T08:12:47.000Z</time><ele>3764.4</ele></trkpt><trkpt lat="46.443764" lon="10.616736"><time>2022-08-24T08:12:52.000Z</time><ele>3764.4</ele></trkpt><trkpt lat="46.443762" lon="10.616733"><time>2022-08-24T08:13:10.000Z</time><ele>3764.4</ele></trkpt><trkpt lat="46.443761" lon="10.616732"><time>2022-08-24T08:13:19.000Z</time><ele>3764.4</ele></trkpt><trkpt lat="46.443761" lon="10.616732"><time>2022-08-24T08:13:25.000Z</time><ele>3764.4</ele></trkpt><trkpt lat="46.443761" lon="10.616731"><time>2022-08-24T08:13:26.000Z</time><ele>3764.4</ele></trkpt><trkpt lat="46.443761" lon="10.61673"><time>2022-08-24T08:13:48.000Z</time><ele>3764.4</ele></trkpt><trkpt lat="46.443762" lon="10.61673"><time>2022-08-24T08:14:01.000Z</time><ele>3764.4</ele></trkpt><trkpt lat="46.443762" lon="10.616731"><time>2022-08-24T08:14:05.000Z</time><ele>3764.4</ele></trkpt><trkpt lat="46.443762" lon="10.616731"><time>2022-08-24T08:14:11.000Z</time><ele>3764.4</ele></trkpt><trkpt lat="46.443763" lon="10.616733"><time>2022-08-24T08:14:33.000Z</time><ele>3760.6</ele></trkpt><trkpt lat="46.443764" lon="10.616735"><time>2022-08-24T08:14:45.000Z</time><ele>3759.4</ele></trkpt><trkpt lat="46.443765" lon="10.616737"><time>2022-08-24T08:14:53.000Z</time><ele>3758.4</ele></trkpt><trkpt lat="46.443766" lon="10.616739"><time>2022-08-24T08:15:02.000Z</time><ele>3758.8</ele></trkpt><trkpt lat="46.443767" lon="10.616742"><time>2022-08-24T08:15:11.000Z</time><ele>3758.8</ele></trkpt><trkpt lat="46.443768" lon="10.616743"><time>2022-08-24T08:15:15.000Z</time><ele>3758.4</ele></trkpt><trkpt lat="46.44377" lon="10.616745"><time>2022-08-24T08:15:23.000Z</time><ele>3758.4</ele></trkpt><trkpt lat="46.443771" lon="10.616747"><time>2022-08-24T08:15:29.000Z</time><ele>3758.2</ele></trkpt><trkpt lat="46.443772" lon="10.616748"><time>2022-08-24T08:15:34.000Z</time><ele>3758.2</ele></trkpt><trkpt lat="46.443879" lon="10.61689"><time>2022-08-24T08:16:12.000Z</time><ele>3757.2</ele></trkpt><trkpt lat="46.443958" lon="10.616988"><time>2022-08-24T08:16:15.000Z</time><ele>3757.2</ele></trkpt><trkpt lat="46.443985" lon="10.617019"><time>2022-08-24T08:16:16.000Z</time><ele>3757.2</ele></trkpt><trkpt lat="46.444043" lon="10.617086"><time>2022-08-24T08:16:22.000Z</time><ele>3757</ele></trkpt><trkpt lat="46.444044" lon="10.617087"><time>2022-08-24T08:16:26.000Z</time><ele>3757</ele></trkpt><trkpt lat="46.444044" lon="10.617087"><time>2022-08-24T08:16:29.000Z</time><ele>3757</ele></trkpt><trkpt lat="46.444044" lon="10.617087"><time>2022-08-24T08:16:32.000Z</time><ele>3756.8</ele></trkpt><trkpt lat="46.444048" lon="10.617087"><time>2022-08-24T08:16:48.000Z</time><ele>3757.4</ele></trkpt><trkpt lat="46.444095" lon="10.617212"><time>2022-08-24T08:17:10.000Z</time><ele>3757.4</ele></trkpt><trkpt lat="46.444103" lon="10.617232"><time>2022-08-24T08:17:11.000Z</time><ele>3757.4</ele></trkpt><trkpt lat="46.44411" lon="10.617252"><time>2022-08-24T08:17:12.000Z</time><ele>3757.4</ele></trkpt><trkpt lat="46.444124" lon="10.617287"><time>2022-08-24T08:17:15.000Z</time><ele>3757.4</ele></trkpt><trkpt lat="46.444133" lon="10.617307"><time>2022-08-24T08:17:17.000Z</time><ele>3757.4</ele></trkpt><trkpt lat="46.444141" lon="10.617311"><time>2022-08-24T08:17:19.000Z</time><ele>3757.4</ele></trkpt><trkpt lat="46.444142" lon="10.61731"><time>2022-08-24T08:17:20.000Z</time><ele>3757.4</ele></trkpt><trkpt lat="46.444139" lon="10.617308"><time>2022-08-24T08:17:21.000Z</time><ele>3757.4</ele></trkpt><trkpt lat="46.444135" lon="10.617305"><time>2022-08-24T08:17:24.000Z</time><ele>3757.4</ele></trkpt><trkpt lat="46.444135" lon="10.61731"><time>2022-08-24T08:17:31.000Z</time><ele>3757.4</ele></trkpt><trkpt lat="46.444135" lon="10.61731"><time>2022-08-24T08:17:37.000Z</time><ele>3757.4</ele></trkpt><trkpt lat="46.444137" lon="10.617279"><time>2022-08-24T08:17:58.000Z</time><ele>3757.4</ele></trkpt><trkpt lat="46.444137" lon="10.617279"><time>2022-08-24T08:17:59.000Z</time><ele>3757.4</ele></trkpt><trkpt lat="46.444138" lon="10.617279"><time>2022-08-24T08:18:01.000Z</time><ele>3757.4</ele></trkpt><trkpt lat="46.44414" lon="10.617279"><time>2022-08-24T08:18:06.000Z</time><ele>3757.4</ele></trkpt><trkpt lat="46.444152" lon="10.617286"><time>2022-08-24T08:18:11.000Z</time><ele>3757.4</ele></trkpt><trkpt lat="46.444264" lon="10.61748"><time>2022-08-24T08:18:57.000Z</time><ele>3757.4</ele></trkpt><trkpt lat="46.44431" lon="10.617544"><time>2022-08-24T08:19:02.000Z</time><ele>3756</ele></trkpt><trkpt lat="46.44432" lon="10.617565"><time>2022-08-24T08:19:04.000Z</time><ele>3754.8</ele></trkpt><trkpt lat="46.444338" lon="10.617604"><time>2022-08-24T08:19:08.000Z</time><ele>3753.8</ele></trkpt><trkpt lat="46.444348" lon="10.617619"><time>2022-08-24T08:19:10.000Z</time><ele>3753.6</ele></trkpt><trkpt lat="46.444388" lon="10.617661"><time>2022-08-24T08:19:17.000Z</time><ele>3752.4</ele></trkpt><trkpt lat="46.444394" lon="10.617665"><time>2022-08-24T08:19:18.000Z</time><ele>3752.2</ele></trkpt><trkpt lat="46.444418" lon="10.617684"><time>2022-08-24T08:19:22.000Z</time><ele>3751.2</ele></trkpt><trkpt lat="46.444433" lon="10.617692"><time>2022-08-24T08:19:24.000Z</time><ele>3750.8</ele></trkpt><trkpt lat="46.444441" lon="10.617697"><time>2022-08-24T08:19:26.000Z</time><ele>3750.2</ele></trkpt><trkpt lat="46.444448" lon="10.617701"><time>2022-08-24T08:19:28.000Z</time><ele>3749.8</ele></trkpt><trkpt lat="46.444459" lon="10.617703"><time>2022-08-24T08:19:30.000Z</time><ele>3749.6</ele></trkpt><trkpt lat="46.444465" lon="10.617706"><time>2022-08-24T08:19:31.000Z</time><ele>3749.4</ele></trkpt><trkpt lat="46.444474" lon="10.617714"><time>2022-08-24T08:19:33.000Z</time><ele>3749</ele></trkpt><trkpt lat="46.444488" lon="10.617715"><time>2022-08-24T08:19:36.000Z</time><ele>3748.4</ele></trkpt><trkpt lat="46.444498" lon="10.61772"><time>2022-08-24T08:19:38.000Z</time><ele>3748</ele></trkpt><trkpt lat="46.444517" lon="10.617726"><time>2022-08-24T08:19:42.000Z</time><ele>3746.8</ele></trkpt><trkpt lat="46.444527" lon="10.617735"><time>2022-08-24T08:19:44.000Z</time><ele>3746.4</ele></trkpt><trkpt lat="46.444541" lon="10.617737"><time>2022-08-24T08:19:47.000Z</time><ele>3745.6</ele></trkpt><trkpt lat="46.444557" lon="10.617734"><time>2022-08-24T08:19:52.000Z</time><ele>3744.2</ele></trkpt><trkpt lat="46.444568" lon="10.617734"><time>2022-08-24T08:19:55.000Z</time><ele>3743.4</ele></trkpt><trkpt lat="46.444571" lon="10.617732"><time>2022-08-24T08:19:56.000Z</time><ele>3742.8</ele></trkpt><trkpt lat="46.444586" lon="10.617734"><time>2022-08-24T08:20:00.000Z</time><ele>3741.6</ele></trkpt><trkpt lat="46.444606" lon="10.617742"><time>2022-08-24T08:20:03.000Z</time><ele>3740.4</ele></trkpt><trkpt lat="46.444622" lon="10.617745"><time>2022-08-24T08:20:07.000Z</time><ele>3739.8</ele></trkpt><trkpt lat="46.444645" lon="10.617772"><time>2022-08-24T08:20:10.000Z</time><ele>3739.4</ele></trkpt><trkpt lat="46.444659" lon="10.617776"><time>2022-08-24T08:20:14.000Z</time><ele>3738.2</ele></trkpt><trkpt lat="46.444673" lon="10.617785"><time>2022-08-24T08:20:19.000Z</time><ele>3737.2</ele></trkpt><trkpt lat="46.444674" lon="10.617779"><time>2022-08-24T08:20:28.000Z</time><ele>3736.4</ele></trkpt><trkpt lat="46.444674" lon="10.617779"><time>2022-08-24T08:20:33.000Z</time><ele>3736.2</ele></trkpt><trkpt lat="46.444674" lon="10.617779"><time>2022-08-24T08:20:34.000Z</time><ele>3736.2</ele></trkpt><trkpt lat="46.444674" lon="10.617779"><time>2022-08-24T08:20:35.000Z</time><ele>3736</ele></trkpt><trkpt lat="46.444679" lon="10.617798"><time>2022-08-24T08:20:44.000Z</time><ele>3735.2</ele></trkpt><trkpt lat="46.444699" lon="10.617833"><time>2022-08-24T08:20:46.000Z</time><ele>3735</ele></trkpt><trkpt lat="46.444721" lon="10.617869"><time>2022-08-24T08:20:48.000Z</time><ele>3734.4</ele></trkpt><trkpt lat="46.44476" lon="10.617919"><time>2022-08-24T08:20:51.000Z</time><ele>3734</ele></trkpt><trkpt lat="46.444821" lon="10.617964"><time>2022-08-24T08:20:57.000Z</time><ele>3732.8</ele></trkpt><trkpt lat="46.444828" lon="10.617965"><time>2022-08-24T08:20:58.000Z</time><ele>3732.2</ele></trkpt><trkpt lat="46.444849" lon="10.617969"><time>2022-08-24T08:21:01.000Z</time><ele>3731.6</ele></trkpt><trkpt lat="46.444873" lon="10.617978"><time>2022-08-24T08:21:04.000Z</time><ele>3730.4</ele></trkpt><trkpt lat="46.444905" lon="10.61798"><time>2022-08-24T08:21:08.000Z</time><ele>3729</ele></trkpt><trkpt lat="46.444916" lon="10.617985"><time>2022-08-24T08:21:10.000Z</time><ele>3728.4</ele></trkpt><trkpt lat="46.444935" lon="10.617982"><time>2022-08-24T08:21:13.000Z</time><ele>3728.2</ele></trkpt><trkpt lat="46.444972" lon="10.617996"><time>2022-08-24T08:21:18.000Z</time><ele>3727.8</ele></trkpt><trkpt lat="46.445006" lon="10.618011"><time>2022-08-24T08:21:23.000Z</time><ele>3726.6</ele></trkpt><trkpt lat="46.445014" lon="10.618019"><time>2022-08-24T08:21:24.000Z</time><ele>3726.2</ele></trkpt><trkpt lat="46.445039" lon="10.618044"><time>2022-08-24T08:21:27.000Z</time><ele>3725.4</ele></trkpt><trkpt lat="46.44506" lon="10.618061"><time>2022-08-24T08:21:30.000Z</time><ele>3724.8</ele></trkpt><trkpt lat="46.445115" lon="10.618091"><time>2022-08-24T08:21:35.000Z</time><ele>3724.6</ele></trkpt><trkpt lat="46.445125" lon="10.618094"><time>2022-08-24T08:21:36.000Z</time><ele>3724.6</ele></trkpt><trkpt lat="46.445142" lon="10.618105"><time>2022-08-24T08:21:38.000Z</time><ele>3724</ele></trkpt><trkpt lat="46.445149" lon="10.618115"><time>2022-08-24T08:21:39.000Z</time><ele>3723.6</ele></trkpt><trkpt lat="46.445164" lon="10.618129"><time>2022-08-24T08:21:41.000Z</time><ele>3723</ele></trkpt><trkpt lat="46.445184" lon="10.618131"><time>2022-08-24T08:21:45.000Z</time><ele>3722.2</ele></trkpt><trkpt lat="46.445187" lon="10.618138"><time>2022-08-24T08:21:47.000Z</time><ele>3721.8</ele></trkpt><trkpt lat="46.445215" lon="10.618162"><time>2022-08-24T08:21:57.000Z</time><ele>3721.4</ele></trkpt><trkpt lat="46.445231" lon="10.618184"><time>2022-08-24T08:22:05.000Z</time><ele>3721</ele></trkpt><trkpt lat="46.445233" lon="10.618185"><time>2022-08-24T08:22:06.000Z</time><ele>3720.8</ele></trkpt><trkpt lat="46.445237" lon="10.618204"><time>2022-08-24T08:22:12.000Z</time><ele>3720</ele></trkpt><trkpt lat="46.445239" lon="10.61821"><time>2022-08-24T08:22:13.000Z</time><ele>3719.8</ele></trkpt><trkpt lat="46.445253" lon="10.618245"><time>2022-08-24T08:22:19.000Z</time><ele>3718.4</ele></trkpt><trkpt lat="46.445268" lon="10.61826"><time>2022-08-24T08:22:22.000Z</time><ele>3717.4</ele></trkpt><trkpt lat="46.445272" lon="10.618263"><time>2022-08-24T08:22:23.000Z</time><ele>3717.2</ele></trkpt><trkpt lat="46.445283" lon="10.618265"><time>2022-08-24T08:22:26.000Z</time><ele>3717</ele></trkpt><trkpt lat="46.445304" lon="10.618291"><time>2022-08-24T08:22:31.000Z</time><ele>3716.8</ele></trkpt><trkpt lat="46.445308" lon="10.618297"><time>2022-08-24T08:22:32.000Z</time><ele>3716.8</ele></trkpt><trkpt lat="46.445322" lon="10.618309"><time>2022-08-24T08:22:35.000Z</time><ele>3716.6</ele></trkpt><trkpt lat="46.445323" lon="10.618311"><time>2022-08-24T08:22:36.000Z</time><ele>3716.4</ele></trkpt><trkpt lat="46.445326" lon="10.618314"><time>2022-08-24T08:22:37.000Z</time><ele>3716.4</ele></trkpt><trkpt lat="46.44533" lon="10.618319"><time>2022-08-24T08:22:38.000Z</time><ele>3716.2</ele></trkpt><trkpt lat="46.445333" lon="10.618324"><time>2022-08-24T08:22:39.000Z</time><ele>3716</ele></trkpt><trkpt lat="46.445344" lon="10.618326"><time>2022-08-24T08:22:41.000Z</time><ele>3715.8</ele></trkpt><trkpt lat="46.445351" lon="10.618325"><time>2022-08-24T08:22:43.000Z</time><ele>3716</ele></trkpt><trkpt lat="46.445359" lon="10.618329"><time>2022-08-24T08:22:46.000Z</time><ele>3716.2</ele></trkpt><trkpt lat="46.445368" lon="10.618341"><time>2022-08-24T08:22:48.000Z</time><ele>3716.2</ele></trkpt><trkpt lat="46.445378" lon="10.61834"><time>2022-08-24T08:22:50.000Z</time><ele>3716.2</ele></trkpt><trkpt lat="46.445392" lon="10.61835"><time>2022-08-24T08:22:56.000Z</time><ele>3716.2</ele></trkpt><trkpt lat="46.445395" lon="10.618355"><time>2022-08-24T08:22:57.000Z</time><ele>3716.2</ele></trkpt><trkpt lat="46.44539" lon="10.618357"><time>2022-08-24T08:23:04.000Z</time><ele>3716.4</ele></trkpt><trkpt lat="46.44539" lon="10.618357"><time>2022-08-24T08:23:12.000Z</time><ele>3716.4</ele></trkpt><trkpt lat="46.44539" lon="10.618357"><time>2022-08-24T08:23:15.000Z</time><ele>3716.2</ele></trkpt><trkpt lat="46.445391" lon="10.618358"><time>2022-08-24T08:23:17.000Z</time><ele>3716.2</ele></trkpt><trkpt lat="46.445392" lon="10.618361"><time>2022-08-24T08:23:21.000Z</time><ele>3716.2</ele></trkpt><trkpt lat="46.445403" lon="10.618367"><time>2022-08-24T08:23:28.000Z</time><ele>3716</ele></trkpt><trkpt lat="46.445404" lon="10.618367"><time>2022-08-24T08:23:29.000Z</time><ele>3716</ele></trkpt><trkpt lat="46.445414" lon="10.618368"><time>2022-08-24T08:23:34.000Z</time><ele>3715.2</ele></trkpt><trkpt lat="46.44543" lon="10.618366"><time>2022-08-24T08:23:44.000Z</time><ele>3714.8</ele></trkpt><trkpt lat="46.44547" lon="10.618318"><time>2022-08-24T08:24:14.000Z</time><ele>3714</ele></trkpt><trkpt lat="46.445472" lon="10.618316"><time>2022-08-24T08:24:21.000Z</time><ele>3712.8</ele></trkpt><trkpt lat="46.445519" lon="10.618311"><time>2022-08-24T08:24:34.000Z</time><ele>3711.8</ele></trkpt><trkpt lat="46.445536" lon="10.618313"><time>2022-08-24T08:24:39.000Z</time><ele>3712.2</ele></trkpt><trkpt lat="46.44557" lon="10.618365"><time>2022-08-24T08:24:49.000Z</time><ele>3712.4</ele></trkpt><trkpt lat="46.445573" lon="10.618393"><time>2022-08-24T08:25:01.000Z</time><ele>3712.8</ele></trkpt><trkpt lat="46.445572" lon="10.618404"><time>2022-08-24T08:25:21.000Z</time><ele>3712.6</ele></trkpt><trkpt lat="46.445572" lon="10.61841"><time>2022-08-24T08:25:32.000Z</time><ele>3712.4</ele></trkpt><trkpt lat="46.445572" lon="10.61842"><time>2022-08-24T08:25:52.000Z</time><ele>3712.6</ele></trkpt><trkpt lat="46.445573" lon="10.61842"><time>2022-08-24T08:25:55.000Z</time><ele>3712.4</ele></trkpt><trkpt lat="46.445573" lon="10.61842"><time>2022-08-24T08:25:58.000Z</time><ele>3712.4</ele></trkpt><trkpt lat="46.445573" lon="10.618419"><time>2022-08-24T08:26:01.000Z</time><ele>3712.4</ele></trkpt><trkpt lat="46.445574" lon="10.618417"><time>2022-08-24T08:26:06.000Z</time><ele>3712.4</ele></trkpt><trkpt lat="46.445575" lon="10.618413"><time>2022-08-24T08:26:34.000Z</time><ele>3712.6</ele></trkpt><trkpt lat="46.445575" lon="10.618413"><time>2022-08-24T08:26:42.000Z</time><ele>3712.6</ele></trkpt><trkpt lat="46.445575" lon="10.618412"><time>2022-08-24T08:26:52.000Z</time><ele>3712.6</ele></trkpt><trkpt lat="46.445575" lon="10.618412"><time>2022-08-24T08:26:55.000Z</time><ele>3712.6</ele></trkpt><trkpt lat="46.445575" lon="10.618411"><time>2022-08-24T08:27:03.000Z</time><ele>3712.6</ele></trkpt><trkpt lat="46.445576" lon="10.618409"><time>2022-08-24T08:27:43.000Z</time><ele>3712.6</ele></trkpt><trkpt lat="46.445576" lon="10.618409"><time>2022-08-24T08:27:45.000Z</time><ele>3712.6</ele></trkpt><trkpt lat="46.445576" lon="10.618408"><time>2022-08-24T08:27:50.000Z</time><ele>3712.6</ele></trkpt><trkpt lat="46.445578" lon="10.618407"><time>2022-08-24T08:28:08.000Z</time><ele>3712.6</ele></trkpt><trkpt lat="46.445578" lon="10.618406"><time>2022-08-24T08:28:11.000Z</time><ele>3708.6</ele></trkpt><trkpt lat="46.445578" lon="10.618406"><time>2022-08-24T08:28:12.000Z</time><ele>3708.6</ele></trkpt><trkpt lat="46.445579" lon="10.618405"><time>2022-08-24T08:28:21.000Z</time><ele>3707.4</ele></trkpt><trkpt lat="46.445581" lon="10.618404"><time>2022-08-24T08:28:33.000Z</time><ele>3706.4</ele></trkpt><trkpt lat="46.445582" lon="10.618402"><time>2022-08-24T08:28:44.000Z</time><ele>3705.4</ele></trkpt><trkpt lat="46.445584" lon="10.618401"><time>2022-08-24T08:28:53.000Z</time><ele>3704.2</ele></trkpt><trkpt lat="46.445585" lon="10.618399"><time>2022-08-24T08:29:04.000Z</time><ele>3703.2</ele></trkpt><trkpt lat="46.445587" lon="10.618396"><time>2022-08-24T08:29:14.000Z</time><ele>3702</ele></trkpt><trkpt lat="46.445589" lon="10.618394"><time>2022-08-24T08:29:23.000Z</time><ele>3701</ele></trkpt><trkpt lat="46.44559" lon="10.618393"><time>2022-08-24T08:29:29.000Z</time><ele>3699.8</ele></trkpt><trkpt lat="46.445592" lon="10.61839"><time>2022-08-24T08:29:39.000Z</time><ele>3698.8</ele></trkpt><trkpt lat="46.445594" lon="10.618389"><time>2022-08-24T08:29:45.000Z</time><ele>3697.8</ele></trkpt><trkpt lat="46.445594" lon="10.618388"><time>2022-08-24T08:29:46.000Z</time><ele>3697.8</ele></trkpt><trkpt lat="46.445596" lon="10.618386"><time>2022-08-24T08:29:54.000Z</time><ele>3696.6</ele></trkpt><trkpt lat="46.445598" lon="10.618384"><time>2022-08-24T08:30:01.000Z</time><ele>3695.6</ele></trkpt><trkpt lat="46.445602" lon="10.61838"><time>2022-08-24T08:30:11.000Z</time><ele>3694.4</ele></trkpt><trkpt lat="46.445603" lon="10.618379"><time>2022-08-24T08:30:16.000Z</time><ele>3694.6</ele></trkpt><trkpt lat="46.445606" lon="10.618376"><time>2022-08-24T08:30:24.000Z</time><ele>3694.6</ele></trkpt><trkpt lat="46.445607" lon="10.618375"><time>2022-08-24T08:30:26.000Z</time><ele>3694.4</ele></trkpt><trkpt lat="46.445608" lon="10.618374"><time>2022-08-24T08:30:28.000Z</time><ele>3694.2</ele></trkpt><trkpt lat="46.445608" lon="10.618374"><time>2022-08-24T08:30:30.000Z</time><ele>3694.2</ele></trkpt><trkpt lat="46.445609" lon="10.618373"><time>2022-08-24T08:30:32.000Z</time><ele>3693.8</ele></trkpt><trkpt lat="46.44561" lon="10.618372"><time>2022-08-24T08:30:34.000Z</time><ele>3693.2</ele></trkpt><trkpt lat="46.445612" lon="10.61837"><time>2022-08-24T08:30:41.000Z</time><ele>3692.4</ele></trkpt><trkpt lat="46.445615" lon="10.618366"><time>2022-08-24T08:30:50.000Z</time><ele>3692.2</ele></trkpt><trkpt lat="46.445619" lon="10.61836"><time>2022-08-24T08:31:02.000Z</time><ele>3691.8</ele></trkpt><trkpt lat="46.445621" lon="10.618358"><time>2022-08-24T08:31:08.000Z</time><ele>3691.4</ele></trkpt><trkpt lat="46.445623" lon="10.618356"><time>2022-08-24T08:31:12.000Z</time><ele>3691.2</ele></trkpt><trkpt lat="46.445626" lon="10.618351"><time>2022-08-24T08:31:22.000Z</time><ele>3691.4</ele></trkpt><trkpt lat="46.445627" lon="10.61835"><time>2022-08-24T08:31:25.000Z</time><ele>3691.2</ele></trkpt><trkpt lat="46.445628" lon="10.618349"><time>2022-08-24T08:31:26.000Z</time><ele>3691.2</ele></trkpt><trkpt lat="46.44563" lon="10.618346"><time>2022-08-24T08:31:33.000Z</time><ele>3691.4</ele></trkpt><trkpt lat="46.445631" lon="10.618345"><time>2022-08-24T08:31:35.000Z</time><ele>3691.6</ele></trkpt><trkpt lat="46.445632" lon="10.618343"><time>2022-08-24T08:31:38.000Z</time><ele>3691.4</ele></trkpt><trkpt lat="46.445635" lon="10.618337"><time>2022-08-24T08:31:51.000Z</time><ele>3691.4</ele></trkpt><trkpt lat="46.445638" lon="10.618332"><time>2022-08-24T08:32:00.000Z</time><ele>3691.4</ele></trkpt><trkpt lat="46.445638" lon="10.618331"><time>2022-08-24T08:32:02.000Z</time><ele>3691.4</ele></trkpt><trkpt lat="46.44564" lon="10.618329"><time>2022-08-24T08:32:07.000Z</time><ele>3691.4</ele></trkpt><trkpt lat="46.445648" lon="10.618314"><time>2022-08-24T08:32:39.000Z</time><ele>3691.6</ele></trkpt><trkpt lat="46.44565" lon="10.618311"><time>2022-08-24T08:32:47.000Z</time><ele>3691.6</ele></trkpt><trkpt lat="46.445651" lon="10.618309"><time>2022-08-24T08:32:51.000Z</time><ele>3691.6</ele></trkpt><trkpt lat="46.445651" lon="10.618308"><time>2022-08-24T08:32:53.000Z</time><ele>3691.8</ele></trkpt><trkpt lat="46.445656" lon="10.618301"><time>2022-08-24T08:33:10.000Z</time><ele>3691.6</ele></trkpt><trkpt lat="46.445659" lon="10.618297"><time>2022-08-24T08:33:21.000Z</time><ele>3691.8</ele></trkpt><trkpt lat="46.445666" lon="10.618287"><time>2022-08-24T08:33:48.000Z</time><ele>3691.8</ele></trkpt><trkpt lat="46.445667" lon="10.618285"><time>2022-08-24T08:33:52.000Z</time><ele>3691.8</ele></trkpt><trkpt lat="46.445672" lon="10.61828"><time>2022-08-24T08:34:07.000Z</time><ele>3691.8</ele></trkpt><trkpt lat="46.445673" lon="10.618279"><time>2022-08-24T08:34:11.000Z</time><ele>3691.8</ele></trkpt><trkpt lat="46.445674" lon="10.618277"><time>2022-08-24T08:34:15.000Z</time><ele>3691.8</ele></trkpt><trkpt lat="46.445677" lon="10.618274"><time>2022-08-24T08:34:25.000Z</time><ele>3691.8</ele></trkpt><trkpt lat="46.445678" lon="10.618272"><time>2022-08-24T08:34:29.000Z</time><ele>3691.8</ele></trkpt><trkpt lat="46.44568" lon="10.618269"><time>2022-08-24T08:34:39.000Z</time><ele>3691.8</ele></trkpt><trkpt lat="46.445683" lon="10.618264"><time>2022-08-24T08:34:52.000Z</time><ele>3691.8</ele></trkpt><trkpt lat="46.445687" lon="10.618256"><time>2022-08-24T08:35:12.000Z</time><ele>3691.8</ele></trkpt><trkpt lat="46.445689" lon="10.618254"><time>2022-08-24T08:35:18.000Z</time><ele>3688.4</ele></trkpt><trkpt lat="46.445695" lon="10.618242"><time>2022-08-24T08:35:48.000Z</time><ele>3687.2</ele></trkpt><trkpt lat="46.445696" lon="10.618239"><time>2022-08-24T08:35:55.000Z</time><ele>3686</ele></trkpt><trkpt lat="46.445697" lon="10.618237"><time>2022-08-24T08:35:58.000Z</time><ele>3684.8</ele></trkpt><trkpt lat="46.445698" lon="10.618236"><time>2022-08-24T08:36:02.000Z</time><ele>3683.6</ele></trkpt><trkpt lat="46.445699" lon="10.618235"><time>2022-08-24T08:36:06.000Z</time><ele>3682.6</ele></trkpt><trkpt lat="46.445701" lon="10.618233"><time>2022-08-24T08:36:12.000Z</time><ele>3681.2</ele></trkpt><trkpt lat="46.445703" lon="10.618231"><time>2022-08-24T08:36:16.000Z</time><ele>3680</ele></trkpt><trkpt lat="46.445706" lon="10.618229"><time>2022-08-24T08:36:23.000Z</time><ele>3679</ele></trkpt><trkpt lat="46.445708" lon="10.618227"><time>2022-08-24T08:36:29.000Z</time><ele>3677.8</ele></trkpt><trkpt lat="46.44571" lon="10.618226"><time>2022-08-24T08:36:32.000Z</time><ele>3677.4</ele></trkpt><trkpt lat="46.445711" lon="10.618225"><time>2022-08-24T08:36:35.000Z</time><ele>3676.8</ele></trkpt><trkpt lat="46.445713" lon="10.618224"><time>2022-08-24T08:36:39.000Z</time><ele>3676.2</ele></trkpt><trkpt lat="46.445714" lon="10.618223"><time>2022-08-24T08:36:41.000Z</time><ele>3675.8</ele></trkpt><trkpt lat="46.445716" lon="10.618222"><time>2022-08-24T08:36:46.000Z</time><ele>3674.6</ele></trkpt><trkpt lat="46.44572" lon="10.61822"><time>2022-08-24T08:36:53.000Z</time><ele>3673.4</ele></trkpt><trkpt lat="46.44572" lon="10.618219"><time>2022-08-24T08:36:54.000Z</time><ele>3673</ele></trkpt><trkpt lat="46.445721" lon="10.618219"><time>2022-08-24T08:36:56.000Z</time><ele>3672.6</ele></trkpt><trkpt lat="46.445722" lon="10.618218"><time>2022-08-24T08:36:58.000Z</time><ele>3672.4</ele></trkpt><trkpt lat="46.445723" lon="10.618218"><time>2022-08-24T08:36:59.000Z</time><ele>3672.2</ele></trkpt><trkpt lat="46.445724" lon="10.618217"><time>2022-08-24T08:37:01.000Z</time><ele>3672</ele></trkpt><trkpt lat="46.445726" lon="10.618217"><time>2022-08-24T08:37:04.000Z</time><ele>3671.4</ele></trkpt><trkpt lat="46.445728" lon="10.618216"><time>2022-08-24T08:37:08.000Z</time><ele>3670.8</ele></trkpt><trkpt lat="46.44573" lon="10.618215"><time>2022-08-24T08:37:12.000Z</time><ele>3670.4</ele></trkpt><trkpt lat="46.445731" lon="10.618214"><time>2022-08-24T08:37:13.000Z</time><ele>3670.4</ele></trkpt><trkpt lat="46.445735" lon="10.618213"><time>2022-08-24T08:37:20.000Z</time><ele>3669.2</ele></trkpt><trkpt lat="46.44574" lon="10.618211"><time>2022-08-24T08:37:29.000Z</time><ele>3669</ele></trkpt><trkpt lat="46.445745" lon="10.618209"><time>2022-08-24T08:37:37.000Z</time><ele>3668.4</ele></trkpt><trkpt lat="46.445747" lon="10.618208"><time>2022-08-24T08:37:40.000Z</time><ele>3668.2</ele></trkpt><trkpt lat="46.445751" lon="10.618207"><time>2022-08-24T08:37:46.000Z</time><ele>3667.4</ele></trkpt><trkpt lat="46.445752" lon="10.618206"><time>2022-08-24T08:37:48.000Z</time><ele>3667.4</ele></trkpt><trkpt lat="46.445758" lon="10.618204"><time>2022-08-24T08:37:56.000Z</time><ele>3667.2</ele></trkpt><trkpt lat="46.445761" lon="10.618203"><time>2022-08-24T08:38:01.000Z</time><ele>3666.2</ele></trkpt><trkpt lat="46.445762" lon="10.618203"><time>2022-08-24T08:38:02.000Z</time><ele>3666.2</ele></trkpt><trkpt lat="46.445768" lon="10.6182"><time>2022-08-24T08:38:12.000Z</time><ele>3665.4</ele></trkpt><trkpt lat="46.44577" lon="10.6182"><time>2022-08-24T08:38:14.000Z</time><ele>3665</ele></trkpt><trkpt lat="46.445779" lon="10.618197"><time>2022-08-24T08:38:29.000Z</time><ele>3665.2</ele></trkpt><trkpt lat="46.445801" lon="10.618193"><time>2022-08-24T08:39:02.000Z</time><ele>3666.2</ele></trkpt><trkpt lat="46.445815" lon="10.618191"><time>2022-08-24T08:39:23.000Z</time><ele>3665.4</ele></trkpt><trkpt lat="46.445818" lon="10.618192"><time>2022-08-24T08:39:28.000Z</time><ele>3665</ele></trkpt><trkpt lat="46.445824" lon="10.618193"><time>2022-08-24T08:39:38.000Z</time><ele>3664.2</ele></trkpt><trkpt lat="46.445824" lon="10.618194"><time>2022-08-24T08:39:39.000Z</time><ele>3664</ele></trkpt><trkpt lat="46.445832" lon="10.618197"><time>2022-08-24T08:39:50.000Z</time><ele>3662.8</ele></trkpt><trkpt lat="46.445842" lon="10.618202"><time>2022-08-24T08:40:05.000Z</time><ele>3662</ele></trkpt><trkpt lat="46.445847" lon="10.618205"><time>2022-08-24T08:40:12.000Z</time><ele>3662</ele></trkpt><trkpt lat="46.445849" lon="10.618207"><time>2022-08-24T08:40:16.000Z</time><ele>3662.2</ele></trkpt><trkpt lat="46.445853" lon="10.618209"><time>2022-08-24T08:40:22.000Z</time><ele>3661.8</ele></trkpt><trkpt lat="46.44587" lon="10.618218"><time>2022-08-24T08:40:48.000Z</time><ele>3660.8</ele></trkpt><trkpt lat="46.445875" lon="10.618221"><time>2022-08-24T08:40:55.000Z</time><ele>3659.6</ele></trkpt><trkpt lat="46.445884" lon="10.618226"><time>2022-08-24T08:41:09.000Z</time><ele>3658.6</ele></trkpt><trkpt lat="46.445891" lon="10.618231"><time>2022-08-24T08:41:20.000Z</time><ele>3657.6</ele></trkpt><trkpt lat="46.445896" lon="10.618235"><time>2022-08-24T08:41:27.000Z</time><ele>3656.6</ele></trkpt><trkpt lat="46.445901" lon="10.618238"><time>2022-08-24T08:41:34.000Z</time><ele>3655.4</ele></trkpt><trkpt lat="46.445909" lon="10.618244"><time>2022-08-24T08:41:46.000Z</time><ele>3654.2</ele></trkpt><trkpt lat="46.445912" lon="10.618246"><time>2022-08-24T08:41:49.000Z</time><ele>3654</ele></trkpt><trkpt lat="46.445913" lon="10.618247"><time>2022-08-24T08:41:51.000Z</time><ele>3653.6</ele></trkpt><trkpt lat="46.445914" lon="10.618248"><time>2022-08-24T08:41:53.000Z</time><ele>3653.4</ele></trkpt><trkpt lat="46.445915" lon="10.618248"><time>2022-08-24T08:41:54.000Z</time><ele>3653.2</ele></trkpt><trkpt lat="46.445921" lon="10.618253"><time>2022-08-24T08:42:02.000Z</time><ele>3652.2</ele></trkpt><trkpt lat="46.445924" lon="10.618256"><time>2022-08-24T08:42:07.000Z</time><ele>3651.2</ele></trkpt><trkpt lat="46.445929" lon="10.618259"><time>2022-08-24T08:42:13.000Z</time><ele>3650</ele></trkpt><trkpt lat="46.445935" lon="10.618264"><time>2022-08-24T08:42:21.000Z</time><ele>3649</ele></trkpt><trkpt lat="46.44594" lon="10.618268"><time>2022-08-24T08:42:29.000Z</time><ele>3647.8</ele></trkpt><trkpt lat="46.445946" lon="10.618272"><time>2022-08-24T08:42:36.000Z</time><ele>3646.8</ele></trkpt><trkpt lat="46.445951" lon="10.618276"><time>2022-08-24T08:42:43.000Z</time><ele>3645.6</ele></trkpt><trkpt lat="46.445956" lon="10.61828"><time>2022-08-24T08:42:49.000Z</time><ele>3644.4</ele></trkpt><trkpt lat="46.44596" lon="10.618283"><time>2022-08-24T08:42:54.000Z</time><ele>3643.8</ele></trkpt><trkpt lat="46.445961" lon="10.618284"><time>2022-08-24T08:42:56.000Z</time><ele>3643.4</ele></trkpt><trkpt lat="46.445965" lon="10.618288"><time>2022-08-24T08:43:01.000Z</time><ele>3642.2</ele></trkpt><trkpt lat="46.445972" lon="10.618292"><time>2022-08-24T08:43:08.000Z</time><ele>3641.2</ele></trkpt><trkpt lat="46.445978" lon="10.618297"><time>2022-08-24T08:43:15.000Z</time><ele>3640</ele></trkpt><trkpt lat="46.445985" lon="10.618302"><time>2022-08-24T08:43:22.000Z</time><ele>3639</ele></trkpt><trkpt lat="46.445989" lon="10.618306"><time>2022-08-24T08:43:27.000Z</time><ele>3638</ele></trkpt><trkpt lat="46.445996" lon="10.618311"><time>2022-08-24T08:43:34.000Z</time><ele>3636.6</ele></trkpt><trkpt lat="46.446" lon="10.618314"><time>2022-08-24T08:43:38.000Z</time><ele>3636</ele></trkpt><trkpt lat="46.446002" lon="10.618315"><time>2022-08-24T08:43:40.000Z</time><ele>3635.4</ele></trkpt><trkpt lat="46.446008" lon="10.618319"><time>2022-08-24T08:43:46.000Z</time><ele>3634.4</ele></trkpt><trkpt lat="46.446155" lon="10.618415"><time>2022-08-24T08:43:48.000Z</time><ele>3633</ele></trkpt><trkpt lat="46.446313" lon="10.618516"><time>2022-08-24T08:43:50.000Z</time><ele>3631.8</ele></trkpt><trkpt lat="46.446474" lon="10.61862"><time>2022-08-24T08:43:52.000Z</time><ele>3631</ele></trkpt><trkpt lat="46.446635" lon="10.618719"><time>2022-08-24T08:43:54.000Z</time><ele>3630.6</ele></trkpt><trkpt lat="46.446798" lon="10.618808"><time>2022-08-24T08:43:58.000Z</time><ele>3629.4</ele></trkpt><trkpt lat="46.446802" lon="10.618807"><time>2022-08-24T08:43:59.000Z</time><ele>3629.2</ele></trkpt><trkpt lat="46.446807" lon="10.618809"><time>2022-08-24T08:44:00.000Z</time><ele>3629</ele></trkpt><trkpt lat="46.446824" lon="10.618828"><time>2022-08-24T08:44:03.000Z</time><ele>3628.4</ele></trkpt><trkpt lat="46.446825" lon="10.618828"><time>2022-08-24T08:44:04.000Z</time><ele>3628.2</ele></trkpt><trkpt lat="46.446823" lon="10.61882"><time>2022-08-24T08:44:05.000Z</time><ele>3628.2</ele></trkpt><trkpt lat="46.446833" lon="10.618813"><time>2022-08-24T08:44:08.000Z</time><ele>3628.2</ele></trkpt><trkpt lat="46.446834" lon="10.618791"><time>2022-08-24T08:44:14.000Z</time><ele>3627.4</ele></trkpt><trkpt lat="46.446832" lon="10.618784"><time>2022-08-24T08:44:15.000Z</time><ele>3627.4</ele></trkpt><trkpt lat="46.446836" lon="10.618792"><time>2022-08-24T08:44:20.000Z</time><ele>3627.2</ele></trkpt><trkpt lat="46.446848" lon="10.618799"><time>2022-08-24T08:44:23.000Z</time><ele>3627.2</ele></trkpt><trkpt lat="46.446847" lon="10.618799"><time>2022-08-24T08:44:34.000Z</time><ele>3626.8</ele></trkpt><trkpt lat="46.446851" lon="10.6188"><time>2022-08-24T08:44:51.000Z</time><ele>3626.4</ele></trkpt><trkpt lat="46.446851" lon="10.618802"><time>2022-08-24T08:45:01.000Z</time><ele>3626.4</ele></trkpt><trkpt lat="46.446852" lon="10.618804"><time>2022-08-24T08:45:04.000Z</time><ele>3626.4</ele></trkpt><trkpt lat="46.446855" lon="10.618806"><time>2022-08-24T08:45:07.000Z</time><ele>3626.6</ele></trkpt><trkpt lat="46.446858" lon="10.618808"><time>2022-08-24T08:45:16.000Z</time><ele>3625.8</ele></trkpt><trkpt lat="46.446862" lon="10.618812"><time>2022-08-24T08:45:19.000Z</time><ele>3626</ele></trkpt><trkpt lat="46.446863" lon="10.618814"><time>2022-08-24T08:45:20.000Z</time><ele>3626.2</ele></trkpt><trkpt lat="46.446866" lon="10.61882"><time>2022-08-24T08:45:36.000Z</time><ele>3626.4</ele></trkpt><trkpt lat="46.446869" lon="10.618813"><time>2022-08-24T08:45:57.000Z</time><ele>3626.6</ele></trkpt><trkpt lat="46.446874" lon="10.618809"><time>2022-08-24T08:46:06.000Z</time><ele>3627</ele></trkpt><trkpt lat="46.446881" lon="10.61881"><time>2022-08-24T08:46:16.000Z</time><ele>3626.6</ele></trkpt><trkpt lat="46.446884" lon="10.618812"><time>2022-08-24T08:46:25.000Z</time><ele>3626.4</ele></trkpt><trkpt lat="46.446881" lon="10.618809"><time>2022-08-24T08:46:39.000Z</time><ele>3626.4</ele></trkpt><trkpt lat="46.446846" lon="10.618794"><time>2022-08-24T08:47:27.000Z</time><ele>3626.4</ele></trkpt><trkpt lat="46.446846" lon="10.618793"><time>2022-08-24T08:47:28.000Z</time><ele>3626.4</ele></trkpt><trkpt lat="46.446844" lon="10.618791"><time>2022-08-24T08:47:39.000Z</time><ele>3626.4</ele></trkpt><trkpt lat="46.446844" lon="10.618791"><time>2022-08-24T08:47:44.000Z</time><ele>3626.4</ele></trkpt><trkpt lat="46.446896" lon="10.61876"><time>2022-08-24T08:48:00.000Z</time><ele>3626.4</ele></trkpt><trkpt lat="46.447029" lon="10.618707"><time>2022-08-24T08:48:07.000Z</time><ele>3626.4</ele></trkpt><trkpt lat="46.447076" lon="10.618707"><time>2022-08-24T08:48:10.000Z</time><ele>3623.2</ele></trkpt><trkpt lat="46.447085" lon="10.618701"><time>2022-08-24T08:48:11.000Z</time><ele>3621.4</ele></trkpt><trkpt lat="46.447093" lon="10.618696"><time>2022-08-24T08:48:12.000Z</time><ele>3620.4</ele></trkpt><trkpt lat="46.44711" lon="10.618686"><time>2022-08-24T08:48:14.000Z</time><ele>3618.8</ele></trkpt><trkpt lat="46.447139" lon="10.618664"><time>2022-08-24T08:48:17.000Z</time><ele>3617.4</ele></trkpt><trkpt lat="46.447157" lon="10.618653"><time>2022-08-24T08:48:19.000Z</time><ele>3616.6</ele></trkpt><trkpt lat="46.447165" lon="10.61865"><time>2022-08-24T08:48:20.000Z</time><ele>3616.4</ele></trkpt><trkpt lat="46.447192" lon="10.618633"><time>2022-08-24T08:48:23.000Z</time><ele>3615.2</ele></trkpt><trkpt lat="46.447209" lon="10.618622"><time>2022-08-24T08:48:25.000Z</time><ele>3614.2</ele></trkpt><trkpt lat="46.447247" lon="10.618597"><time>2022-08-24T08:48:29.000Z</time><ele>3613</ele></trkpt><trkpt lat="46.447258" lon="10.61859"><time>2022-08-24T08:48:30.000Z</time><ele>3612.6</ele></trkpt><trkpt lat="46.447276" lon="10.618569"><time>2022-08-24T08:48:33.000Z</time><ele>3611.6</ele></trkpt><trkpt lat="46.447314" lon="10.618534"><time>2022-08-24T08:48:37.000Z</time><ele>3610.4</ele></trkpt><trkpt lat="46.447332" lon="10.618515"><time>2022-08-24T08:48:39.000Z</time><ele>3609.8</ele></trkpt><trkpt lat="46.44734" lon="10.618508"><time>2022-08-24T08:48:40.000Z</time><ele>3609.2</ele></trkpt><trkpt lat="46.447364" lon="10.618473"><time>2022-08-24T08:48:43.000Z</time><ele>3608.2</ele></trkpt><trkpt lat="46.447398" lon="10.618434"><time>2022-08-24T08:48:47.000Z</time><ele>3607.2</ele></trkpt><trkpt lat="46.447438" lon="10.61841"><time>2022-08-24T08:48:51.000Z</time><ele>3605.8</ele></trkpt><trkpt lat="46.447448" lon="10.618404"><time>2022-08-24T08:48:52.000Z</time><ele>3605.6</ele></trkpt><trkpt lat="46.447465" lon="10.618383"><time>2022-08-24T08:48:54.000Z</time><ele>3604.6</ele></trkpt><trkpt lat="46.447506" lon="10.618351"><time>2022-08-24T08:48:58.000Z</time><ele>3603.4</ele></trkpt><trkpt lat="46.447541" lon="10.618309"><time>2022-08-24T08:49:02.000Z</time><ele>3602.6</ele></trkpt><trkpt lat="46.447551" lon="10.618299"><time>2022-08-24T08:49:03.000Z</time><ele>3602.2</ele></trkpt><trkpt lat="46.447576" lon="10.618275"><time>2022-08-24T08:49:06.000Z</time><ele>3600.8</ele></trkpt><trkpt lat="46.44762" lon="10.618239"><time>2022-08-24T08:49:10.000Z</time><ele>3599.6</ele></trkpt><trkpt lat="46.447642" lon="10.618222"><time>2022-08-24T08:49:12.000Z</time><ele>3599</ele></trkpt><trkpt lat="46.447663" lon="10.618208"><time>2022-08-24T08:49:14.000Z</time><ele>3598.4</ele></trkpt><trkpt lat="46.447707" lon="10.618171"><time>2022-08-24T08:49:18.000Z</time><ele>3597.2</ele></trkpt><trkpt lat="46.447738" lon="10.618137"><time>2022-08-24T08:49:21.000Z</time><ele>3596.2</ele></trkpt><trkpt lat="46.447747" lon="10.618128"><time>2022-08-24T08:49:22.000Z</time><ele>3595.8</ele></trkpt><trkpt lat="46.447754" lon="10.618121"><time>2022-08-24T08:49:23.000Z</time><ele>3595.6</ele></trkpt><trkpt lat="46.447789" lon="10.618109"><time>2022-08-24T08:49:25.000Z</time><ele>3594.4</ele></trkpt><trkpt lat="46.447814" lon="10.618086"><time>2022-08-24T08:49:28.000Z</time><ele>3593.4</ele></trkpt><trkpt lat="46.447832" lon="10.618068"><time>2022-08-24T08:49:31.000Z</time><ele>3592.2</ele></trkpt><trkpt lat="46.447887" lon="10.618041"><time>2022-08-24T08:49:34.000Z</time><ele>3591.4</ele></trkpt><trkpt lat="46.447901" lon="10.618032"><time>2022-08-24T08:49:35.000Z</time><ele>3590.8</ele></trkpt><trkpt lat="46.447937" lon="10.618018"><time>2022-08-24T08:49:37.000Z</time><ele>3589.6</ele></trkpt><trkpt lat="46.447972" lon="10.617995"><time>2022-08-24T08:49:40.000Z</time><ele>3588.4</ele></trkpt><trkpt lat="46.448031" lon="10.61796"><time>2022-08-24T08:49:44.000Z</time><ele>3587</ele></trkpt><trkpt lat="46.448036" lon="10.61795"><time>2022-08-24T08:49:45.000Z</time><ele>3586.6</ele></trkpt><trkpt lat="46.44806" lon="10.617934"><time>2022-08-24T08:49:47.000Z</time><ele>3585.8</ele></trkpt><trkpt lat="46.448099" lon="10.617912"><time>2022-08-24T08:49:50.000Z</time><ele>3584.8</ele></trkpt><trkpt lat="46.448107" lon="10.617903"><time>2022-08-24T08:49:51.000Z</time><ele>3584.4</ele></trkpt><trkpt lat="46.448139" lon="10.617882"><time>2022-08-24T08:49:54.000Z</time><ele>3583.4</ele></trkpt><trkpt lat="46.448174" lon="10.617863"><time>2022-08-24T08:49:57.000Z</time><ele>3582.4</ele></trkpt><trkpt lat="46.448219" lon="10.617848"><time>2022-08-24T08:50:01.000Z</time><ele>3581.2</ele></trkpt><trkpt lat="46.44826" lon="10.617815"><time>2022-08-24T08:50:05.000Z</time><ele>3580</ele></trkpt><trkpt lat="46.448276" lon="10.617802"><time>2022-08-24T08:50:06.000Z</time><ele>3579.8</ele></trkpt><trkpt lat="46.448285" lon="10.617769"><time>2022-08-24T08:50:08.000Z</time><ele>3578.6</ele></trkpt><trkpt lat="46.448307" lon="10.617742"><time>2022-08-24T08:50:10.000Z</time><ele>3577.6</ele></trkpt><trkpt lat="46.448365" lon="10.617711"><time>2022-08-24T08:50:14.000Z</time><ele>3576.4</ele></trkpt><trkpt lat="46.448381" lon="10.617704"><time>2022-08-24T08:50:15.000Z</time><ele>3576.2</ele></trkpt><trkpt lat="46.448412" lon="10.617675"><time>2022-08-24T08:50:18.000Z</time><ele>3575.2</ele></trkpt><trkpt lat="46.44847" lon="10.617637"><time>2022-08-24T08:50:22.000Z</time><ele>3573.8</ele></trkpt><trkpt lat="46.448509" lon="10.617598"><time>2022-08-24T08:50:25.000Z</time><ele>3572.8</ele></trkpt><trkpt lat="46.448547" lon="10.617574"><time>2022-08-24T08:50:28.000Z</time><ele>3571.4</ele></trkpt><trkpt lat="46.448574" lon="10.617558"><time>2022-08-24T08:50:30.000Z</time><ele>3571</ele></trkpt><trkpt lat="46.448598" lon="10.617543"><time>2022-08-24T08:50:32.000Z</time><ele>3570.4</ele></trkpt><trkpt lat="46.448633" lon="10.617517"><time>2022-08-24T08:50:35.000Z</time><ele>3569.2</ele></trkpt><trkpt lat="46.448688" lon="10.617482"><time>2022-08-24T08:50:39.000Z</time><ele>3568.2</ele></trkpt><trkpt lat="46.448724" lon="10.617462"><time>2022-08-24T08:50:42.000Z</time><ele>3567.4</ele></trkpt><trkpt lat="46.448754" lon="10.617454"><time>2022-08-24T08:50:44.000Z</time><ele>3567</ele></trkpt><trkpt lat="46.448816" lon="10.617407"><time>2022-08-24T08:50:49.000Z</time><ele>3565.8</ele></trkpt><trkpt lat="46.448846" lon="10.61739"><time>2022-08-24T08:50:52.000Z</time><ele>3565.4</ele></trkpt><trkpt lat="46.448865" lon="10.617383"><time>2022-08-24T08:50:53.000Z</time><ele>3565</ele></trkpt><trkpt lat="46.448881" lon="10.617379"><time>2022-08-24T08:50:54.000Z</time><ele>3564.8</ele></trkpt><trkpt lat="46.448894" lon="10.617373"><time>2022-08-24T08:50:55.000Z</time><ele>3564.6</ele></trkpt><trkpt lat="46.448962" lon="10.617345"><time>2022-08-24T08:51:01.000Z</time><ele>3563.6</ele></trkpt><trkpt lat="46.44899" lon="10.617327"><time>2022-08-24T08:51:03.000Z</time><ele>3563.4</ele></trkpt><trkpt lat="46.449031" lon="10.61729"><time>2022-08-24T08:51:07.000Z</time><ele>3562.6</ele></trkpt><trkpt lat="46.449093" lon="10.617235"><time>2022-08-24T08:51:12.000Z</time><ele>3561.8</ele></trkpt><trkpt lat="46.449106" lon="10.617223"><time>2022-08-24T08:51:13.000Z</time><ele>3561.6</ele></trkpt><trkpt lat="46.449121" lon="10.617213"><time>2022-08-24T08:51:14.000Z</time><ele>3561.4</ele></trkpt><trkpt lat="46.449165" lon="10.617181"><time>2022-08-24T08:51:18.000Z</time><ele>3560.4</ele></trkpt><trkpt lat="46.449227" lon="10.61713"><time>2022-08-24T08:51:23.000Z</time><ele>3559</ele></trkpt><trkpt lat="46.449265" lon="10.617104"><time>2022-08-24T08:51:26.000Z</time><ele>3558.2</ele></trkpt><trkpt lat="46.449277" lon="10.617095"><time>2022-08-24T08:51:27.000Z</time><ele>3558</ele></trkpt><trkpt lat="46.449329" lon="10.61705"><time>2022-08-24T08:51:32.000Z</time><ele>3556.8</ele></trkpt><trkpt lat="46.449382" lon="10.617009"><time>2022-08-24T08:51:36.000Z</time><ele>3555.8</ele></trkpt><trkpt lat="46.449444" lon="10.616978"><time>2022-08-24T08:51:41.000Z</time><ele>3554.6</ele></trkpt><trkpt lat="46.449468" lon="10.61696"><time>2022-08-24T08:51:43.000Z</time><ele>3554.2</ele></trkpt><trkpt lat="46.449475" lon="10.616953"><time>2022-08-24T08:51:44.000Z</time><ele>3554</ele></trkpt><trkpt lat="46.449499" lon="10.616935"><time>2022-08-24T08:51:46.000Z</time><ele>3553.4</ele></trkpt><trkpt lat="46.449539" lon="10.616915"><time>2022-08-24T08:51:49.000Z</time><ele>3552.8</ele></trkpt><trkpt lat="46.44955" lon="10.616903"><time>2022-08-24T08:51:50.000Z</time><ele>3552.6</ele></trkpt><trkpt lat="46.449565" lon="10.616893"><time>2022-08-24T08:51:51.000Z</time><ele>3552.2</ele></trkpt><trkpt lat="46.4496" lon="10.616863"><time>2022-08-24T08:51:54.000Z</time><ele>3551.6</ele></trkpt><trkpt lat="46.449618" lon="10.616844"><time>2022-08-24T08:51:56.000Z</time><ele>3551</ele></trkpt><trkpt lat="46.449667" lon="10.616781"><time>2022-08-24T08:52:01.000Z</time><ele>3549.8</ele></trkpt><trkpt lat="46.449693" lon="10.61675"><time>2022-08-24T08:52:04.000Z</time><ele>3549.2</ele></trkpt><trkpt lat="46.449715" lon="10.616732"><time>2022-08-24T08:52:06.000Z</time><ele>3548.8</ele></trkpt><trkpt lat="46.449764" lon="10.616672"><time>2022-08-24T08:52:12.000Z</time><ele>3547.6</ele></trkpt><trkpt lat="46.4498" lon="10.616644"><time>2022-08-24T08:52:15.000Z</time><ele>3547</ele></trkpt><trkpt lat="46.449808" lon="10.616635"><time>2022-08-24T08:52:16.000Z</time><ele>3546.4</ele></trkpt><trkpt lat="46.449859" lon="10.6166"><time>2022-08-24T08:52:21.000Z</time><ele>3545.4</ele></trkpt><trkpt lat="46.449907" lon="10.616534"><time>2022-08-24T08:52:26.000Z</time><ele>3544.6</ele></trkpt><trkpt lat="46.449921" lon="10.61651"><time>2022-08-24T08:52:28.000Z</time><ele>3544.2</ele></trkpt><trkpt lat="46.449979" lon="10.616451"><time>2022-08-24T08:52:33.000Z</time><ele>3543.2</ele></trkpt><trkpt lat="46.44999" lon="10.616443"><time>2022-08-24T08:52:34.000Z</time><ele>3543</ele></trkpt><trkpt lat="46.450044" lon="10.616409"><time>2022-08-24T08:52:38.000Z</time><ele>3542</ele></trkpt><trkpt lat="46.45011" lon="10.616345"><time>2022-08-24T08:52:44.000Z</time><ele>3540.6</ele></trkpt><trkpt lat="46.450174" lon="10.616303"><time>2022-08-24T08:52:49.000Z</time><ele>3539.8</ele></trkpt><trkpt lat="46.450181" lon="10.616289"><time>2022-08-24T08:52:50.000Z</time><ele>3539.4</ele></trkpt><trkpt lat="46.45026" lon="10.616211"><time>2022-08-24T08:52:57.000Z</time><ele>3538.2</ele></trkpt><trkpt lat="46.45027" lon="10.616199"><time>2022-08-24T08:52:58.000Z</time><ele>3537.8</ele></trkpt><trkpt lat="46.450303" lon="10.616159"><time>2022-08-24T08:53:01.000Z</time><ele>3537.2</ele></trkpt><trkpt lat="46.450388" lon="10.616092"><time>2022-08-24T08:53:08.000Z</time><ele>3536</ele></trkpt><trkpt lat="46.450444" lon="10.616037"><time>2022-08-24T08:53:13.000Z</time><ele>3534.8</ele></trkpt><trkpt lat="46.450499" lon="10.615988"><time>2022-08-24T08:53:18.000Z</time><ele>3533.8</ele></trkpt><trkpt lat="46.450574" lon="10.61594"><time>2022-08-24T08:53:23.000Z</time><ele>3532.6</ele></trkpt><trkpt lat="46.45062" lon="10.615906"><time>2022-08-24T08:53:27.000Z</time><ele>3531.4</ele></trkpt><trkpt lat="46.450685" lon="10.615849"><time>2022-08-24T08:53:33.000Z</time><ele>3530.4</ele></trkpt><trkpt lat="46.450732" lon="10.615819"><time>2022-08-24T08:53:37.000Z</time><ele>3529.2</ele></trkpt><trkpt lat="46.450795" lon="10.615784"><time>2022-08-24T08:53:42.000Z</time><ele>3528</ele></trkpt><trkpt lat="46.450851" lon="10.615739"><time>2022-08-24T08:53:47.000Z</time><ele>3526.8</ele></trkpt><trkpt lat="46.450874" lon="10.615719"><time>2022-08-24T08:53:49.000Z</time><ele>3526.2</ele></trkpt><trkpt lat="46.450905" lon="10.61569"><time>2022-08-24T08:53:52.000Z</time><ele>3525.6</ele></trkpt><trkpt lat="46.450958" lon="10.61564"><time>2022-08-24T08:53:57.000Z</time><ele>3524.6</ele></trkpt><trkpt lat="46.450966" lon="10.61563"><time>2022-08-24T08:53:58.000Z</time><ele>3524.4</ele></trkpt><trkpt lat="46.451032" lon="10.615576"><time>2022-08-24T08:54:03.000Z</time><ele>3523.2</ele></trkpt><trkpt lat="46.451077" lon="10.615536"><time>2022-08-24T08:54:07.000Z</time><ele>3522.2</ele></trkpt><trkpt lat="46.451162" lon="10.615466"><time>2022-08-24T08:54:14.000Z</time><ele>3521</ele></trkpt><trkpt lat="46.4512" lon="10.615434"><time>2022-08-24T08:54:17.000Z</time><ele>3520.2</ele></trkpt><trkpt lat="46.451226" lon="10.615414"><time>2022-08-24T08:54:19.000Z</time><ele>3519.6</ele></trkpt><trkpt lat="46.451285" lon="10.615359"><time>2022-08-24T08:54:24.000Z</time><ele>3518.4</ele></trkpt><trkpt lat="46.451307" lon="10.615332"><time>2022-08-24T08:54:26.000Z</time><ele>3517.8</ele></trkpt><trkpt lat="46.451326" lon="10.615309"><time>2022-08-24T08:54:28.000Z</time><ele>3517</ele></trkpt><trkpt lat="46.451371" lon="10.615259"><time>2022-08-24T08:54:32.000Z</time><ele>3515.6</ele></trkpt><trkpt lat="46.451429" lon="10.615208"><time>2022-08-24T08:54:37.000Z</time><ele>3514</ele></trkpt><trkpt lat="46.451463" lon="10.61516"><time>2022-08-24T08:54:40.000Z</time><ele>3512.6</ele></trkpt><trkpt lat="46.451502" lon="10.615124"><time>2022-08-24T08:54:43.000Z</time><ele>3511.6</ele></trkpt><trkpt lat="46.451535" lon="10.615097"><time>2022-08-24T08:54:46.000Z</time><ele>3510.4</ele></trkpt><trkpt lat="46.451565" lon="10.615062"><time>2022-08-24T08:54:49.000Z</time><ele>3509.2</ele></trkpt><trkpt lat="46.451574" lon="10.615044"><time>2022-08-24T08:54:50.000Z</time><ele>3509</ele></trkpt><trkpt lat="46.451585" lon="10.615031"><time>2022-08-24T08:54:51.000Z</time><ele>3508.8</ele></trkpt><trkpt lat="46.451622" lon="10.614985"><time>2022-08-24T08:54:54.000Z</time><ele>3507.8</ele></trkpt><trkpt lat="46.451653" lon="10.614946"><time>2022-08-24T08:54:57.000Z</time><ele>3506.8</ele></trkpt><trkpt lat="46.451669" lon="10.614919"><time>2022-08-24T08:54:59.000Z</time><ele>3506</ele></trkpt><trkpt lat="46.451679" lon="10.61491"><time>2022-08-24T08:55:00.000Z</time><ele>3505.6</ele></trkpt><trkpt lat="46.451688" lon="10.614901"><time>2022-08-24T08:55:01.000Z</time><ele>3505.4</ele></trkpt><trkpt lat="46.45171" lon="10.614876"><time>2022-08-24T08:55:03.000Z</time><ele>3504.4</ele></trkpt><trkpt lat="46.451747" lon="10.614841"><time>2022-08-24T08:55:06.000Z</time><ele>3503.4</ele></trkpt><trkpt lat="46.451768" lon="10.614812"><time>2022-08-24T08:55:08.000Z</time><ele>3502.4</ele></trkpt><trkpt lat="46.451778" lon="10.614796"><time>2022-08-24T08:55:09.000Z</time><ele>3502.2</ele></trkpt><trkpt lat="46.45181" lon="10.61475"><time>2022-08-24T08:55:12.000Z</time><ele>3501.2</ele></trkpt><trkpt lat="46.451842" lon="10.614704"><time>2022-08-24T08:55:15.000Z</time><ele>3500</ele></trkpt><trkpt lat="46.451876" lon="10.614661"><time>2022-08-24T08:55:18.000Z</time><ele>3498.6</ele></trkpt><trkpt lat="46.451913" lon="10.614605"><time>2022-08-24T08:55:22.000Z</time><ele>3497.8</ele></trkpt><trkpt lat="46.451922" lon="10.61459"><time>2022-08-24T08:55:23.000Z</time><ele>3497.4</ele></trkpt><trkpt lat="46.451967" lon="10.614537"><time>2022-08-24T08:55:27.000Z</time><ele>3496</ele></trkpt><trkpt lat="46.45199" lon="10.614506"><time>2022-08-24T08:55:29.000Z</time><ele>3495.6</ele></trkpt><trkpt lat="46.451996" lon="10.614494"><time>2022-08-24T08:55:30.000Z</time><ele>3495.6</ele></trkpt><trkpt lat="46.452023" lon="10.614456"><time>2022-08-24T08:55:33.000Z</time><ele>3495</ele></trkpt><trkpt lat="46.452094" lon="10.614372"><time>2022-08-24T08:55:40.000Z</time><ele>3494.2</ele></trkpt><trkpt lat="46.45211" lon="10.614341"><time>2022-08-24T08:55:42.000Z</time><ele>3494</ele></trkpt><trkpt lat="46.452189" lon="10.614253"><time>2022-08-24T08:55:50.000Z</time><ele>3493.6</ele></trkpt><trkpt lat="46.452293" lon="10.614127"><time>2022-08-24T08:56:01.000Z</time><ele>3493.4</ele></trkpt><trkpt lat="46.452346" lon="10.614074"><time>2022-08-24T08:56:06.000Z</time><ele>3493</ele></trkpt><trkpt lat="46.452396" lon="10.614021"><time>2022-08-24T08:56:11.000Z</time><ele>3493.2</ele></trkpt><trkpt lat="46.452412" lon="10.613995"><time>2022-08-24T08:56:14.000Z</time><ele>3493.2</ele></trkpt><trkpt lat="46.45244" lon="10.613953"><time>2022-08-24T08:56:16.000Z</time><ele>3493</ele></trkpt><trkpt lat="46.452505" lon="10.613876"><time>2022-08-24T08:56:23.000Z</time><ele>3492.8</ele></trkpt><trkpt lat="46.452526" lon="10.613853"><time>2022-08-24T08:56:25.000Z</time><ele>3492.8</ele></trkpt><trkpt lat="46.452614" lon="10.613764"><time>2022-08-24T08:56:34.000Z</time><ele>3492.4</ele></trkpt><trkpt lat="46.452726" lon="10.613633"><time>2022-08-24T08:56:45.000Z</time><ele>3492</ele></trkpt><trkpt lat="46.45284" lon="10.613542"><time>2022-08-24T08:56:55.000Z</time><ele>3491.8</ele></trkpt><trkpt lat="46.452859" lon="10.613516"><time>2022-08-24T08:56:57.000Z</time><ele>3491.4</ele></trkpt><trkpt lat="46.45294" lon="10.613437"><time>2022-08-24T08:57:04.000Z</time><ele>3490.6</ele></trkpt><trkpt lat="46.452974" lon="10.613404"><time>2022-08-24T08:57:07.000Z</time><ele>3490.4</ele></trkpt><trkpt lat="46.453073" lon="10.613298"><time>2022-08-24T08:57:16.000Z</time><ele>3490.2</ele></trkpt><trkpt lat="46.453113" lon="10.613261"><time>2022-08-24T08:57:19.000Z</time><ele>3489.6</ele></trkpt><trkpt lat="46.453206" lon="10.613172"><time>2022-08-24T08:57:27.000Z</time><ele>3489.2</ele></trkpt><trkpt lat="46.453325" lon="10.613047"><time>2022-08-24T08:57:38.000Z</time><ele>3488.6</ele></trkpt><trkpt lat="46.453337" lon="10.613037"><time>2022-08-24T08:57:39.000Z</time><ele>3488.4</ele></trkpt><trkpt lat="46.453462" lon="10.612966"><time>2022-08-24T08:57:49.000Z</time><ele>3487.8</ele></trkpt><trkpt lat="46.453532" lon="10.612945"><time>2022-08-24T08:57:55.000Z</time><ele>3487.4</ele></trkpt><trkpt lat="46.453532" lon="10.612943"><time>2022-08-24T08:57:57.000Z</time><ele>3487</ele></trkpt><trkpt lat="46.453526" lon="10.612943"><time>2022-08-24T08:58:02.000Z</time><ele>3487</ele></trkpt><trkpt lat="46.453527" lon="10.612942"><time>2022-08-24T08:58:09.000Z</time><ele>3486.6</ele></trkpt><trkpt lat="46.453525" lon="10.612942"><time>2022-08-24T08:58:22.000Z</time><ele>3486.8</ele></trkpt><trkpt lat="46.453521" lon="10.612936"><time>2022-08-24T08:58:30.000Z</time><ele>3487</ele></trkpt><trkpt lat="46.453518" lon="10.612931"><time>2022-08-24T08:58:36.000Z</time><ele>3487.4</ele></trkpt><trkpt lat="46.453517" lon="10.612929"><time>2022-08-24T08:58:38.000Z</time><ele>3487.6</ele></trkpt><trkpt lat="46.453515" lon="10.612927"><time>2022-08-24T08:58:40.000Z</time><ele>3487.8</ele></trkpt><trkpt lat="46.453515" lon="10.612926"><time>2022-08-24T08:58:43.000Z</time><ele>3488</ele></trkpt><trkpt lat="46.453561" lon="10.612905"><time>2022-08-24T08:58:50.000Z</time><ele>3487.8</ele></trkpt><trkpt lat="46.453645" lon="10.612829"><time>2022-08-24T08:58:58.000Z</time><ele>3487.2</ele></trkpt><trkpt lat="46.4537" lon="10.612748"><time>2022-08-24T08:59:05.000Z</time><ele>3486.8</ele></trkpt><trkpt lat="46.45376" lon="10.612709"><time>2022-08-24T08:59:10.000Z</time><ele>3486.2</ele></trkpt><trkpt lat="46.453831" lon="10.612655"><time>2022-08-24T08:59:16.000Z</time><ele>3485.4</ele></trkpt><trkpt lat="46.453858" lon="10.612642"><time>2022-08-24T08:59:18.000Z</time><ele>3485</ele></trkpt><trkpt lat="46.453909" lon="10.612592"><time>2022-08-24T08:59:23.000Z</time><ele>3484</ele></trkpt><trkpt lat="46.453968" lon="10.612535"><time>2022-08-24T08:59:29.000Z</time><ele>3482.8</ele></trkpt><trkpt lat="46.454054" lon="10.612471"><time>2022-08-24T08:59:37.000Z</time><ele>3481.6</ele></trkpt><trkpt lat="46.454111" lon="10.612432"><time>2022-08-24T08:59:41.000Z</time><ele>3481</ele></trkpt><trkpt lat="46.454136" lon="10.612416"><time>2022-08-24T08:59:43.000Z</time><ele>3480.4</ele></trkpt><trkpt lat="46.454169" lon="10.612366"><time>2022-08-24T08:59:47.000Z</time><ele>3479.8</ele></trkpt><trkpt lat="46.454178" lon="10.612352"><time>2022-08-24T08:59:48.000Z</time><ele>3479.4</ele></trkpt><trkpt lat="46.454194" lon="10.612325"><time>2022-08-24T08:59:50.000Z</time><ele>3479</ele></trkpt><trkpt lat="46.454231" lon="10.612275"><time>2022-08-24T08:59:54.000Z</time><ele>3478.2</ele></trkpt><trkpt lat="46.454263" lon="10.612247"><time>2022-08-24T08:59:57.000Z</time><ele>3477.6</ele></trkpt><trkpt lat="46.454291" lon="10.612235"><time>2022-08-24T08:59:59.000Z</time><ele>3477.2</ele></trkpt><trkpt lat="46.454317" lon="10.612218"><time>2022-08-24T09:00:01.000Z</time><ele>3476.6</ele></trkpt><trkpt lat="46.454345" lon="10.61221"><time>2022-08-24T09:00:03.000Z</time><ele>3476.2</ele></trkpt><trkpt lat="46.454374" lon="10.612183"><time>2022-08-24T09:00:06.000Z</time><ele>3475.8</ele></trkpt><trkpt lat="46.45442" lon="10.612147"><time>2022-08-24T09:00:10.000Z</time><ele>3475</ele></trkpt><trkpt lat="46.45443" lon="10.612142"><time>2022-08-24T09:00:11.000Z</time><ele>3474.8</ele></trkpt><trkpt lat="46.45448" lon="10.612092"><time>2022-08-24T09:00:16.000Z</time><ele>3474</ele></trkpt><trkpt lat="46.454505" lon="10.612058"><time>2022-08-24T09:00:19.000Z</time><ele>3472.8</ele></trkpt><trkpt lat="46.454513" lon="10.61205"><time>2022-08-24T09:00:20.000Z</time><ele>3472.6</ele></trkpt><trkpt lat="46.454526" lon="10.612043"><time>2022-08-24T09:00:21.000Z</time><ele>3472.4</ele></trkpt><trkpt lat="46.454586" lon="10.611997"><time>2022-08-24T09:00:26.000Z</time><ele>3471.6</ele></trkpt><trkpt lat="46.454597" lon="10.611991"><time>2022-08-24T09:00:27.000Z</time><ele>3471.4</ele></trkpt><trkpt lat="46.454665" lon="10.611929"><time>2022-08-24T09:00:33.000Z</time><ele>3470.6</ele></trkpt><trkpt lat="46.45471" lon="10.611891"><time>2022-08-24T09:00:38.000Z</time><ele>3469.8</ele></trkpt><trkpt lat="46.454731" lon="10.611874"><time>2022-08-24T09:00:40.000Z</time><ele>3469.6</ele></trkpt><trkpt lat="46.454774" lon="10.611838"><time>2022-08-24T09:00:44.000Z</time><ele>3468.4</ele></trkpt><trkpt lat="46.454804" lon="10.611821"><time>2022-08-24T09:00:47.000Z</time><ele>3467.8</ele></trkpt><trkpt lat="46.454849" lon="10.611795"><time>2022-08-24T09:00:51.000Z</time><ele>3467.2</ele></trkpt><trkpt lat="46.454918" lon="10.611782"><time>2022-08-24T09:00:57.000Z</time><ele>3466</ele></trkpt><trkpt lat="46.454989" lon="10.611756"><time>2022-08-24T09:01:03.000Z</time><ele>3465</ele></trkpt><trkpt lat="46.455011" lon="10.61176"><time>2022-08-24T09:01:05.000Z</time><ele>3464.4</ele></trkpt><trkpt lat="46.455039" lon="10.611758"><time>2022-08-24T09:01:07.000Z</time><ele>3463.8</ele></trkpt><trkpt lat="46.455111" lon="10.61173"><time>2022-08-24T09:01:14.000Z</time><ele>3462.8</ele></trkpt><trkpt lat="46.45512" lon="10.611725"><time>2022-08-24T09:01:15.000Z</time><ele>3462.6</ele></trkpt><trkpt lat="46.455176" lon="10.611706"><time>2022-08-24T09:01:20.000Z</time><ele>3461.6</ele></trkpt><trkpt lat="46.455215" lon="10.61169"><time>2022-08-24T09:01:24.000Z</time><ele>3461.2</ele></trkpt><trkpt lat="46.45524" lon="10.611653"><time>2022-08-24T09:01:28.000Z</time><ele>3460.4</ele></trkpt><trkpt lat="46.455261" lon="10.611641"><time>2022-08-24T09:01:30.000Z</time><ele>3459.8</ele></trkpt><trkpt lat="46.455283" lon="10.611635"><time>2022-08-24T09:01:32.000Z</time><ele>3459.4</ele></trkpt><trkpt lat="46.45536" lon="10.61161"><time>2022-08-24T09:01:39.000Z</time><ele>3458.4</ele></trkpt><trkpt lat="46.45545" lon="10.611589"><time>2022-08-24T09:01:48.000Z</time><ele>3457.2</ele></trkpt><trkpt lat="46.455454" lon="10.611582"><time>2022-08-24T09:01:49.000Z</time><ele>3457</ele></trkpt><trkpt lat="46.455514" lon="10.611563"><time>2022-08-24T09:01:55.000Z</time><ele>3456</ele></trkpt><trkpt lat="46.455583" lon="10.611549"><time>2022-08-24T09:02:00.000Z</time><ele>3455.4</ele></trkpt><trkpt lat="46.455643" lon="10.611524"><time>2022-08-24T09:02:05.000Z</time><ele>3455</ele></trkpt><trkpt lat="46.455704" lon="10.611491"><time>2022-08-24T09:02:11.000Z</time><ele>3454.8</ele></trkpt><trkpt lat="46.455769" lon="10.611415"><time>2022-08-24T09:02:18.000Z</time><ele>3454</ele></trkpt><trkpt lat="46.455789" lon="10.611398"><time>2022-08-24T09:02:20.000Z</time><ele>3453.8</ele></trkpt><trkpt lat="46.455857" lon="10.611366"><time>2022-08-24T09:02:26.000Z</time><ele>3453.8</ele></trkpt><trkpt lat="46.455889" lon="10.611348"><time>2022-08-24T09:02:29.000Z</time><ele>3453.6</ele></trkpt><trkpt lat="46.4559" lon="10.611342"><time>2022-08-24T09:02:30.000Z</time><ele>3453.6</ele></trkpt><trkpt lat="46.455908" lon="10.611332"><time>2022-08-24T09:02:31.000Z</time><ele>3453.6</ele></trkpt><trkpt lat="46.455963" lon="10.611277"><time>2022-08-24T09:02:37.000Z</time><ele>3453.6</ele></trkpt><trkpt lat="46.455972" lon="10.611271"><time>2022-08-24T09:02:38.000Z</time><ele>3453.6</ele></trkpt><trkpt lat="46.455993" lon="10.611253"><time>2022-08-24T09:02:40.000Z</time><ele>3453.4</ele></trkpt><trkpt lat="46.45605" lon="10.611201"><time>2022-08-24T09:02:47.000Z</time><ele>3453</ele></trkpt><trkpt lat="46.45606" lon="10.611193"><time>2022-08-24T09:02:48.000Z</time><ele>3453</ele></trkpt><trkpt lat="46.456086" lon="10.611175"><time>2022-08-24T09:02:51.000Z</time><ele>3453</ele></trkpt><trkpt lat="46.456114" lon="10.611161"><time>2022-08-24T09:02:54.000Z</time><ele>3453</ele></trkpt><trkpt lat="46.456134" lon="10.611142"><time>2022-08-24T09:02:56.000Z</time><ele>3452.8</ele></trkpt><trkpt lat="46.456174" lon="10.611109"><time>2022-08-24T09:03:00.000Z</time><ele>3452.6</ele></trkpt><trkpt lat="46.456238" lon="10.611061"><time>2022-08-24T09:03:06.000Z</time><ele>3452.2</ele></trkpt><trkpt lat="46.456267" lon="10.611036"><time>2022-08-24T09:03:09.000Z</time><ele>3452</ele></trkpt><trkpt lat="46.456359" lon="10.610963"><time>2022-08-24T09:03:19.000Z</time><ele>3451.4</ele></trkpt><trkpt lat="46.456385" lon="10.610956"><time>2022-08-24T09:03:21.000Z</time><ele>3451</ele></trkpt><trkpt lat="46.456426" lon="10.610908"><time>2022-08-24T09:03:28.000Z</time><ele>3450</ele></trkpt><trkpt lat="46.456423" lon="10.61091"><time>2022-08-24T09:03:29.000Z</time><ele>3449.8</ele></trkpt><trkpt lat="46.456416" lon="10.610906"><time>2022-08-24T09:03:32.000Z</time><ele>3449.6</ele></trkpt><trkpt lat="46.456416" lon="10.610912"><time>2022-08-24T09:03:38.000Z</time><ele>3449.6</ele></trkpt><trkpt lat="46.456416" lon="10.610912"><time>2022-08-24T09:03:46.000Z</time><ele>3449.8</ele></trkpt><trkpt lat="46.456416" lon="10.610912"><time>2022-08-24T09:03:50.000Z</time><ele>3449.8</ele></trkpt><trkpt lat="46.456403" lon="10.610916"><time>2022-08-24T09:04:10.000Z</time><ele>3450.2</ele></trkpt><trkpt lat="46.456412" lon="10.610885"><time>2022-08-24T09:04:24.000Z</time><ele>3449</ele></trkpt><trkpt lat="46.456438" lon="10.610839"><time>2022-08-24T09:04:27.000Z</time><ele>3448.6</ele></trkpt><trkpt lat="46.456454" lon="10.6108"><time>2022-08-24T09:04:29.000Z</time><ele>3447.8</ele></trkpt><trkpt lat="46.456481" lon="10.610731"><time>2022-08-24T09:04:33.000Z</time><ele>3446.8</ele></trkpt><trkpt lat="46.456504" lon="10.610674"><time>2022-08-24T09:04:38.000Z</time><ele>3445.8</ele></trkpt><trkpt lat="46.456531" lon="10.610653"><time>2022-08-24T09:04:41.000Z</time><ele>3445.2</ele></trkpt><trkpt lat="46.456551" lon="10.610648"><time>2022-08-24T09:04:43.000Z</time><ele>3444.6</ele></trkpt><trkpt lat="46.456561" lon="10.610645"><time>2022-08-24T09:04:44.000Z</time><ele>3444.4</ele></trkpt><trkpt lat="46.456575" lon="10.61064"><time>2022-08-24T09:04:45.000Z</time><ele>3444.4</ele></trkpt><trkpt lat="46.456625" lon="10.61061"><time>2022-08-24T09:04:50.000Z</time><ele>3443.4</ele></trkpt><trkpt lat="46.456651" lon="10.610594"><time>2022-08-24T09:04:53.000Z</time><ele>3442.4</ele></trkpt><trkpt lat="46.456669" lon="10.610581"><time>2022-08-24T09:04:55.000Z</time><ele>3442</ele></trkpt><trkpt lat="46.456697" lon="10.610561"><time>2022-08-24T09:04:58.000Z</time><ele>3441.4</ele></trkpt><trkpt lat="46.456731" lon="10.610537"><time>2022-08-24T09:05:02.000Z</time><ele>3440.2</ele></trkpt><trkpt lat="46.456745" lon="10.610529"><time>2022-08-24T09:05:04.000Z</time><ele>3439.6</ele></trkpt><trkpt lat="46.456759" lon="10.610515"><time>2022-08-24T09:05:06.000Z</time><ele>3439.2</ele></trkpt><trkpt lat="46.456789" lon="10.610498"><time>2022-08-24T09:05:09.000Z</time><ele>3438.2</ele></trkpt><trkpt lat="46.456797" lon="10.610491"><time>2022-08-24T09:05:10.000Z</time><ele>3438</ele></trkpt><trkpt lat="46.456827" lon="10.610478"><time>2022-08-24T09:05:13.000Z</time><ele>3437.2</ele></trkpt><trkpt lat="46.45684" lon="10.610471"><time>2022-08-24T09:05:14.000Z</time><ele>3436.6</ele></trkpt><trkpt lat="46.456864" lon="10.610444"><time>2022-08-24T09:05:18.000Z</time><ele>3435.2</ele></trkpt><trkpt lat="46.456883" lon="10.610441"><time>2022-08-24T09:05:20.000Z</time><ele>3434.8</ele></trkpt><trkpt lat="46.456898" lon="10.610448"><time>2022-08-24T09:05:21.000Z</time><ele>3434.2</ele></trkpt><trkpt lat="46.456908" lon="10.610447"><time>2022-08-24T09:05:22.000Z</time><ele>3434</ele></trkpt><trkpt lat="46.456971" lon="10.610436"><time>2022-08-24T09:05:28.000Z</time><ele>3432.8</ele></trkpt><trkpt lat="46.456985" lon="10.610439"><time>2022-08-24T09:05:30.000Z</time><ele>3432</ele></trkpt><trkpt lat="46.457001" lon="10.610461"><time>2022-08-24T09:05:32.000Z</time><ele>3431.8</ele></trkpt><trkpt lat="46.457011" lon="10.610523"><time>2022-08-24T09:05:37.000Z</time><ele>3431.6</ele></trkpt><trkpt lat="46.457037" lon="10.610644"><time>2022-08-24T09:05:47.000Z</time><ele>3432.2</ele></trkpt><trkpt lat="46.457092" lon="10.610676"><time>2022-08-24T09:05:53.000Z</time><ele>3431.6</ele></trkpt><trkpt lat="46.457113" lon="10.610655"><time>2022-08-24T09:05:56.000Z</time><ele>3430.4</ele></trkpt><trkpt lat="46.457142" lon="10.610634"><time>2022-08-24T09:06:00.000Z</time><ele>3429.2</ele></trkpt><trkpt lat="46.457159" lon="10.610633"><time>2022-08-24T09:06:02.000Z</time><ele>3428.8</ele></trkpt><trkpt lat="46.457173" lon="10.610649"><time>2022-08-24T09:06:04.000Z</time><ele>3428.6</ele></trkpt><trkpt lat="46.457187" lon="10.610669"><time>2022-08-24T09:06:06.000Z</time><ele>3428.4</ele></trkpt><trkpt lat="46.457194" lon="10.610679"><time>2022-08-24T09:06:07.000Z</time><ele>3428.2</ele></trkpt><trkpt lat="46.457219" lon="10.610716"><time>2022-08-24T09:06:11.000Z</time><ele>3427.4</ele></trkpt><trkpt lat="46.457226" lon="10.610726"><time>2022-08-24T09:06:12.000Z</time><ele>3427.2</ele></trkpt><trkpt lat="46.457235" lon="10.610733"><time>2022-08-24T09:06:13.000Z</time><ele>3427</ele></trkpt><trkpt lat="46.457243" lon="10.61074"><time>2022-08-24T09:06:14.000Z</time><ele>3426.8</ele></trkpt><trkpt lat="46.457257" lon="10.610746"><time>2022-08-24T09:06:16.000Z</time><ele>3426.4</ele></trkpt><trkpt lat="46.457279" lon="10.610755"><time>2022-08-24T09:06:18.000Z</time><ele>3425.8</ele></trkpt><trkpt lat="46.457291" lon="10.610756"><time>2022-08-24T09:06:19.000Z</time><ele>3425.4</ele></trkpt><trkpt lat="46.457312" lon="10.610751"><time>2022-08-24T09:06:22.000Z</time><ele>3424.4</ele></trkpt><trkpt lat="46.45733" lon="10.610747"><time>2022-08-24T09:06:24.000Z</time><ele>3424</ele></trkpt><trkpt lat="46.457344" lon="10.610749"><time>2022-08-24T09:06:26.000Z</time><ele>3423.4</ele></trkpt><trkpt lat="46.45735" lon="10.610751"><time>2022-08-24T09:06:27.000Z</time><ele>3423.4</ele></trkpt><trkpt lat="46.457369" lon="10.610775"><time>2022-08-24T09:06:31.000Z</time><ele>3422.6</ele></trkpt><trkpt lat="46.457377" lon="10.610781"><time>2022-08-24T09:06:32.000Z</time><ele>3422.2</ele></trkpt><trkpt lat="46.457384" lon="10.61079"><time>2022-08-24T09:06:33.000Z</time><ele>3422</ele></trkpt><trkpt lat="46.457394" lon="10.61081"><time>2022-08-24T09:06:35.000Z</time><ele>3421.6</ele></trkpt><trkpt lat="46.457419" lon="10.610853"><time>2022-08-24T09:06:39.000Z</time><ele>3421.2</ele></trkpt><trkpt lat="46.457425" lon="10.610864"><time>2022-08-24T09:06:40.000Z</time><ele>3421</ele></trkpt><trkpt lat="46.457445" lon="10.610894"><time>2022-08-24T09:06:44.000Z</time><ele>3420.6</ele></trkpt><trkpt lat="46.457457" lon="10.610907"><time>2022-08-24T09:06:46.000Z</time><ele>3420.2</ele></trkpt><trkpt lat="46.457464" lon="10.610911"><time>2022-08-24T09:06:47.000Z</time><ele>3420</ele></trkpt><trkpt lat="46.457496" lon="10.610911"><time>2022-08-24T09:06:50.000Z</time><ele>3419.6</ele></trkpt><trkpt lat="46.457518" lon="10.610916"><time>2022-08-24T09:06:52.000Z</time><ele>3419</ele></trkpt><trkpt lat="46.457527" lon="10.610921"><time>2022-08-24T09:06:53.000Z</time><ele>3418.6</ele></trkpt><trkpt lat="46.457548" lon="10.610925"><time>2022-08-24T09:06:56.000Z</time><ele>3417.2</ele></trkpt><trkpt lat="46.457559" lon="10.610913"><time>2022-08-24T09:06:58.000Z</time><ele>3416.6</ele></trkpt><trkpt lat="46.457567" lon="10.61091"><time>2022-08-24T09:06:59.000Z</time><ele>3416.2</ele></trkpt><trkpt lat="46.457593" lon="10.610898"><time>2022-08-24T09:07:03.000Z</time><ele>3414.6</ele></trkpt><trkpt lat="46.457607" lon="10.610908"><time>2022-08-24T09:07:06.000Z</time><ele>3413.6</ele></trkpt><trkpt lat="46.457618" lon="10.610916"><time>2022-08-24T09:07:08.000Z</time><ele>3413.2</ele></trkpt><trkpt lat="46.457639" lon="10.610911"><time>2022-08-24T09:07:11.000Z</time><ele>3412.2</ele></trkpt><trkpt lat="46.457669" lon="10.610904"><time>2022-08-24T09:07:14.000Z</time><ele>3411</ele></trkpt><trkpt lat="46.457687" lon="10.610898"><time>2022-08-24T09:07:16.000Z</time><ele>3410.4</ele></trkpt><trkpt lat="46.457698" lon="10.610897"><time>2022-08-24T09:07:17.000Z</time><ele>3410</ele></trkpt><trkpt lat="46.457704" lon="10.610898"><time>2022-08-24T09:07:18.000Z</time><ele>3409.6</ele></trkpt><trkpt lat="46.457712" lon="10.610894"><time>2022-08-24T09:07:19.000Z</time><ele>3409.2</ele></trkpt><trkpt lat="46.457719" lon="10.610889"><time>2022-08-24T09:07:20.000Z</time><ele>3408.8</ele></trkpt><trkpt lat="46.457733" lon="10.610875"><time>2022-08-24T09:07:22.000Z</time><ele>3407.8</ele></trkpt><trkpt lat="46.457743" lon="10.61086"><time>2022-08-24T09:07:24.000Z</time><ele>3407.2</ele></trkpt><trkpt lat="46.457762" lon="10.610849"><time>2022-08-24T09:07:26.000Z</time><ele>3406.4</ele></trkpt><trkpt lat="46.457776" lon="10.61082"><time>2022-08-24T09:07:29.000Z</time><ele>3405</ele></trkpt><trkpt lat="46.45779" lon="10.610807"><time>2022-08-24T09:07:32.000Z</time><ele>3404.2</ele></trkpt><trkpt lat="46.457798" lon="10.610808"><time>2022-08-24T09:07:33.000Z</time><ele>3404</ele></trkpt><trkpt lat="46.457834" lon="10.61081"><time>2022-08-24T09:07:37.000Z</time><ele>3402.6</ele></trkpt><trkpt lat="46.457859" lon="10.610807"><time>2022-08-24T09:07:41.000Z</time><ele>3401.6</ele></trkpt><trkpt lat="46.457865" lon="10.610804"><time>2022-08-24T09:07:42.000Z</time><ele>3401.2</ele></trkpt><trkpt lat="46.457913" lon="10.61079"><time>2022-08-24T09:07:46.000Z</time><ele>3400</ele></trkpt><trkpt lat="46.457925" lon="10.610771"><time>2022-08-24T09:07:48.000Z</time><ele>3399</ele></trkpt><trkpt lat="46.457931" lon="10.610765"><time>2022-08-24T09:07:49.000Z</time><ele>3398.4</ele></trkpt><trkpt lat="46.457952" lon="10.610745"><time>2022-08-24T09:07:52.000Z</time><ele>3397.8</ele></trkpt><trkpt lat="46.457986" lon="10.61072"><time>2022-08-24T09:07:56.000Z</time><ele>3396.8</ele></trkpt><trkpt lat="46.458" lon="10.610707"><time>2022-08-24T09:07:58.000Z</time><ele>3395.8</ele></trkpt><trkpt lat="46.458006" lon="10.610699"><time>2022-08-24T09:07:59.000Z</time><ele>3395.4</ele></trkpt><trkpt lat="46.458024" lon="10.61069"><time>2022-08-24T09:08:01.000Z</time><ele>3394.6</ele></trkpt><trkpt lat="46.458036" lon="10.610687"><time>2022-08-24T09:08:02.000Z</time><ele>3394.4</ele></trkpt><trkpt lat="46.458044" lon="10.61068"><time>2022-08-24T09:08:03.000Z</time><ele>3394.4</ele></trkpt><trkpt lat="46.458075" lon="10.610665"><time>2022-08-24T09:08:07.000Z</time><ele>3393.2</ele></trkpt><trkpt lat="46.458096" lon="10.610666"><time>2022-08-24T09:08:09.000Z</time><ele>3392.8</ele></trkpt><trkpt lat="46.458119" lon="10.610671"><time>2022-08-24T09:08:11.000Z</time><ele>3392.2</ele></trkpt><trkpt lat="46.458155" lon="10.610666"><time>2022-08-24T09:08:15.000Z</time><ele>3391.2</ele></trkpt><trkpt lat="46.458184" lon="10.610666"><time>2022-08-24T09:08:18.000Z</time><ele>3390.4</ele></trkpt><trkpt lat="46.458194" lon="10.610666"><time>2022-08-24T09:08:19.000Z</time><ele>3389.8</ele></trkpt><trkpt lat="46.458202" lon="10.610664"><time>2022-08-24T09:08:20.000Z</time><ele>3389.4</ele></trkpt><trkpt lat="46.458219" lon="10.610662"><time>2022-08-24T09:08:22.000Z</time><ele>3388.6</ele></trkpt><trkpt lat="46.458235" lon="10.610657"><time>2022-08-24T09:08:24.000Z</time><ele>3388.4</ele></trkpt><trkpt lat="46.458252" lon="10.610652"><time>2022-08-24T09:08:26.000Z</time><ele>3387.6</ele></trkpt><trkpt lat="46.458264" lon="10.610656"><time>2022-08-24T09:08:28.000Z</time><ele>3387.2</ele></trkpt><trkpt lat="46.458307" lon="10.610661"><time>2022-08-24T09:08:32.000Z</time><ele>3386.4</ele></trkpt><trkpt lat="46.458322" lon="10.610664"><time>2022-08-24T09:08:33.000Z</time><ele>3386.2</ele></trkpt><trkpt lat="46.45835" lon="10.610672"><time>2022-08-24T09:08:36.000Z</time><ele>3385.4</ele></trkpt><trkpt lat="46.458374" lon="10.610669"><time>2022-08-24T09:08:38.000Z</time><ele>3385</ele></trkpt><trkpt lat="46.458394" lon="10.610654"><time>2022-08-24T09:08:40.000Z</time><ele>3384.4</ele></trkpt><trkpt lat="46.458433" lon="10.610619"><time>2022-08-24T09:08:44.000Z</time><ele>3383</ele></trkpt><trkpt lat="46.458443" lon="10.610617"><time>2022-08-24T09:08:45.000Z</time><ele>3382.6</ele></trkpt><trkpt lat="46.458461" lon="10.610619"><time>2022-08-24T09:08:47.000Z</time><ele>3382</ele></trkpt><trkpt lat="46.458483" lon="10.610623"><time>2022-08-24T09:08:50.000Z</time><ele>3381.2</ele></trkpt><trkpt lat="46.458493" lon="10.610622"><time>2022-08-24T09:08:51.000Z</time><ele>3381</ele></trkpt><trkpt lat="46.458504" lon="10.610618"><time>2022-08-24T09:08:52.000Z</time><ele>3380.8</ele></trkpt><trkpt lat="46.458528" lon="10.61061"><time>2022-08-24T09:08:54.000Z</time><ele>3380.2</ele></trkpt><trkpt lat="46.458544" lon="10.610604"><time>2022-08-24T09:08:55.000Z</time><ele>3379.6</ele></trkpt><trkpt lat="46.458565" lon="10.610585"><time>2022-08-24T09:08:58.000Z</time><ele>3379</ele></trkpt><trkpt lat="46.458594" lon="10.610576"><time>2022-08-24T09:09:00.000Z</time><ele>3378.6</ele></trkpt><trkpt lat="46.458659" lon="10.610556"><time>2022-08-24T09:09:06.000Z</time><ele>3377.6</ele></trkpt><trkpt lat="46.458715" lon="10.610513"><time>2022-08-24T09:09:11.000Z</time><ele>3376.4</ele></trkpt><trkpt lat="46.458746" lon="10.61049"><time>2022-08-24T09:09:13.000Z</time><ele>3376</ele></trkpt><trkpt lat="46.458767" lon="10.610469"><time>2022-08-24T09:09:15.000Z</time><ele>3375.4</ele></trkpt><trkpt lat="46.458789" lon="10.610457"><time>2022-08-24T09:09:17.000Z</time><ele>3375.2</ele></trkpt><trkpt lat="46.458845" lon="10.610437"><time>2022-08-24T09:09:21.000Z</time><ele>3374.6</ele></trkpt><trkpt lat="46.458857" lon="10.610431"><time>2022-08-24T09:09:22.000Z</time><ele>3374.6</ele></trkpt><trkpt lat="46.458868" lon="10.610427"><time>2022-08-24T09:09:23.000Z</time><ele>3374.4</ele></trkpt><trkpt lat="46.458877" lon="10.610419"><time>2022-08-24T09:09:24.000Z</time><ele>3374.4</ele></trkpt><trkpt lat="46.458888" lon="10.610411"><time>2022-08-24T09:09:25.000Z</time><ele>3374.2</ele></trkpt><trkpt lat="46.458929" lon="10.610385"><time>2022-08-24T09:09:29.000Z</time><ele>3373.8</ele></trkpt><trkpt lat="46.458966" lon="10.610349"><time>2022-08-24T09:09:32.000Z</time><ele>3373.2</ele></trkpt><trkpt lat="46.458974" lon="10.610336"><time>2022-08-24T09:09:33.000Z</time><ele>3373</ele></trkpt><trkpt lat="46.458991" lon="10.610322"><time>2022-08-24T09:09:35.000Z</time><ele>3372.8</ele></trkpt><trkpt lat="46.459032" lon="10.610279"><time>2022-08-24T09:09:39.000Z</time><ele>3372.2</ele></trkpt><trkpt lat="46.459041" lon="10.610271"><time>2022-08-24T09:09:40.000Z</time><ele>3372</ele></trkpt><trkpt lat="46.459068" lon="10.610208"><time>2022-08-24T09:09:45.000Z</time><ele>3371.4</ele></trkpt><trkpt lat="46.459076" lon="10.610201"><time>2022-08-24T09:09:46.000Z</time><ele>3371.4</ele></trkpt><trkpt lat="46.45914" lon="10.610175"><time>2022-08-24T09:09:52.000Z</time><ele>3370.8</ele></trkpt><trkpt lat="46.459163" lon="10.610159"><time>2022-08-24T09:09:55.000Z</time><ele>3370.4</ele></trkpt><trkpt lat="46.459185" lon="10.610141"><time>2022-08-24T09:09:56.000Z</time><ele>3370.2</ele></trkpt><trkpt lat="46.459211" lon="10.610118"><time>2022-08-24T09:09:58.000Z</time><ele>3369.8</ele></trkpt><trkpt lat="46.459257" lon="10.610092"><time>2022-08-24T09:10:02.000Z</time><ele>3369</ele></trkpt><trkpt lat="46.45931" lon="10.610092"><time>2022-08-24T09:10:06.000Z</time><ele>3368.6</ele></trkpt><trkpt lat="46.459346" lon="10.610069"><time>2022-08-24T09:10:10.000Z</time><ele>3367.4</ele></trkpt><trkpt lat="46.459363" lon="10.610053"><time>2022-08-24T09:10:12.000Z</time><ele>3367.2</ele></trkpt><trkpt lat="46.459382" lon="10.61001"><time>2022-08-24T09:10:15.000Z</time><ele>3366.8</ele></trkpt><trkpt lat="46.459388" lon="10.609999"><time>2022-08-24T09:10:16.000Z</time><ele>3366.6</ele></trkpt><trkpt lat="46.459398" lon="10.609988"><time>2022-08-24T09:10:17.000Z</time><ele>3366.4</ele></trkpt><trkpt lat="46.459403" lon="10.609975"><time>2022-08-24T09:10:18.000Z</time><ele>3366.2</ele></trkpt><trkpt lat="46.459412" lon="10.609954"><time>2022-08-24T09:10:19.000Z</time><ele>3366</ele></trkpt><trkpt lat="46.45943" lon="10.609931"><time>2022-08-24T09:10:21.000Z</time><ele>3365.6</ele></trkpt><trkpt lat="46.459443" lon="10.609908"><time>2022-08-24T09:10:23.000Z</time><ele>3365.2</ele></trkpt><trkpt lat="46.459469" lon="10.609867"><time>2022-08-24T09:10:26.000Z</time><ele>3364.6</ele></trkpt><trkpt lat="46.459485" lon="10.609844"><time>2022-08-24T09:10:28.000Z</time><ele>3363.8</ele></trkpt><trkpt lat="46.459504" lon="10.609827"><time>2022-08-24T09:10:30.000Z</time><ele>3363.4</ele></trkpt><trkpt lat="46.459538" lon="10.609789"><time>2022-08-24T09:10:34.000Z</time><ele>3362.8</ele></trkpt><trkpt lat="46.45955" lon="10.609775"><time>2022-08-24T09:10:35.000Z</time><ele>3362.6</ele></trkpt><trkpt lat="46.459556" lon="10.60977"><time>2022-08-24T09:10:36.000Z</time><ele>3362.2</ele></trkpt><trkpt lat="46.459594" lon="10.609729"><time>2022-08-24T09:10:40.000Z</time><ele>3361.4</ele></trkpt><trkpt lat="46.459627" lon="10.60966"><time>2022-08-24T09:10:45.000Z</time><ele>3360.4</ele></trkpt><trkpt lat="46.459654" lon="10.60961"><time>2022-08-24T09:10:49.000Z</time><ele>3359.2</ele></trkpt><trkpt lat="46.459682" lon="10.609573"><time>2022-08-24T09:10:53.000Z</time><ele>3358.6</ele></trkpt><trkpt lat="46.459687" lon="10.609572"><time>2022-08-24T09:10:54.000Z</time><ele>3358.4</ele></trkpt><trkpt lat="46.459691" lon="10.609571"><time>2022-08-24T09:10:55.000Z</time><ele>3358</ele></trkpt><trkpt lat="46.459713" lon="10.609559"><time>2022-08-24T09:10:58.000Z</time><ele>3357</ele></trkpt><trkpt lat="46.45972" lon="10.609566"><time>2022-08-24T09:10:59.000Z</time><ele>3357</ele></trkpt><trkpt lat="46.459735" lon="10.609588"><time>2022-08-24T09:11:01.000Z</time><ele>3356.8</ele></trkpt><trkpt lat="46.459753" lon="10.609603"><time>2022-08-24T09:11:03.000Z</time><ele>3356.6</ele></trkpt><trkpt lat="46.45977" lon="10.609605"><time>2022-08-24T09:11:05.000Z</time><ele>3356.4</ele></trkpt><trkpt lat="46.459858" lon="10.609613"><time>2022-08-24T09:11:13.000Z</time><ele>3355.8</ele></trkpt><trkpt lat="46.45988" lon="10.609622"><time>2022-08-24T09:11:15.000Z</time><ele>3355.4</ele></trkpt><trkpt lat="46.459953" lon="10.609646"><time>2022-08-24T09:11:21.000Z</time><ele>3354.8</ele></trkpt><trkpt lat="46.46" lon="10.609626"><time>2022-08-24T09:11:26.000Z</time><ele>3353.6</ele></trkpt><trkpt lat="46.460018" lon="10.609606"><time>2022-08-24T09:11:29.000Z</time><ele>3353</ele></trkpt><trkpt lat="46.460039" lon="10.609583"><time>2022-08-24T09:11:32.000Z</time><ele>3352.4</ele></trkpt><trkpt lat="46.460043" lon="10.609571"><time>2022-08-24T09:11:33.000Z</time><ele>3352.4</ele></trkpt><trkpt lat="46.460059" lon="10.609519"><time>2022-08-24T09:11:37.000Z</time><ele>3351.4</ele></trkpt><trkpt lat="46.460067" lon="10.609471"><time>2022-08-24T09:11:40.000Z</time><ele>3350.4</ele></trkpt><trkpt lat="46.46007" lon="10.609458"><time>2022-08-24T09:11:41.000Z</time><ele>3350.2</ele></trkpt><trkpt lat="46.460071" lon="10.609446"><time>2022-08-24T09:11:42.000Z</time><ele>3350.2</ele></trkpt><trkpt lat="46.460083" lon="10.609369"><time>2022-08-24T09:11:48.000Z</time><ele>3349</ele></trkpt><trkpt lat="46.460082" lon="10.609338"><time>2022-08-24T09:11:52.000Z</time><ele>3348.2</ele></trkpt><trkpt lat="46.460083" lon="10.609337"><time>2022-08-24T09:11:53.000Z</time><ele>3348.2</ele></trkpt><trkpt lat="46.460091" lon="10.609335"><time>2022-08-24T09:11:55.000Z</time><ele>3348</ele></trkpt><trkpt lat="46.460121" lon="10.609328"><time>2022-08-24T09:11:59.000Z</time><ele>3347.4</ele></trkpt><trkpt lat="46.460132" lon="10.609324"><time>2022-08-24T09:12:03.000Z</time><ele>3347</ele></trkpt><trkpt lat="46.460138" lon="10.609327"><time>2022-08-24T09:12:05.000Z</time><ele>3346.6</ele></trkpt><trkpt lat="46.460201" lon="10.609364"><time>2022-08-24T09:12:13.000Z</time><ele>3346.2</ele></trkpt><trkpt lat="46.46023" lon="10.609378"><time>2022-08-24T09:12:17.000Z</time><ele>3345.8</ele></trkpt><trkpt lat="46.460236" lon="10.609375"><time>2022-08-24T09:12:21.000Z</time><ele>3345.2</ele></trkpt><trkpt lat="46.460245" lon="10.609366"><time>2022-08-24T09:12:29.000Z</time><ele>3345</ele></trkpt><trkpt lat="46.460245" lon="10.609366"><time>2022-08-24T09:12:35.000Z</time><ele>3344.8</ele></trkpt><trkpt lat="46.460238" lon="10.609278"><time>2022-08-24T09:12:59.000Z</time><ele>3343.8</ele></trkpt><trkpt lat="46.460233" lon="10.609235"><time>2022-08-24T09:13:01.000Z</time><ele>3343.4</ele></trkpt><trkpt lat="46.460226" lon="10.609145"><time>2022-08-24T09:13:05.000Z</time><ele>3342.6</ele></trkpt><trkpt lat="46.460223" lon="10.609132"><time>2022-08-24T09:13:06.000Z</time><ele>3342.4</ele></trkpt><trkpt lat="46.460218" lon="10.609107"><time>2022-08-24T09:13:08.000Z</time><ele>3342.2</ele></trkpt><trkpt lat="46.4602" lon="10.609055"><time>2022-08-24T09:13:11.000Z</time><ele>3341.6</ele></trkpt><trkpt lat="46.460189" lon="10.608967"><time>2022-08-24T09:13:18.000Z</time><ele>3340.4</ele></trkpt><trkpt lat="46.460186" lon="10.608944"><time>2022-08-24T09:13:20.000Z</time><ele>3340.2</ele></trkpt><trkpt lat="46.460198" lon="10.608886"><time>2022-08-24T09:13:25.000Z</time><ele>3339.4</ele></trkpt><trkpt lat="46.460205" lon="10.608853"><time>2022-08-24T09:13:28.000Z</time><ele>3338.4</ele></trkpt><trkpt lat="46.460211" lon="10.608828"><time>2022-08-24T09:13:30.000Z</time><ele>3338</ele></trkpt><trkpt lat="46.460212" lon="10.608778"><time>2022-08-24T09:13:34.000Z</time><ele>3337</ele></trkpt><trkpt lat="46.46022" lon="10.608716"><time>2022-08-24T09:13:39.000Z</time><ele>3335.6</ele></trkpt><trkpt lat="46.460223" lon="10.608658"><time>2022-08-24T09:13:44.000Z</time><ele>3334.6</ele></trkpt><trkpt lat="46.460222" lon="10.608598"><time>2022-08-24T09:13:48.000Z</time><ele>3333.6</ele></trkpt><trkpt lat="46.460218" lon="10.608586"><time>2022-08-24T09:13:49.000Z</time><ele>3333.4</ele></trkpt><trkpt lat="46.460216" lon="10.608519"><time>2022-08-24T09:13:54.000Z</time><ele>3332.2</ele></trkpt><trkpt lat="46.460212" lon="10.608488"><time>2022-08-24T09:13:56.000Z</time><ele>3331.6</ele></trkpt><trkpt lat="46.460201" lon="10.608476"><time>2022-08-24T09:13:57.000Z</time><ele>3331.2</ele></trkpt><trkpt lat="46.460195" lon="10.608463"><time>2022-08-24T09:13:58.000Z</time><ele>3331</ele></trkpt><trkpt lat="46.460182" lon="10.608412"><time>2022-08-24T09:14:02.000Z</time><ele>3330.2</ele></trkpt><trkpt lat="46.460179" lon="10.608389"><time>2022-08-24T09:14:04.000Z</time><ele>3330</ele></trkpt><trkpt lat="46.460158" lon="10.608315"><time>2022-08-24T09:14:10.000Z</time><ele>3328.8</ele></trkpt><trkpt lat="46.460144" lon="10.608262"><time>2022-08-24T09:14:15.000Z</time><ele>3327.6</ele></trkpt><trkpt lat="46.46014" lon="10.608241"><time>2022-08-24T09:14:17.000Z</time><ele>3327.4</ele></trkpt><trkpt lat="46.460136" lon="10.608209"><time>2022-08-24T09:14:20.000Z</time><ele>3326.4</ele></trkpt><trkpt lat="46.460103" lon="10.608132"><time>2022-08-24T09:14:26.000Z</time><ele>3325.4</ele></trkpt><trkpt lat="46.460094" lon="10.60811"><time>2022-08-24T09:14:28.000Z</time><ele>3325.2</ele></trkpt><trkpt lat="46.46008" lon="10.608058"><time>2022-08-24T09:14:32.000Z</time><ele>3324.4</ele></trkpt><trkpt lat="46.460063" lon="10.608004"><time>2022-08-24T09:14:36.000Z</time><ele>3323.4</ele></trkpt><trkpt lat="46.460057" lon="10.60798"><time>2022-08-24T09:14:38.000Z</time><ele>3322.8</ele></trkpt><trkpt lat="46.460053" lon="10.60797"><time>2022-08-24T09:14:39.000Z</time><ele>3322.4</ele></trkpt><trkpt lat="46.460046" lon="10.607959"><time>2022-08-24T09:14:40.000Z</time><ele>3322.2</ele></trkpt><trkpt lat="46.460028" lon="10.607897"><time>2022-08-24T09:14:46.000Z</time><ele>3321</ele></trkpt><trkpt lat="46.460005" lon="10.60784"><time>2022-08-24T09:14:52.000Z</time><ele>3319.8</ele></trkpt><trkpt lat="46.460002" lon="10.607829"><time>2022-08-24T09:14:53.000Z</time><ele>3319.4</ele></trkpt><trkpt lat="46.459995" lon="10.607782"><time>2022-08-24T09:14:56.000Z</time><ele>3318.4</ele></trkpt><trkpt lat="46.459986" lon="10.607749"><time>2022-08-24T09:14:59.000Z</time><ele>3317.2</ele></trkpt><trkpt lat="46.459982" lon="10.607729"><time>2022-08-24T09:15:01.000Z</time><ele>3316.8</ele></trkpt><trkpt lat="46.459977" lon="10.607703"><time>2022-08-24T09:15:04.000Z</time><ele>3316.2</ele></trkpt><trkpt lat="46.459964" lon="10.607669"><time>2022-08-24T09:15:08.000Z</time><ele>3315</ele></trkpt><trkpt lat="46.459962" lon="10.607657"><time>2022-08-24T09:15:10.000Z</time><ele>3314.4</ele></trkpt><trkpt lat="46.459952" lon="10.607637"><time>2022-08-24T09:15:12.000Z</time><ele>3314</ele></trkpt><trkpt lat="46.459949" lon="10.607627"><time>2022-08-24T09:15:13.000Z</time><ele>3313.8</ele></trkpt><trkpt lat="46.459948" lon="10.607612"><time>2022-08-24T09:15:14.000Z</time><ele>3313.8</ele></trkpt><trkpt lat="46.459945" lon="10.607575"><time>2022-08-24T09:15:16.000Z</time><ele>3313.2</ele></trkpt><trkpt lat="46.459937" lon="10.607552"><time>2022-08-24T09:15:18.000Z</time><ele>3312.6</ele></trkpt><trkpt lat="46.459937" lon="10.607526"><time>2022-08-24T09:15:20.000Z</time><ele>3312</ele></trkpt><trkpt lat="46.45994" lon="10.607494"><time>2022-08-24T09:15:22.000Z</time><ele>3311.8</ele></trkpt><trkpt lat="46.459939" lon="10.607477"><time>2022-08-24T09:15:23.000Z</time><ele>3311.6</ele></trkpt><trkpt lat="46.459962" lon="10.607413"><time>2022-08-24T09:15:30.000Z</time><ele>3311.2</ele></trkpt><trkpt lat="46.459985" lon="10.607355"><time>2022-08-24T09:15:37.000Z</time><ele>3312</ele></trkpt><trkpt lat="46.459992" lon="10.607323"><time>2022-08-24T09:15:40.000Z</time><ele>3312.8</ele></trkpt><trkpt lat="46.459992" lon="10.607305"><time>2022-08-24T09:15:43.000Z</time><ele>3313</ele></trkpt><trkpt lat="46.460001" lon="10.607293"><time>2022-08-24T09:15:46.000Z</time><ele>3313.6</ele></trkpt><trkpt lat="46.460006" lon="10.607292"><time>2022-08-24T09:15:47.000Z</time><ele>3313.8</ele></trkpt><trkpt lat="46.460022" lon="10.607298"><time>2022-08-24T09:15:50.000Z</time><ele>3314.2</ele></trkpt><trkpt lat="46.460035" lon="10.607292"><time>2022-08-24T09:15:53.000Z</time><ele>3314.6</ele></trkpt><trkpt lat="46.460038" lon="10.607287"><time>2022-08-24T09:15:56.000Z</time><ele>3314.8</ele></trkpt><trkpt lat="46.460042" lon="10.607284"><time>2022-08-24T09:15:58.000Z</time><ele>3315.2</ele></trkpt><trkpt lat="46.460052" lon="10.607275"><time>2022-08-24T09:16:09.000Z</time><ele>3314.4</ele></trkpt><trkpt lat="46.460052" lon="10.607275"><time>2022-08-24T09:16:16.000Z</time><ele>3313.8</ele></trkpt><trkpt lat="46.460065" lon="10.607276"><time>2022-08-24T09:16:24.000Z</time><ele>3312.4</ele></trkpt><trkpt lat="46.460073" lon="10.60728"><time>2022-08-24T09:16:35.000Z</time><ele>3311.4</ele></trkpt><trkpt lat="46.460089" lon="10.60729"><time>2022-08-24T09:16:49.000Z</time><ele>3310.2</ele></trkpt><trkpt lat="46.460092" lon="10.60729"><time>2022-08-24T09:16:51.000Z</time><ele>3309.8</ele></trkpt><trkpt lat="46.460095" lon="10.607289"><time>2022-08-24T09:16:57.000Z</time><ele>3309.2</ele></trkpt><trkpt lat="46.460101" lon="10.607289"><time>2022-08-24T09:17:00.000Z</time><ele>3308.6</ele></trkpt><trkpt lat="46.460119" lon="10.607308"><time>2022-08-24T09:17:07.000Z</time><ele>3308.2</ele></trkpt><trkpt lat="46.460124" lon="10.607313"><time>2022-08-24T09:17:08.000Z</time><ele>3308</ele></trkpt><trkpt lat="46.460138" lon="10.60732"><time>2022-08-24T09:17:10.000Z</time><ele>3307.6</ele></trkpt><trkpt lat="46.460164" lon="10.607357"><time>2022-08-24T09:17:18.000Z</time><ele>3306.8</ele></trkpt><trkpt lat="46.46017" lon="10.607362"><time>2022-08-24T09:17:20.000Z</time><ele>3306.2</ele></trkpt><trkpt lat="46.460182" lon="10.607373"><time>2022-08-24T09:17:24.000Z</time><ele>3305.6</ele></trkpt><trkpt lat="46.460183" lon="10.607372"><time>2022-08-24T09:17:26.000Z</time><ele>3305</ele></trkpt><trkpt lat="46.460183" lon="10.607372"><time>2022-08-24T09:17:31.000Z</time><ele>3304.6</ele></trkpt><trkpt lat="46.460209" lon="10.607394"><time>2022-08-24T09:17:38.000Z</time><ele>3303.4</ele></trkpt><trkpt lat="46.460221" lon="10.6074"><time>2022-08-24T09:17:39.000Z</time><ele>3303.2</ele></trkpt><trkpt lat="46.460241" lon="10.607412"><time>2022-08-24T09:17:41.000Z</time><ele>3302.6</ele></trkpt><trkpt lat="46.460253" lon="10.607398"><time>2022-08-24T09:17:43.000Z</time><ele>3302.2</ele></trkpt><trkpt lat="46.460259" lon="10.607388"><time>2022-08-24T09:17:45.000Z</time><ele>3301.8</ele></trkpt><trkpt lat="46.460266" lon="10.607381"><time>2022-08-24T09:17:49.000Z</time><ele>3301.2</ele></trkpt><trkpt lat="46.460272" lon="10.607382"><time>2022-08-24T09:17:50.000Z</time><ele>3301</ele></trkpt><trkpt lat="46.460286" lon="10.607395"><time>2022-08-24T09:17:56.000Z</time><ele>3300.2</ele></trkpt><trkpt lat="46.460291" lon="10.607405"><time>2022-08-24T09:18:00.000Z</time><ele>3299.8</ele></trkpt><trkpt lat="46.460291" lon="10.607405"><time>2022-08-24T09:18:05.000Z</time><ele>3299.2</ele></trkpt><trkpt lat="46.460299" lon="10.607407"><time>2022-08-24T09:18:24.000Z</time><ele>3298.2</ele></trkpt><trkpt lat="46.460305" lon="10.607408"><time>2022-08-24T09:18:31.000Z</time><ele>3297</ele></trkpt><trkpt lat="46.46031" lon="10.607409"><time>2022-08-24T09:18:38.000Z</time><ele>3296.6</ele></trkpt><trkpt lat="46.460314" lon="10.607412"><time>2022-08-24T09:18:45.000Z</time><ele>3296</ele></trkpt><trkpt lat="46.460327" lon="10.607423"><time>2022-08-24T09:18:51.000Z</time><ele>3295.6</ele></trkpt><trkpt lat="46.460342" lon="10.607433"><time>2022-08-24T09:18:57.000Z</time><ele>3295</ele></trkpt><trkpt lat="46.460355" lon="10.607443"><time>2022-08-24T09:19:08.000Z</time><ele>3294</ele></trkpt><trkpt lat="46.460375" lon="10.607454"><time>2022-08-24T09:19:13.000Z</time><ele>3293.4</ele></trkpt><trkpt lat="46.460382" lon="10.607458"><time>2022-08-24T09:19:17.000Z</time><ele>3292.8</ele></trkpt><trkpt lat="46.460402" lon="10.60746"><time>2022-08-24T09:19:24.000Z</time><ele>3291.8</ele></trkpt><trkpt lat="46.460404" lon="10.60746"><time>2022-08-24T09:19:25.000Z</time><ele>3291.8</ele></trkpt><trkpt lat="46.460429" lon="10.60746"><time>2022-08-24T09:19:34.000Z</time><ele>3290.8</ele></trkpt><trkpt lat="46.460448" lon="10.607455"><time>2022-08-24T09:19:41.000Z</time><ele>3289.8</ele></trkpt><trkpt lat="46.460543" lon="10.607465"><time>2022-08-24T09:19:49.000Z</time><ele>3288.8</ele></trkpt><trkpt lat="46.460609" lon="10.60746"><time>2022-08-24T09:19:53.000Z</time><ele>3288.6</ele></trkpt><trkpt lat="46.46064" lon="10.607443"><time>2022-08-24T09:19:57.000Z</time><ele>3288.4</ele></trkpt><trkpt lat="46.460649" lon="10.607434"><time>2022-08-24T09:19:58.000Z</time><ele>3288.4</ele></trkpt><trkpt lat="46.460703" lon="10.607339"><time>2022-08-24T09:20:07.000Z</time><ele>3289</ele></trkpt><trkpt lat="46.460713" lon="10.607277"><time>2022-08-24T09:20:12.000Z</time><ele>3289.6</ele></trkpt><trkpt lat="46.460709" lon="10.607238"><time>2022-08-24T09:20:15.000Z</time><ele>3290.2</ele></trkpt><trkpt lat="46.460712" lon="10.607159"><time>2022-08-24T09:20:23.000Z</time><ele>3290.8</ele></trkpt><trkpt lat="46.460716" lon="10.607145"><time>2022-08-24T09:20:24.000Z</time><ele>3291.2</ele></trkpt><trkpt lat="46.460716" lon="10.607138"><time>2022-08-24T09:20:25.000Z</time><ele>3291.4</ele></trkpt><trkpt lat="46.460717" lon="10.607117"><time>2022-08-24T09:20:27.000Z</time><ele>3291.8</ele></trkpt><trkpt lat="46.460718" lon="10.607106"><time>2022-08-24T09:20:28.000Z</time><ele>3292</ele></trkpt><trkpt lat="46.460718" lon="10.607084"><time>2022-08-24T09:20:30.000Z</time><ele>3292.4</ele></trkpt><trkpt lat="46.460714" lon="10.607055"><time>2022-08-24T09:20:32.000Z</time><ele>3292.6</ele></trkpt><trkpt lat="46.460711" lon="10.607043"><time>2022-08-24T09:20:33.000Z</time><ele>3292.8</ele></trkpt><trkpt lat="46.460708" lon="10.607031"><time>2022-08-24T09:20:34.000Z</time><ele>3292.8</ele></trkpt><trkpt lat="46.460707" lon="10.606994"><time>2022-08-24T09:20:38.000Z</time><ele>3293.2</ele></trkpt><trkpt lat="46.460699" lon="10.606898"><time>2022-08-24T09:20:46.000Z</time><ele>3293.6</ele></trkpt><trkpt lat="46.460705" lon="10.606867"><time>2022-08-24T09:20:49.000Z</time><ele>3293.8</ele></trkpt><trkpt lat="46.4607" lon="10.606812"><time>2022-08-24T09:20:54.000Z</time><ele>3294.2</ele></trkpt><trkpt lat="46.46071" lon="10.606702"><time>2022-08-24T09:21:03.000Z</time><ele>3294.8</ele></trkpt><trkpt lat="46.460732" lon="10.606539"><time>2022-08-24T09:21:15.000Z</time><ele>3294.8</ele></trkpt><trkpt lat="46.460751" lon="10.606424"><time>2022-08-24T09:21:23.000Z</time><ele>3294.8</ele></trkpt><trkpt lat="46.460764" lon="10.606295"><time>2022-08-24T09:21:32.000Z</time><ele>3294.2</ele></trkpt><trkpt lat="46.460775" lon="10.606268"><time>2022-08-24T09:21:34.000Z</time><ele>3294.2</ele></trkpt><trkpt lat="46.460814" lon="10.606179"><time>2022-08-24T09:21:41.000Z</time><ele>3294</ele></trkpt><trkpt lat="46.460822" lon="10.60615"><time>2022-08-24T09:21:44.000Z</time><ele>3293.6</ele></trkpt><trkpt lat="46.460858" lon="10.606052"><time>2022-08-24T09:21:50.000Z</time><ele>3292.8</ele></trkpt><trkpt lat="46.460881" lon="10.606011"><time>2022-08-24T09:21:53.000Z</time><ele>3292.2</ele></trkpt><trkpt lat="46.460909" lon="10.605954"><time>2022-08-24T09:21:57.000Z</time><ele>3291.6</ele></trkpt><trkpt lat="46.460951" lon="10.60586"><time>2022-08-24T09:22:03.000Z</time><ele>3290.6</ele></trkpt><trkpt lat="46.46096" lon="10.605847"><time>2022-08-24T09:22:04.000Z</time><ele>3290.2</ele></trkpt><trkpt lat="46.460979" lon="10.605807"><time>2022-08-24T09:22:07.000Z</time><ele>3289.4</ele></trkpt><trkpt lat="46.460994" lon="10.605763"><time>2022-08-24T09:22:10.000Z</time><ele>3288.8</ele></trkpt><trkpt lat="46.461015" lon="10.605704"><time>2022-08-24T09:22:14.000Z</time><ele>3288.2</ele></trkpt><trkpt lat="46.461019" lon="10.605687"><time>2022-08-24T09:22:15.000Z</time><ele>3288</ele></trkpt><trkpt lat="46.461044" lon="10.605624"><time>2022-08-24T09:22:20.000Z</time><ele>3287</ele></trkpt><trkpt lat="46.461065" lon="10.605576"><time>2022-08-24T09:22:24.000Z</time><ele>3286.4</ele></trkpt><trkpt lat="46.461072" lon="10.60556"><time>2022-08-24T09:22:25.000Z</time><ele>3286.2</ele></trkpt><trkpt lat="46.461091" lon="10.605533"><time>2022-08-24T09:22:27.000Z</time><ele>3285.8</ele></trkpt><trkpt lat="46.461105" lon="10.605493"><time>2022-08-24T09:22:30.000Z</time><ele>3285.2</ele></trkpt><trkpt lat="46.461112" lon="10.605479"><time>2022-08-24T09:22:31.000Z</time><ele>3285</ele></trkpt><trkpt lat="46.46112" lon="10.605465"><time>2022-08-24T09:22:32.000Z</time><ele>3284.8</ele></trkpt><trkpt lat="46.461144" lon="10.605399"><time>2022-08-24T09:22:37.000Z</time><ele>3283.8</ele></trkpt><trkpt lat="46.461166" lon="10.605341"><time>2022-08-24T09:22:41.000Z</time><ele>3283.2</ele></trkpt><trkpt lat="46.461185" lon="10.605304"><time>2022-08-24T09:22:44.000Z</time><ele>3282.8</ele></trkpt><trkpt lat="46.461225" lon="10.605213"><time>2022-08-24T09:22:51.000Z</time><ele>3281.6</ele></trkpt><trkpt lat="46.461245" lon="10.605178"><time>2022-08-24T09:22:54.000Z</time><ele>3281.2</ele></trkpt><trkpt lat="46.461287" lon="10.605105"><time>2022-08-24T09:23:00.000Z</time><ele>3280.6</ele></trkpt><trkpt lat="46.461293" lon="10.605092"><time>2022-08-24T09:23:01.000Z</time><ele>3280.4</ele></trkpt><trkpt lat="46.461301" lon="10.605079"><time>2022-08-24T09:23:02.000Z</time><ele>3280.4</ele></trkpt><trkpt lat="46.46133" lon="10.605028"><time>2022-08-24T09:23:06.000Z</time><ele>3279.8</ele></trkpt><trkpt lat="46.461344" lon="10.605006"><time>2022-08-24T09:23:08.000Z</time><ele>3279.4</ele></trkpt><trkpt lat="46.461385" lon="10.604928"><time>2022-08-24T09:23:14.000Z</time><ele>3278.4</ele></trkpt><trkpt lat="46.461391" lon="10.604914"><time>2022-08-24T09:23:15.000Z</time><ele>3278.4</ele></trkpt><trkpt lat="46.46141" lon="10.604866"><time>2022-08-24T09:23:19.000Z</time><ele>3278</ele></trkpt><trkpt lat="46.461458" lon="10.604768"><time>2022-08-24T09:23:27.000Z</time><ele>3277.4</ele></trkpt><trkpt lat="46.461467" lon="10.604741"><time>2022-08-24T09:23:29.000Z</time><ele>3277.2</ele></trkpt><trkpt lat="46.461485" lon="10.604707"><time>2022-08-24T09:23:32.000Z</time><ele>3277.2</ele></trkpt><trkpt lat="46.461504" lon="10.604672"><time>2022-08-24T09:23:35.000Z</time><ele>3277</ele></trkpt><trkpt lat="46.461522" lon="10.604643"><time>2022-08-24T09:23:40.000Z</time><ele>3276.6</ele></trkpt><trkpt lat="46.461522" lon="10.604623"><time>2022-08-24T09:23:49.000Z</time><ele>3276.6</ele></trkpt><trkpt lat="46.461523" lon="10.604617"><time>2022-08-24T09:23:55.000Z</time><ele>3276.2</ele></trkpt><trkpt lat="46.461525" lon="10.604611"><time>2022-08-24T09:23:59.000Z</time><ele>3276.2</ele></trkpt><trkpt lat="46.461587" lon="10.604445"><time>2022-08-24T09:24:08.000Z</time><ele>3275.6</ele></trkpt><trkpt lat="46.4616" lon="10.604386"><time>2022-08-24T09:24:12.000Z</time><ele>3275.2</ele></trkpt><trkpt lat="46.461609" lon="10.60436"><time>2022-08-24T09:24:14.000Z</time><ele>3275</ele></trkpt><trkpt lat="46.461623" lon="10.604333"><time>2022-08-24T09:24:16.000Z</time><ele>3274.8</ele></trkpt><trkpt lat="46.46164" lon="10.604275"><time>2022-08-24T09:24:20.000Z</time><ele>3274</ele></trkpt><trkpt lat="46.461652" lon="10.604224"><time>2022-08-24T09:24:24.000Z</time><ele>3273.4</ele></trkpt><trkpt lat="46.461665" lon="10.604193"><time>2022-08-24T09:24:27.000Z</time><ele>3272.8</ele></trkpt><trkpt lat="46.461675" lon="10.604097"><time>2022-08-24T09:24:33.000Z</time><ele>3271.8</ele></trkpt><trkpt lat="46.461677" lon="10.604084"><time>2022-08-24T09:24:34.000Z</time><ele>3271.4</ele></trkpt><trkpt lat="46.461685" lon="10.604037"><time>2022-08-24T09:24:38.000Z</time><ele>3270.6</ele></trkpt><trkpt lat="46.461704" lon="10.603962"><time>2022-08-24T09:24:44.000Z</time><ele>3269.4</ele></trkpt><trkpt lat="46.461715" lon="10.603936"><time>2022-08-24T09:24:46.000Z</time><ele>3268.8</ele></trkpt><trkpt lat="46.461727" lon="10.60391"><time>2022-08-24T09:24:48.000Z</time><ele>3268.2</ele></trkpt><trkpt lat="46.461743" lon="10.603877"><time>2022-08-24T09:24:51.000Z</time><ele>3267.2</ele></trkpt><trkpt lat="46.461758" lon="10.603828"><time>2022-08-24T09:24:55.000Z</time><ele>3266</ele></trkpt><trkpt lat="46.461758" lon="10.603828"><time>2022-08-24T09:24:56.000Z</time><ele>3265.6</ele></trkpt><trkpt lat="46.461781" lon="10.603787"><time>2022-08-24T09:24:59.000Z</time><ele>3264.8</ele></trkpt><trkpt lat="46.461816" lon="10.603731"><time>2022-08-24T09:25:04.000Z</time><ele>3263.8</ele></trkpt><trkpt lat="46.461838" lon="10.603689"><time>2022-08-24T09:25:09.000Z</time><ele>3262.8</ele></trkpt><trkpt lat="46.461866" lon="10.603662"><time>2022-08-24T09:25:11.000Z</time><ele>3262.4</ele></trkpt><trkpt lat="46.461893" lon="10.603624"><time>2022-08-24T09:25:15.000Z</time><ele>3261.6</ele></trkpt><trkpt lat="46.461911" lon="10.603613"><time>2022-08-24T09:25:17.000Z</time><ele>3261.4</ele></trkpt><trkpt lat="46.461953" lon="10.603582"><time>2022-08-24T09:25:21.000Z</time><ele>3260.6</ele></trkpt><trkpt lat="46.461981" lon="10.603539"><time>2022-08-24T09:25:25.000Z</time><ele>3260.4</ele></trkpt><trkpt lat="46.462068" lon="10.603457"><time>2022-08-24T09:25:35.000Z</time><ele>3260.2</ele></trkpt><trkpt lat="46.462152" lon="10.603393"><time>2022-08-24T09:25:45.000Z</time><ele>3260.8</ele></trkpt><trkpt lat="46.462204" lon="10.603356"><time>2022-08-24T09:25:51.000Z</time><ele>3261.2</ele></trkpt><trkpt lat="46.462233" lon="10.60332"><time>2022-08-24T09:25:55.000Z</time><ele>3261.6</ele></trkpt><trkpt lat="46.46224" lon="10.603315"><time>2022-08-24T09:25:56.000Z</time><ele>3261.6</ele></trkpt><trkpt lat="46.462266" lon="10.603281"><time>2022-08-24T09:26:00.000Z</time><ele>3262.2</ele></trkpt><trkpt lat="46.462321" lon="10.603207"><time>2022-08-24T09:26:08.000Z</time><ele>3262.6</ele></trkpt><trkpt lat="46.462331" lon="10.603197"><time>2022-08-24T09:26:09.000Z</time><ele>3262.8</ele></trkpt><trkpt lat="46.462369" lon="10.603148"><time>2022-08-24T09:26:14.000Z</time><ele>3263</ele></trkpt><trkpt lat="46.462392" lon="10.603101"><time>2022-08-24T09:26:18.000Z</time><ele>3263.2</ele></trkpt><trkpt lat="46.462449" lon="10.603033"><time>2022-08-24T09:26:25.000Z</time><ele>3263.6</ele></trkpt><trkpt lat="46.462504" lon="10.602951"><time>2022-08-24T09:26:33.000Z</time><ele>3264.2</ele></trkpt><trkpt lat="46.462544" lon="10.602864"><time>2022-08-24T09:26:40.000Z</time><ele>3264.8</ele></trkpt><trkpt lat="46.462551" lon="10.602826"><time>2022-08-24T09:26:43.000Z</time><ele>3264.8</ele></trkpt><trkpt lat="46.462555" lon="10.602812"><time>2022-08-24T09:26:44.000Z</time><ele>3264.8</ele></trkpt><trkpt lat="46.462561" lon="10.602773"><time>2022-08-24T09:26:47.000Z</time><ele>3265.2</ele></trkpt><trkpt lat="46.462559" lon="10.602726"><time>2022-08-24T09:26:51.000Z</time><ele>3265.8</ele></trkpt><trkpt lat="46.462546" lon="10.602695"><time>2022-08-24T09:26:54.000Z</time><ele>3266.2</ele></trkpt><trkpt lat="46.46254" lon="10.602689"><time>2022-08-24T09:26:57.000Z</time><ele>3266.6</ele></trkpt><trkpt lat="46.462535" lon="10.602687"><time>2022-08-24T09:26:58.000Z</time><ele>3266.6</ele></trkpt><trkpt lat="46.462533" lon="10.602691"><time>2022-08-24T09:26:59.000Z</time><ele>3266.8</ele></trkpt><trkpt lat="46.462532" lon="10.602694"><time>2022-08-24T09:27:00.000Z</time><ele>3266.8</ele></trkpt><trkpt lat="46.462514" lon="10.60269"><time>2022-08-24T09:27:07.000Z</time><ele>3267.2</ele></trkpt><trkpt lat="46.462509" lon="10.602687"><time>2022-08-24T09:27:15.000Z</time><ele>3267.2</ele></trkpt><trkpt lat="46.462509" lon="10.602687"><time>2022-08-24T09:27:17.000Z</time><ele>3267</ele></trkpt><trkpt lat="46.462503" lon="10.602682"><time>2022-08-24T09:27:38.000Z</time><ele>3266.6</ele></trkpt><trkpt lat="46.462502" lon="10.602679"><time>2022-08-24T09:27:40.000Z</time><ele>3266.8</ele></trkpt><trkpt lat="46.462501" lon="10.602678"><time>2022-08-24T09:27:44.000Z</time><ele>3266.6</ele></trkpt><trkpt lat="46.462501" lon="10.602678"><time>2022-08-24T09:27:49.000Z</time><ele>3266.4</ele></trkpt><trkpt lat="46.462501" lon="10.602676"><time>2022-08-24T09:27:52.000Z</time><ele>3266.2</ele></trkpt><trkpt lat="46.462501" lon="10.602677"><time>2022-08-24T09:27:59.000Z</time><ele>3266.2</ele></trkpt><trkpt lat="46.462502" lon="10.602679"><time>2022-08-24T09:28:04.000Z</time><ele>3267</ele></trkpt><trkpt lat="46.462511" lon="10.602696"><time>2022-08-24T09:28:15.000Z</time><ele>3266.4</ele></trkpt><trkpt lat="46.462511" lon="10.602704"><time>2022-08-24T09:28:20.000Z</time><ele>3267</ele></trkpt><trkpt lat="46.462512" lon="10.602704"><time>2022-08-24T09:28:25.000Z</time><ele>3267</ele></trkpt><trkpt lat="46.462519" lon="10.602705"><time>2022-08-24T09:29:03.000Z</time><ele>3267</ele></trkpt><trkpt lat="46.462514" lon="10.602698"><time>2022-08-24T09:29:20.000Z</time><ele>3267</ele></trkpt><trkpt lat="46.462514" lon="10.6027"><time>2022-08-24T09:29:35.000Z</time><ele>3267</ele></trkpt><trkpt lat="46.462513" lon="10.602702"><time>2022-08-24T09:29:39.000Z</time><ele>3267</ele></trkpt><trkpt lat="46.462513" lon="10.602702"><time>2022-08-24T09:29:56.000Z</time><ele>3267</ele></trkpt><trkpt lat="46.462513" lon="10.602702"><time>2022-08-24T09:29:58.000Z</time><ele>3267</ele></trkpt><trkpt lat="46.462528" lon="10.602697"><time>2022-08-24T09:30:08.000Z</time><ele>3267</ele></trkpt><trkpt lat="46.462538" lon="10.602689"><time>2022-08-24T09:30:16.000Z</time><ele>3267</ele></trkpt><trkpt lat="46.46254" lon="10.602686"><time>2022-08-24T09:30:19.000Z</time><ele>3267</ele></trkpt><trkpt lat="46.462541" lon="10.602682"><time>2022-08-24T09:30:39.000Z</time><ele>3267</ele></trkpt><trkpt lat="46.462541" lon="10.602682"><time>2022-08-24T09:30:44.000Z</time><ele>3267</ele></trkpt><trkpt lat="46.462541" lon="10.602683"><time>2022-08-24T09:30:55.000Z</time><ele>3267</ele></trkpt><trkpt lat="46.462541" lon="10.602683"><time>2022-08-24T09:31:02.000Z</time><ele>3267</ele></trkpt><trkpt lat="46.462541" lon="10.602683"><time>2022-08-24T09:31:08.000Z</time><ele>3267</ele></trkpt><trkpt lat="46.462541" lon="10.602683"><time>2022-08-24T09:31:22.000Z</time><ele>3267</ele></trkpt><trkpt lat="46.46256" lon="10.602607"><time>2022-08-24T09:31:30.000Z</time><ele>3267</ele></trkpt><trkpt lat="46.462587" lon="10.602527"><time>2022-08-24T09:31:36.000Z</time><ele>3267</ele></trkpt><trkpt lat="46.462597" lon="10.6025"><time>2022-08-24T09:31:38.000Z</time><ele>3267</ele></trkpt><trkpt lat="46.462606" lon="10.602488"><time>2022-08-24T09:31:39.000Z</time><ele>3267</ele></trkpt><trkpt lat="46.462631" lon="10.602461"><time>2022-08-24T09:31:43.000Z</time><ele>3267</ele></trkpt><trkpt lat="46.46264" lon="10.602459"><time>2022-08-24T09:31:44.000Z</time><ele>3267</ele></trkpt><trkpt lat="46.462679" lon="10.602439"><time>2022-08-24T09:31:48.000Z</time><ele>3267</ele></trkpt><trkpt lat="46.4627" lon="10.60239"><time>2022-08-24T09:31:52.000Z</time><ele>3267</ele></trkpt><trkpt lat="46.462753" lon="10.602325"><time>2022-08-24T09:32:01.000Z</time><ele>3267</ele></trkpt><trkpt lat="46.462775" lon="10.602307"><time>2022-08-24T09:32:05.000Z</time><ele>3267</ele></trkpt><trkpt lat="46.462802" lon="10.602288"><time>2022-08-24T09:32:08.000Z</time><ele>3267</ele></trkpt><trkpt lat="46.462815" lon="10.602271"><time>2022-08-24T09:32:10.000Z</time><ele>3267</ele></trkpt><trkpt lat="46.462826" lon="10.602266"><time>2022-08-24T09:32:11.000Z</time><ele>3267</ele></trkpt><trkpt lat="46.462836" lon="10.602262"><time>2022-08-24T09:32:12.000Z</time><ele>3267</ele></trkpt><trkpt lat="46.462886" lon="10.60227"><time>2022-08-24T09:32:16.000Z</time><ele>3267</ele></trkpt><trkpt lat="46.462955" lon="10.602307"><time>2022-08-24T09:32:22.000Z</time><ele>3269.6</ele></trkpt><trkpt lat="46.462963" lon="10.602311"><time>2022-08-24T09:32:23.000Z</time><ele>3270.8</ele></trkpt><trkpt lat="46.46298" lon="10.602328"><time>2022-08-24T09:32:25.000Z</time><ele>3272</ele></trkpt><trkpt lat="46.463001" lon="10.60236"><time>2022-08-24T09:32:28.000Z</time><ele>3272.4</ele></trkpt><trkpt lat="46.462996" lon="10.602416"><time>2022-08-24T09:32:32.000Z</time><ele>3273</ele></trkpt><trkpt lat="46.462989" lon="10.602462"><time>2022-08-24T09:32:35.000Z</time><ele>3273.2</ele></trkpt><trkpt lat="46.462984" lon="10.602559"><time>2022-08-24T09:32:41.000Z</time><ele>3273</ele></trkpt><trkpt lat="46.46301" lon="10.602587"><time>2022-08-24T09:32:44.000Z</time><ele>3273</ele></trkpt><trkpt lat="46.463101" lon="10.602603"><time>2022-08-24T09:32:54.000Z</time><ele>3272.8</ele></trkpt><trkpt lat="46.463122" lon="10.602627"><time>2022-08-24T09:32:59.000Z</time><ele>3273</ele></trkpt><trkpt lat="46.46313" lon="10.602639"><time>2022-08-24T09:33:02.000Z</time><ele>3272.8</ele></trkpt><trkpt lat="46.463128" lon="10.602651"><time>2022-08-24T09:33:04.000Z</time><ele>3272.8</ele></trkpt><trkpt lat="46.46312" lon="10.602629"><time>2022-08-24T09:33:09.000Z</time><ele>3272.8</ele></trkpt><trkpt lat="46.463106" lon="10.602635"><time>2022-08-24T09:33:11.000Z</time><ele>3272.6</ele></trkpt><trkpt lat="46.463102" lon="10.602634"><time>2022-08-24T09:33:17.000Z</time><ele>3272.6</ele></trkpt><trkpt lat="46.463102" lon="10.602634"><time>2022-08-24T09:33:20.000Z</time><ele>3272.8</ele></trkpt><trkpt lat="46.463102" lon="10.602634"><time>2022-08-24T09:33:21.000Z</time><ele>3272.6</ele></trkpt><trkpt lat="46.463105" lon="10.602634"><time>2022-08-24T09:33:29.000Z</time><ele>3272.4</ele></trkpt><trkpt lat="46.463106" lon="10.602625"><time>2022-08-24T09:33:39.000Z</time><ele>3272.4</ele></trkpt><trkpt lat="46.463107" lon="10.602621"><time>2022-08-24T09:33:50.000Z</time><ele>3272.2</ele></trkpt><trkpt lat="46.463106" lon="10.602621"><time>2022-08-24T09:33:56.000Z</time><ele>3272.2</ele></trkpt><trkpt lat="46.463092" lon="10.602619"><time>2022-08-24T09:34:10.000Z</time><ele>3272</ele></trkpt><trkpt lat="46.463088" lon="10.602617"><time>2022-08-24T09:34:13.000Z</time><ele>3272</ele></trkpt><trkpt lat="46.463088" lon="10.602616"><time>2022-08-24T09:34:15.000Z</time><ele>3272</ele></trkpt><trkpt lat="46.463088" lon="10.602614"><time>2022-08-24T09:34:17.000Z</time><ele>3272</ele></trkpt><trkpt lat="46.4631" lon="10.602627"><time>2022-08-24T09:34:29.000Z</time><ele>3272</ele></trkpt><trkpt lat="46.463087" lon="10.602622"><time>2022-08-24T09:34:36.000Z</time><ele>3272</ele></trkpt><trkpt lat="46.463087" lon="10.602622"><time>2022-08-24T09:34:38.000Z</time><ele>3272</ele></trkpt><trkpt lat="46.463088" lon="10.602622"><time>2022-08-24T09:34:45.000Z</time><ele>3272</ele></trkpt><trkpt lat="46.46309" lon="10.602621"><time>2022-08-24T09:35:00.000Z</time><ele>3272</ele></trkpt><trkpt lat="46.46313" lon="10.602582"><time>2022-08-24T09:35:30.000Z</time><ele>3272</ele></trkpt><trkpt lat="46.463131" lon="10.602575"><time>2022-08-24T09:36:07.000Z</time><ele>3272</ele></trkpt><trkpt lat="46.463113" lon="10.602595"><time>2022-08-24T09:36:45.000Z</time><ele>3272</ele></trkpt><trkpt lat="46.463088" lon="10.60259"><time>2022-08-24T09:37:25.000Z</time><ele>3272</ele></trkpt><trkpt lat="46.463086" lon="10.602605"><time>2022-08-24T09:37:48.000Z</time><ele>3272</ele></trkpt><trkpt lat="46.463087" lon="10.602603"><time>2022-08-24T09:37:55.000Z</time><ele>3272</ele></trkpt><trkpt lat="46.463093" lon="10.60256"><time>2022-08-24T09:38:12.000Z</time><ele>3272</ele></trkpt><trkpt lat="46.463072" lon="10.602584"><time>2022-08-24T09:38:40.000Z</time><ele>3272</ele></trkpt><trkpt lat="46.463083" lon="10.602596"><time>2022-08-24T09:39:10.000Z</time><ele>3272</ele></trkpt><trkpt lat="46.463083" lon="10.602597"><time>2022-08-24T09:39:22.000Z</time><ele>3272</ele></trkpt><trkpt lat="46.463073" lon="10.602594"><time>2022-08-24T09:39:31.000Z</time><ele>3272</ele></trkpt></trkseg></trk></gpx>